     2              OBSERVATION DATA    GPS                 RINEX VERSION / TYPE
teqc 2003Nov3 Frederique Rolandone20040721 21:55:59UTC      PGM / RUN BY / DATE
                                                            COMMENT
42-44 dBHz = 7, 45-48 dBHz = 8, >= 49 dBHz = 9              COMMENT
42-44 dBHz = 7, 45-48 dBHz = 8, >= 49 dBHz = 9              COMMENT
42-44 dBHz = 7, 45-48 dBHz = 8, >= 49 dBHz = 9              COMMENT
42-44 dBHz = 7, 45-48 dBHz = 8, >= 49 dBHz = 9              COMMENT
42-44 dBHz = 7, 45-48 dBHz = 8, >= 49 dBHz = 9              COMMENT
42-44 dBHz = 7, 45-48 dBHz = 8, >= 49 dBHz = 9              COMMENT
Original Marker Name: 0508                                  COMMENT
Campaign Name: UC Berkeley Central Calif 2003-2004          COMMENT
4-Character Station Name: 0508                              COMMENT
6-Character Antenna Code: TRZEPH                            COMMENT
Vertical Measurement Point: MGP                             COMMENT
Vertical Offset to Rinex Ref. Point: 0.0443                 COMMENT
Radial Measurement Point: OGP                               COMMENT
Radial Offset to Rinex Ref. Point: 0.1698                   COMMENT
Antenna Height from Field Measurement: 1.3487 m             COMMENT
Original XYZ: 0.0000 0.0000 0.0000                          COMMENT
New XYZ position is based on association with SCEC monument COMMENT
E1F1E2Y0+0011. Position of that monument is believed to be  COMMENT
valid to within 1 m horizontally; vertical accuracy         COMMENT
should be no worse than 3-times this value.                 COMMENT
                                                            COMMENT
Revised Rinex header created by UCSD GPS archive for        COMMENT
GSAC on 04-Feb-2005 (2005:035) 16:33:44 GMT                 COMMENT
For assistance contact dagnew@ucsd.edu                      COMMENT
or anderson@python.ucsd.edu                                 COMMENT
                                                            COMMENT
STA 05-08 1990                                              MARKER NAME
0508                                                        MARKER NUMBER
F. Rolandone UNIV CALIF BERKELEY                            OBSERVER / AGENCY
220280492 TRIMBLE 5700 NP 1.20 / SP 0.00                    REC # / TYPE / VERS
337743 TRM41249.00                                          ANT # / TYPE
 -2650054.0000 -4445628.0000  3715219.0000                  APPROX POSITION XYZ
        1.2937        0.0000        0.0000                  ANTENNA: DELTA H/E/N
     1     1     0                                          WAVELENGTH FACT L1/2
     4    L1    L2    C1    P2                              # / TYPES OF OBSERV
    30                                                      INTERVAL
  2004     7    17     0     0   30.000000                  TIME OF FIRST OBS
  2004     7    17    17    49    0.000000                  TIME OF LAST OBS
                                                            END OF HEADER
 04  7 17  0  0 30.0000000  0  8G16G 1G13G23G20G27G 3G 8
 -13884770.06258 -10805557.58254  22706081.1414   22706078.9844
 -21777637.40659 -16956600.50156  21233003.2974   21233002.2734
 -22515139.95359 -17532238.68056  20958898.8054   20958897.3594
 -24050711.09058 -18727305.60655  20994244.6644   20994240.0704
 -15625308.69957 -12163077.28654  22558126.8984   22558126.1134
 -14484044.24658 -11272998.71954  22427408.9924   22427408.7734
  -4674635.79356  -3630902.88651  23860033.3134   23860034.1484
  -2616570.83655  -2025119.69152  24512087.2504   24512091.1724
 04  7 17  0  1  0.0000000  0  8G16G 1G13G23G20G27G 3G 8
 -13818385.50848 -10753829.39243  22718713.5554   22718712.0474
 -21749820.43749 -16934924.97746  21238296.4454   21238295.5434
 -22571049.43749 -17575804.50946  20948259.6254   20948258.2544
 -24020628.75849 -18703864.86246  20999969.1254   20999964.7424
 -15534481.96148 -12092303.32643  22575410.3134   22575410.0314
 -14541675.19148 -11317905.89644  22416442.1334   22416442.1054
  -4743009.30546  -3684180.83242  23847021.7584   23847022.4844
  -2708498.68745  -2096751.61542  24494592.9924   24494597.9654
 04  7 17  0  1 30.0000000  0  8G16G 1G13G23G20G27G 3G 8
 -13751615.00448 -10701800.48143  22731419.4384   22731417.9734
 -21721691.29349 -16913006.19545  21243649.3134   21243648.3984
 -22626705.42649 -17619172.79646  20937668.5784   20937666.6174
 -23990197.76249 -18680152.43846  21005759.8364   21005755.3634
 -15443394.88347 -12021326.48443  22592743.9454   22592743.5704
 -14599132.87148 -11362678.05444  22405508.5554   22405507.9384
  -4811090.20346  -3737230.82341  23834066.2664   23834067.7154
  -2800298.20345  -2168283.49342  24477124.1024   24477129.1684
 04  7 17  0  2  0.0000000  0  8G16G 1G13G23G20G27G 3G 8
 -13684460.06248 -10649472.01743  22744198.9614   22744197.3164
 -21693248.32449 -16890842.87046  21249061.7734   21249061.0984
 -22682105.35948 -17662341.58146  20927126.4844   20927124.5704
 -23959416.38749 -18656166.97945  21011617.4304   21011612.9734
 -15352048.77047 -11950147.81343  22610126.4384   22610126.2464
 -14656416.31247 -11407314.46444  22394607.6334   22394607.5354
  -4878874.28546  -3790049.52741  23821167.4384   23821169.1524
  -2891967.81645  -2239714.24642  24459679.3984   24459684.7814
 04  7 17  0  2 30.0000000  0  8G16G 1G13G23G20G27G 3G 8
 -13616923.93748 -10596846.51043  22757050.2584   22757048.9144
 -21664491.67249 -16868435.11846  21254534.4694   21254533.1764
 -22737248.39549 -17705310.16646  20916633.1414   20916630.9654
 -23928285.56649 -18631909.22245  21017541.3364   21017537.2194
 -15260447.16847 -11878770.05443  22627557.7584   22627557.4344
 -14713526.62147 -11451815.95144  22383740.0864   22383739.6914
  -4946359.53946  -3842635.41942  23808326.2504   23808327.5274
  -2983508.22745  -2311044.27942  24442260.3594   24442264.3554
 04  7 17  0  3  0.0000000  0  8G16G 1G13G23G20G27G 3G 8
 -13549009.81648 -10543926.46443  22769974.9224   22769972.3134
 -21635421.61349 -16845783.15846  21260066.3444   21260065.3524
 -22792133.48049 -17748077.75746  20906188.8444   20906187.0514
 -23896805.49248 -18607379.31945  21023532.0314   21023527.6644
 -15168593.72347 -11807196.05243  22645036.9384   22645037.1484
 -14770465.11747 -11496183.55744  22372904.8754   22372904.4804
  -5013543.89847  -3894986.77342  23795541.4924   23795542.0204
  -3074919.50046  -2382273.69542  24424865.6254   24424868.9534
 04  7 17  0  3 30.0000000  0  8G16G 1G13G23G20G27G 3G 8
 -13480718.03548 -10490712.13843  22782969.7424   22782967.6214
 -21606035.44149 -16822884.86745  21265658.2734   21265657.1524
 -22846756.88349 -17790641.43346  20895794.5864   20895792.4304
 -23864973.93748 -18582575.54445  21029589.0554   21029584.8954
 -15076488.94147 -11735426.21243  22662564.4534   22662564.0944
 -14827229.91048 -11540415.80744  22362102.6644   22362102.1174
  -5080422.33647  -3947099.80542  23782814.8524   23782815.6724
  -3166199.45346  -2453400.74742  24407496.0474   24407498.6644
 04  7 17  0  4  0.0000000  0  8G16G 1G13G23G20G27G 3G 8
 -13412050.98448 -10437205.40843  22796036.6334   22796034.8794
 -21576332.89149 -16799740.05346  21271310.1334   21271309.4454
 -22901117.09449 -17833000.04346  20885450.0164   20885447.8484
 -23832790.64149 -18557497.67845  21035713.6564   21035709.4414
 -14984135.82047 -11663462.85443  22680138.3754   22680138.0434
 -14883821.41848 -11584513.03044  22351333.9064   22351333.4654
  -5146991.89847  -3998972.13642  23770146.9694   23770148.5514
  -3257347.77746  -2524425.26442  24390150.8984   24390154.0904
 04  7 17  0  4 30.0000000  0  8G16G 1G13G23G20G27G 3G 8
 -13343013.32848 -10383409.89143  22809174.3284   22809172.0864
 -21546315.62549 -16776350.01546  21277022.5864   21277021.7464
 -22955214.40249 -17875153.78146  20875155.4144   20875153.7274
 -23800257.44149 -18532147.16645  21041904.4144   21041900.3524
 -14891539.14847 -11591309.74043  22697759.3834   22697758.9344
 -14940242.20347 -11628477.22344  22340597.0004   22340596.9454
  -5213251.60947  -4050603.01342  23757538.5474   23757539.5044
  -3348366.48446  -2595348.78542  24372829.1724   24372834.0824
 04  7 17  0  5  0.0000000  0  8G16G 1G13G23G20G27G 3G 8
 -13273610.62948 -10329329.88743  22822380.6724   22822379.0944
 -21515986.01249 -16752716.58045  21282794.1724   21282793.3674
 -23009050.21949 -17917103.75546  20864910.7504   20864908.8204
 -23767376.90649 -18506525.99645  21048161.4384   21048157.1844
 -14798704.58247 -11518971.24143  22715424.8204   22715425.0634
 -14996495.33248 -11672310.77744  22329892.2664   22329892.4774
  -5279201.74247  -4101992.67442  23744988.3914   23744989.9884
  -3439257.96146  -2666173.13942  24355533.7424   24355538.0594
 04  7 17  0  5 30.0000000  0  8G16G 1G13G23G20G27G 3G 8
 -13203842.59848 -10274965.27643  22835657.3834   22835655.2734
 -21485340.94549 -16728837.33245  21288625.4144   21288625.0004
 -23062619.79749 -17958846.27946  20854716.6804   20854714.6914
 -23734146.37949 -18480632.11445  21054485.0784   21054480.3204
 -14705632.19147 -11446447.41643  22733136.0084   22733136.1564
 -15052578.53548 -11716011.92544  22319220.1484   22319219.8754
  -5344836.55947  -4153136.64142  23732498.6724   23732500.1884
  -3530018.85547  -2736895.77742  24338263.3054   24338265.8324
 04  7 17  0  6  0.0000000  0  8G16G 1G13G23G20G27G 3G 8
 -13133710.39848 -10220316.86843  22849003.1094   22849001.5744
 -21454378.72349 -16704710.95346  21294517.2974   21294516.8674
 -23115920.42249 -18000379.22346  20844574.2974   20844572.4734
 -23700564.18448 -18454464.19445  21060875.5394   21060871.0124
 -14612323.50847 -11373739.48843  22750892.6564   22750891.7704
 -15108490.93448 -11759579.97644  22308580.0394   22308580.1414
  -5410152.16047  -4204031.83342  23720069.1724   23720070.5234
  -3620648.19147  -2807515.92042  24321016.6334   24321019.0864
 04  7 17  0  6 30.0000000  0  8G16G 1G13G23G20G27G 3G 8
 -13063217.10548 -10165387.09143  22862417.4694   22862415.5354
 -21423099.32449 -16680337.43545  21300469.9454   21300468.7234
 -23168950.97749 -18041701.72846  20834482.7344   20834480.5864
 -23666630.77049 -18428022.60145  21067332.9924   21067328.2854
 -14518781.77048 -11300849.93243  22768693.0314   22768692.7194
 -15164233.44948 -11803015.65444  22297972.8754   22297972.2624
  -5475146.07047  -4254676.38742  23707701.1484   23707702.5394
  -3711146.00847  -2878033.51642  24303794.8054   24303797.6294
 04  7 17  0  7  0.0000000  0  8G16G 1G13G23G20G27G 3G 8
 -12992366.38748 -10110178.77643  22875899.8984   22875897.9454
 -21391503.61349 -16655717.42845  21306482.0394   21306481.5664
 -23221711.02749 -18082813.43546  20824442.8204   20824440.9494
 -23632347.11749 -18401308.10245  21073857.0474   21073852.3134
 -14425010.96948 -11227781.91043  22786536.9064   22786536.9574
 -15219807.62548 -11846320.15344  22287397.4304   22287396.9774
  -5539816.85547  -4305069.15142  23695394.8834   23695396.4064
  -3801513.08647  -2948449.29742  24286598.9614   24286601.2344
 04  7 17  0  7 30.0000000  0  8G16G 1G13G23G20G27G 3G 8
 -12921160.89548 -10054694.03843  22889449.6334   22889447.8284
 -21359591.44149 -16630850.84345  21312554.5554   21312554.4574
 -23274198.72749 -18123712.92446  20814454.8134   20814452.9574
 -23597713.42249 -18374320.83545  21080447.4064   21080443.1564
 -14331014.29747 -11154537.87343  22804424.4454   22804423.6604
 -15275214.09048 -11889493.97444  22276854.0554   22276853.4774
  -5604161.58247  -4355207.84142  23683150.8754   23683152.2234
  -3891749.71147  -3018763.39842  24269427.1334   24269429.9264
 04  7 17  0  8  0.0000000  0  8G16G 1G13G23G20G27G 3G 8
 -12849605.41048  -9998936.60743  22903066.1414   22903064.6844
 -21327364.56249 -16605739.01845  21318687.7194   21318686.6914
 -23326414.82849 -18164400.78646  20804518.4774   20804516.3364
 -23562731.53949 -18347062.25545  21087104.4614   21087099.7704
 -14236796.58647 -11081121.60443  22822353.2504   22822352.8914
 -15330455.25848 -11932539.00144  22266341.8444   22266341.3484
  -5668179.55947  -4405091.93742  23670968.7344   23670969.6214
  -3981857.40647  -3088977.11642  24252279.8594   24252283.0314
 04  7 17  0  8 30.0000000  0  8G16G 1G13G23G20G27G 3G 8
 -12777697.54747  -9942904.57743  22916749.8054   22916748.2734
 -21294817.69148 -16580377.86445  21324880.8364   21324880.0944
 -23378352.85949 -18204871.96146  20794634.5784   20794632.8014
 -23527396.33649 -18319528.36345  21093828.2734   21093823.6724
 -14142355.65647 -11007531.39743  22840324.8914   22840324.5664
 -15385526.64148 -11975451.71244  22255861.9614   22255861.3014
  -5731863.30548  -4454715.60042  23658850.1094   23658850.9884
  -4071831.20747  -3159086.42142  24235158.2424   24235162.1994
 04  7 17  0  9  0.0000000  0  8G16G 1G13G23G20G27G 3G 8
 -12705440.75048  -9886600.63343  22930499.7194   22930498.2934
 -21261951.13349 -16554767.59145  21331135.2424   21331134.3284
 -23430011.71149 -18245125.60546  20784804.6024   20784802.4304
 -23491708.65649 -18291719.80845  21100619.6174   21100614.9964
 -14047695.04347 -10933770.02243  22858338.1954   22858338.3554
 -15440429.49648 -12018233.11444  22245414.3134   22245413.8014
  -5795210.79747  -4504077.19542  23646794.5474   23646796.5744
  -4161671.77347  -3229091.90842  24218062.1564   24218065.4264
 04  7 17  0  9 30.0000000  0  8G16G 1G13G23G20G27G 3G 8
 -12632836.50448  -9830025.96942  22944315.9774   22944314.5904
 -21228763.83648 -16528907.39545  21337450.6484   21337449.9384
 -23481389.07049 -18285159.89746  20775027.7814   20775025.7704
 -23455667.47349 -18263635.80546  21107478.3834   21107473.7584
 -13952816.94547 -10859839.17843  22876392.9064   22876393.0984
 -15495163.42648 -12060882.89644  22234998.7814   22234998.3134
  -5858218.48848  -4553174.06542  23634805.1094   23634806.7664
  -4251377.93747  -3298992.71942  24200991.2274   24200995.0864
 04  7 17  0 10  0.0000000  0  8G16G 1G13G23G20G27G 3G 8
 -12559892.06247  -9773186.19742  22958197.0234   22958195.6214
 -21195259.90249 -16502800.48545  21343826.2814   21343825.7464
 -23532487.71549 -18324977.01046  20765303.9534   20765301.7034
 -23419277.28148 -18235279.85545  21114403.1174   21114398.7114
 -13857728.60547 -10785744.51743  22894487.6644   22894488.2974
 -15549733.17647 -12103404.72644  22224614.2504   22224613.7584
  -5920888.12947  -4602007.49342  23622879.6254   23622881.0234
  -4340954.14147  -3368792.22642  24183945.6484   24183949.0744
 04  7 17  0 10 30.0000000  0  8G16G 1G13G23G20G27G 3G 8
 -12486607.37147  -9716081.32043  22972142.5864   22972141.5784
 -21161436.41448 -16476444.55445  21350262.5394   21350262.1254
 -23583303.39549 -18364573.61246  20755633.9924   20755632.3444
 -23382535.39849 -18206649.83345  21121394.7894   21121390.7074
 -13762430.31247 -10711486.25443  22912622.8204   22912622.8054
 -15604136.60247 -12145796.96444  22214261.7114   22214261.4924
  -5983214.45747  -4650573.40842  23611018.8984   23611020.0704
  -4430397.19147  -3438488.00542  24166925.1724   24166928.3244
 04  7 17  0 11  0.0000000  0  8G16G 1G13G23G20G27G 3G 8
 -12412989.07848  -9658716.48742  22986151.8054   22986149.8244
 -21127296.98848 -16449842.44745  21356759.3914   21356758.7894
 -23633838.48049 -18403951.59546  20746017.4614   20746015.7194
 -23345445.60548 -18177748.74045  21128452.8834   21128448.6564
 -13666928.91047 -10637069.70642  22930796.4384   22930796.1454
 -15658378.28948 -12188063.17844  22203939.6644   22203939.4534
  -6045198.43747  -4698872.55843  23599223.9384   23599224.8524
  -4519710.87947  -3508082.98142  24149929.3834   24149932.9344
 04  7 17  0 11 30.0000000  0  8G16G 1G13G23G20G27G 3G 8
 -12339032.97748  -9601088.42542  23000225.4694   23000223.6914
 -21092834.49248 -16422988.60345  21363317.2584   21363316.5784
 -23684084.49249 -18443104.30346  20736456.1644   20736453.7544
 -23308001.10248 -18148571.24045  21135578.3284   21135573.8134
 -13571220.46947 -10562491.84343  22949008.7814   22949008.9414
 -15712451.71548 -12230198.26844  22193649.8674   22193649.5554
  -6106830.78547  -4746897.71842  23587495.9774   23587496.6054
  -4608888.60547  -3577572.00342  24132959.0704   24132962.2234
 04  7 17  0 12  0.0000000  0  8G16G 1G13G23G20G27G 3G 8
 -12264746.21148  -9543202.68442  23014362.0234   23014359.9534
 -21058053.35548 -16395886.45545  21369936.0004   21369935.3204
 -23734044.29749 -18482034.01446  20726949.2504   20726947.0704
 -23270206.58248 -18119121.01745  21142770.2894   21142766.2234
 -13475312.32447 -10487758.38043  22967259.6644   22967259.7504
 -15766361.95348 -12272206.20744  22183390.9384   22183390.9694
  -6168113.66448  -4794650.54742  23575833.5784   23575834.9144
  -4697934.59847  -3646958.33042  24116014.0474   24116017.2504
 04  7 17  0 12 30.0000000  0  8G16G 1G13G23G20G27G 3G 8
 -12190128.61748  -9485059.17642  23028561.6954   23028559.7274
 -21022950.57848 -16368533.68545  21376616.0394   21376615.0124
 -23783713.68449 -18520737.41446  20717497.3914   20717495.0474
 -23232059.35248 -18089395.93045  21150029.7734   21150025.2074
 -13379204.61347 -10412869.40443  22985548.5394   22985548.6134
 -15820106.77348 -12314085.25744  22173163.9224   22173163.3094
  -6229041.14547  -4842126.46942  23564239.8364   23564240.6374
  -4786846.12547  -3716239.92642  24099094.8984   24099097.9304
 04  7 17  0 13  0.0000000  0  8G16G 1G13G23G20G27G 3G 8
 -12115185.32448  -9426661.87442  23042822.0944   23042820.6134
 -20987528.40649 -16340932.03645  21383356.5864   21383355.9184
 -23833093.32049 -18559215.04646  20708100.8984   20708098.6214
 -23193561.59849 -18059397.73045  21157355.3134   21157351.1294
 -13282902.81247 -10337829.16243  23003874.4454   23003874.6914
 -15873688.85248 -12355837.48045  22162967.6804   22162967.2734
  -6289613.12147  -4889325.35542  23552713.3524   23552713.8444
  -4875625.23047  -3785418.36742  24082200.6334   24082203.6684
 04  7 17  0 13 30.0000000  0  8G16G 1G13G23G20G27G 3G 8
 -12039918.91848  -9368012.79242  23057145.4774   23057143.7814
 -20951786.53948 -16313081.27545  21390158.1954   21390157.3914
 -23882181.75449 -18597465.75246  20698759.4534   20698757.1954
 -23154713.59849 -18029126.60045  21164748.0634   21164743.9844
 -13186409.86347 -10262640.01543  23022236.4304   23022236.2074
 -15927108.91048 -12397463.46845  22152802.2274   22152801.7424
  -6349827.08247  -4936245.26743  23541254.6174   23541255.5634
  -4964271.80947  -3854493.54142  24065331.3594   24065334.9964
 04  7 17  0 14  0.0000000  0  8G16G 1G13G23G20G27G 3G 8
 -11964331.61748  -9309113.64042  23071528.9454   23071527.6804
 -20915724.02049 -16284980.66345  21397020.4614   21397019.8794
 -23930976.56249 -18635487.66546  20689473.9844   20689472.0984
 -23115514.74249 -17998582.08445  21172207.4064   21172203.5664
 -13089727.91047 -10187303.57142  23040634.6644   23040634.8134
 -15980366.69148 -12438963.01144  22142667.5554   22142666.8134
  -6409679.79747  -4982883.70542  23529864.9224   23529866.0044
  -5052785.49647  -3923465.11142  24048488.2274   24048490.9104
 04  7 17  0 14 30.0000000  0  8G16G 1G13G23G20G27G 3G 8
 -11888424.20348  -9249965.12442  23085973.9144   23085972.7894
 -20879338.93049 -16256628.68445  21403944.3834   21403943.6564
 -23979474.39849 -18673278.17246  20680245.2194   20680243.0164
 -23075963.12548 -17967762.68345  21179733.9224   21179729.6374
 -12992858.13747 -10111820.83343  23059068.2194   23059068.8954
 -16033460.93048 -12480335.11345  22132564.0554   22132563.4534
  -6469167.01647  -5029237.34342  23518545.0634   23518545.9064
  -5141163.91447  -3992331.27142  24031670.0554   24031673.5434
 04  7 17  0 15  0.0000000  0  8G16G 1G13G23G20G27G 3G 8
 -11812200.32048  -9190569.94642  23100479.1174   23100477.5784
 -20842632.50049 -16228026.32445  21410929.3364   21410929.0434
 -24027674.97749 -18710837.05646  20671072.9614   20671071.0944
 -23036060.02049 -17936669.40546  21187327.7734   21187323.1294
 -12895804.53947 -10036194.79043  23077537.3834   23077537.5004
 -16086393.36348 -12521581.12445  22122490.7814   22122491.0044
  -6528287.30147  -5075305.07642  23507295.4534   23507295.6134
  -5229408.31647  -4061093.07742  24014877.6484   24014881.2704
 04  7 17  0 15 30.0000000  0  8G16G 1G13G23G20G27G 3G 8
 -11735659.29348  -9130927.62742  23115044.4384   23115043.2464
 -20805601.04749 -16199170.70345  21417976.5554   21417975.6214
 -24075573.25449 -18748160.37846  20661958.1334   20661955.9924
 -22995802.12549 -17905299.65745  21194988.0084   21194983.9574
 -12798566.76247  -9960425.24742  23096041.3594   23096041.5664
 -16139160.97748 -12562698.71845  22112449.4924   22112449.0744
  -6587034.66847  -5121082.18942  23496115.1254   23496115.7814
  -5317515.11347  -4129747.63242  23998111.2814   23998114.0944
 04  7 17  0 16  0.0000000  0  8G16G 1G13G23G20G27G 3G 8
 -11658807.16848  -9071042.93542  23129669.2664   23129667.4064
 -20768247.44949 -16170064.03945  21425084.5004   21425083.4654
 -24123170.70749 -18785249.29046  20652901.0234   20652898.3914
 -22955192.82448 -17873656.08345  21202716.0394   21202711.4804
 -12701150.73847  -9884516.82442  23114579.0784   23114579.1524
 -16191767.37948 -12603690.67845  22102439.0004   22102438.8674
  -6645409.58247  -5166569.08443  23485007.5634   23485007.5234
  -5405487.72747  -4198297.60842  23981370.6644   23981373.4844
 04  7 17  0 16 30.0000000  0  8G16G 1G13G23G20G27G 3G 8
 -11581647.67248  -9010918.70542  23144351.5084   23144350.5314
 -20730572.93449 -16140707.32445  21432253.8134   21432252.6134
 -24170467.07449 -18822103.60246  20643900.5634   20643898.1724
 -22914233.32448 -17841739.62645  21210509.9454   21210505.6764
 -12603560.85947  -9808472.94043  23133149.3364   23133149.9924
 -16244214.28548 -12644558.36245  22092458.8204   22092458.6484
  -6703410.72747  -5211764.74943  23473969.7034   23473971.1724
  -5493326.53547  -4266743.34042  23964655.6414   23964658.0124
 04  7 17  0 17  0.0000000  0  8G16G 1G13G23G20G27G 3G 8
 -11504179.00048  -8950553.60543  23159093.5234   23159092.6374
 -20692572.77749 -16111096.88045  21439484.9844   21439484.3874
 -24217455.95749 -18858718.31046  20634958.8674   20634956.6954
 -22872919.32449 -17809546.95645  21218371.9384   21218367.9534
 -12505795.43747  -9732292.24543  23151753.7894   23151754.3444
 -16296497.66449 -12685298.63745  22082509.5084   22082509.3914
  -6761031.04747  -5256663.66042  23463004.9774   23463005.9144
  -5581027.57447  -4335081.69842  23947966.3134   23947969.3324
 04  7 17  0 17 30.0000000  0  9G16G 1G13G23G20G19G27G 3G 8
 -11426410.04748  -8889954.50943  23173893.1564   23173891.4774
 -20654252.94948 -16081237.30645  21446776.9694   21446776.4104
 -24264142.13749 -18895097.13446  20626074.7974   20626072.7234
 -22831257.10548 -17777082.93546  21226300.2114   21226295.8634
 -12407863.35247  -9655981.69843  23170389.9614   23170390.4924
   -137057.91455    -91830.95751  24675393.8834   24675393.1644
 -16348624.30148 -12725916.75345  22072589.9924   22072589.6724
  -6818274.05947  -5301268.57442  23452111.5164   23452112.4964
  -5668596.88747  -4403317.41142  23931302.7664   23931305.5274
 04  7 17  0 18  0.0000000  0  9G16G 1G13G23G20G19G27G 3G 8
 -11348352.19948  -8829130.30843  23188746.5084   23188745.5634
 -20615622.14549 -16051135.42945  21454128.3594   21454127.4884
 -24310532.76249 -18931245.67846  20617246.9144   20617244.8244
 -22789255.42248 -17744354.39946  21234292.4534   21234288.7734
 -12309776.56647  -9579550.61643  23189055.3054   23189055.6804
   -225856.98445   -161024.90241  24658495.6414   24658495.1094
 -16400603.34048 -12766419.86245  22062698.9224   22062698.1954
  -6875146.48847  -5345584.69242  23441289.6484   23441289.0744
  -5756043.16848  -4471457.22642  23914662.0474   23914664.5824
 04  7 17  0 18 30.0000000  0  9G16G 1G13G23G20G19G27G 3G 8
 -11270014.49248  -8768088.02842  23203654.0394   23203652.9654
 -20576686.51648 -16020796.03745  21461537.7274   21461536.9224
 -24356632.60249 -18967167.62046  20608474.6174   20608472.0984
 -22746920.83248 -17711366.44746  21242348.5004   21242344.7584
 -12211544.23047  -9503006.10943  23207748.2894   23207748.8364
   -314664.59045   -230225.50441  24641596.1094   24641595.2624
 -16452441.58648 -12806813.26245  22052833.9924   22052834.0984
  -6931652.03147  -5389614.93442  23430536.1564   23430536.4654
  -5843372.50847  -4539505.98742  23898044.0554   23898046.4304
 04  7 17  0 19  0.0000000  0  9G16G 1G13G23G20G19G27G 3G 8
 -11191397.57047  -8706828.20243  23218614.1644   23218613.4964
 -20537444.10548 -15990217.56445  21469004.8984   21469004.5084
 -24402438.07449 -19002860.19946  20599758.0314   20599755.6644
 -22704251.71148 -17678117.82345  21250468.5164   21250464.3794
 -12113167.22347  -9426348.88543  23226469.2974   23226470.0434
   -403475.83645   -299428.90641  24624694.8364   24624694.1214
 -16504137.77348 -12847095.96745  22042996.7034   22042996.4104
  -6987786.11347  -5433355.75042  23419854.8054   23419855.0474
  -5930582.80547  -4607461.95642  23881447.9064   23881450.5124
 04  7 17  0 19 30.0000000  0  9G16G 1G13G23G20G19G27G 3G 8
 -11112502.10247  -8645351.25842  23233627.3524   23233626.5084
 -20497892.56248 -15959398.23045  21476531.4144   21476530.4574
 -24447945.46149 -19038320.49246  20591098.4454   20591096.0274
 -22661245.81248 -17644606.78445  21258652.3204   21258648.5944
 -12014646.34847  -9349579.52843  23245216.6484   23245217.6724
   -492285.91046   -368631.38441  24607795.9534   24607794.3014
 -16555690.08648 -12887266.56345  22033186.6484   22033186.2814
  -7043544.00047  -5476803.40842  23409244.3134   23409245.2584
  -6017672.11347  -4675323.62442  23864874.9064   23864877.9844
 04  7 17  0 20  0.0000000  0  9G16G 1G13G23G20G19G27G 3G 8
 -11033324.71947  -8583654.65342  23248694.5944   23248693.6684
 -20458026.03949 -15928333.44745  21484118.0474   21484116.9734
 -24493147.23849 -19073542.65646  20582496.6024   20582494.1294
 -22617897.46148 -17610828.89645  21266901.2194   21266897.5744
 -11915978.77047  -9272695.87542  23263992.9534   23263994.2704
   -581086.37545   -437826.50241  24590897.9614   24590896.0784
 -16607093.00848 -12927320.75445  22023405.2114   22023404.6174
  -7098917.50847  -5519951.59342  23398706.8594   23398707.4454
  -6104634.10947  -4743086.09342  23848327.3284   23848329.8484
 04  7 17  0 20 30.0000000  0  9G16G 1G13G23G20G19G27G 3G 8
 -10953867.88347  -8521740.33842  23263814.2344   23263813.8094
 -20417843.89148 -15897022.73145  21491764.6174   21491763.9064
 -24538041.44549 -19108525.15846  20573953.7504   20573951.2584
 -22574206.64848 -17576784.15245  21275215.3134   21275211.2464
 -11817166.74647  -9195699.65543  23282796.6094   23282797.5274
   -669873.74646   -507011.40241  24574001.6024   24574000.2934
 -16658346.81248 -12967258.75245  22013651.5474   22013650.9924
  -7153903.75447  -5562797.96842  23388243.8594   23388244.3284
  -6191468.80947  -4810749.37242  23831802.8134   23831805.1914
 04  7 17  0 21  0.0000000  0  9G16G 1G13G23G20G19G27G 3G 8
 -10874128.46147  -8459605.79942  23278988.8674   23278987.7384
 -20377340.44148 -15865461.63745  21499471.9384   21499471.3054
 -24582620.82849 -19143262.32746  20565470.5314   20565467.9344
 -22530167.75048 -17542468.17645  21283595.7814   21283591.6484
 -11718207.77047  -9118588.96143  23301627.3834   23301628.6884
   -758639.80946   -576179.62441  24557109.3134   24557109.2934
 -16709446.28548 -13007076.48145  22003928.0084   22003927.4304
  -7208494.59047  -5605336.22742  23377855.4694   23377856.5824
  -6278170.30947  -4878308.86742  23815303.8834   23815306.7464
 04  7 17  0 21 30.0000000  0  9G16G 1G13G23G20G19G27G 3G 8
 -10794114.46548  -8397257.28942  23294215.1334   23294214.2774
 -20336520.88748 -15833654.23644  21507239.5314   21507239.1994
 -24626889.02049 -19177757.02946  20557046.2814   20557044.2934
 -22485786.29748 -17507885.27245  21292041.0084   21292037.3594
 -11619109.81647  -9041369.97243  23320486.1254   23320486.6804
   -847386.70345   -645332.93741  24540221.2034   24540220.3054
 -16760397.19948 -13046778.46745  21994231.9304   21994231.3014
  -7262692.89147  -5647568.63742  23367541.7114   23367542.8914
  -6364743.59047  -4945768.45142  23798829.0634   23798832.9574
 04  7 17  0 22  0.0000000  0  9G16G 1G13G23G20G19G27G 3G 8
 -10713823.59848  -8334693.05042  23309494.3524   23309492.8834
 -20295380.00448 -15801596.45145  21515068.4064   21515067.5944
 -24670839.24649 -19212003.95346  20548682.7274   20548680.7154
 -22441057.27048 -17473031.52145  21300552.6884   21300548.9144
 -11519870.85947  -8964041.08043  23339369.7664   23339371.5704
   -936106.71146   -714465.34242  24523338.7344   24523337.2384
 -16811194.83648 -13086361.00745  21984565.6414   21984565.0824
  -7316491.01247  -5689489.21542  23357304.6334   23357305.3754
  -6451183.58648  -5013124.18242  23782380.1254   23782383.4384
 04  7 17  0 22 30.0000000  0  9G16G 1G13G23G20G19G27G 3G 8
 -10633254.59447  -8271912.09143  23324825.5784   23324824.7344
 -20253914.00849 -15769285.33245  21522959.5864   21522958.8164
 -24714466.10249 -19245998.89846  20540380.7424   20540378.7814
 -22395977.16848 -17437904.21845  21309131.1254   21309127.3634
 -11420490.20347  -8886601.78342  23358281.7274   23358282.7854
  -1024793.04346   -783571.53542  24506462.5474   24506461.4024
 -16861835.92649 -13125821.56945  21974929.0474   21974928.3554
  -7369882.93047  -5731093.26342  23347143.9304   23347144.4844
  -6537486.56248  -5080373.15042  23765957.3834   23765960.1804
 04  7 17  0 23  0.0000000  0  9G16G 1G13G23G20G19G27G 3G 8
 -10552411.26648  -8208917.35042  23340210.2034   23340208.8794
 -20212123.94949 -15736721.69745  21530912.0784   21530911.3834
 -24757769.02049 -19279741.44046  20532140.6564   20532138.2974
 -22350547.22348 -17402504.30245  21317776.4614   21317772.3484
 -11320971.48047  -8809054.92943  23377219.9924   23377220.5554
  -1113444.02747   -852650.07542  24489593.1174   24489591.4454
 -16912321.94149 -13165161.28245  21965321.6174   21965321.3094
  -7422867.25047  -5772379.71142  23337061.1484   23337061.8554
  -6623653.37547  -5147516.00942  23749559.9064   23749562.8834
 04  7 17  0 23 30.0000000  0  9G16G 1G13G23G20G19G27G 3G 8
 -10471295.28148  -8145710.23242  23355646.0554   23355644.9804
 -20170008.96149 -15703904.87345  21538926.0864   21538925.4344
 -24800745.68749 -19313229.75346  20523962.3594   20523960.0164
 -22304766.84048 -17366831.32445  21326487.8364   21326483.8874
 -11221316.90247  -8731402.13242  23396183.0314   23396184.3554
  -1202056.00846   -921698.29442  24472730.4304   24472729.4414
 -16962652.60248 -13204379.95345  21955744.2114   21955743.4844
  -7475440.91847  -5813346.16642  23327056.7814   23327057.2854
  -6709682.80547  -5214551.80143  23733189.2584   23733191.9884
 04  7 17  0 24  0.0000000  0  9G16G 1G13G23G20G19G27G 3G 8
 -10389911.52347  -8082294.38142  23371132.9144   23371131.2424
 -20127571.30949 -15670836.62045  21547001.8834   21547001.3204
 -24843396.68049 -19346464.28946  20515846.1094   20515844.1054
 -22258638.60548 -17330887.29145  21335266.0084   21335262.0554
 -11121531.68048  -8653647.61442  23415171.9924   23415173.0744
  -1290628.21947   -990715.54242  24455875.8524   24455874.6764
 -17012830.65649 -13243479.69945  21946195.7194   21946194.9734
  -7527603.82447  -5853992.56842  23317130.9694   23317131.4104
  -6795577.73848  -5281482.81642  23716844.1334   23716846.6214
 04  7 17  0 24 30.0000000  0  9G16G 1G13G23G20G19G27G 3G 8
 -10308266.28947  -8018674.82142  23386669.5394   23386667.9104
 -20084814.39549 -15637519.60145  21555138.1804   21555137.6094
 -24885723.86349 -19379446.51746  20507791.6954   20507789.6524
 -22212166.04348 -17294674.94345  21344109.1334   21344105.5744
 -11021622.05947  -8575796.12142  23434184.6174   23434185.5164
  -1379161.33246  -1059702.33642  24439027.5394   24439027.5124
 -17062859.89548 -13282463.49145  21936675.0634   21936674.3444
  -7579357.04346  -5894319.70342  23307282.1644   23307283.3634
  -6881341.01648  -5348311.20542  23700523.5164   23700526.2774
 04  7 17  0 25  0.0000000  0  9G16G 1G13G23G20G19G27G 3G 8
 -10226356.56647  -7954849.14742  23402255.7034   23402254.8594
 -20041732.34849 -15603949.22345  21563336.4224   21563335.4884
 -24927719.77749 -19412170.60046  20499800.0474   20499798.0944
 -22165343.87948 -17258190.19145  21353018.9454   21353015.7504
 -10921585.21547  -8497845.53442  23453221.1724   23453222.1374
  -1467646.66446  -1128651.86742  24422189.4144   24422189.3954
 -17112735.25448 -13321327.36845  21927184.0314   21927183.6254
  -7630692.52347  -5934321.35042  23297513.1804   23297514.3754
  -6966967.09848  -5415032.74642  23684229.4694   23684231.8874
 04  7 17  0 25 30.0000000  0  9G16G 1G13G23G20G19G27G 3G 8
 -10144187.26647  -7890821.16742  23417892.3834   23417890.9574
 -19998327.66049 -15570127.44045  21571596.4844   21571595.6254
 -24969385.49649 -19444637.39746  20491871.2814   20491869.3134
 -22118174.63348 -17221434.98245  21361995.2814   21361992.0514
 -10821426.51247  -8419799.98742  23472280.9924   23472282.4414
  -1556083.94547  -1197563.90742  24405361.1884   24405360.7274
 -17162459.54748 -13360073.55045  21917721.7974   21917721.6764
  -7681610.18745  -5973997.42342  23287823.6024   23287825.0164
  -7052458.59848  -5481649.35342  23667961.2734   23667963.1254
 04  7 17  0 26  0.0000000  0  9G16G 1G13G23G20G19G27G 3G 8
 -10061758.40647  -7826591.02942  23433578.5634   23433576.7234
 -19954597.84449 -15536052.29245  21579918.1724   21579916.7664
 -25010716.87149 -19476843.66146  20484006.3594   20484004.0124
 -22070656.10948 -17184407.61545  21371037.8754   21371034.5274
 -10721146.27047  -8341659.71442  23491363.5314   23491365.6254
  -1644467.55946  -1266434.19942  24388541.8834   24388540.9414
 -17212030.62948 -13398700.33745  21908289.0634   21908288.3674
  -7732105.32046  -6013344.23142  23278214.4924   23278215.9494
  -7137812.34448  -5548158.66142  23651718.7034   23651721.4104
 04  7 17  0 26 30.0000000  0  9G16G 1G13G23G20G19G27G 3G 8
  -9979074.04747  -7762161.73942  23449312.5554   23449311.1024
 -19910544.04749 -15501724.72445  21588301.0784   21588300.1724
 -25051713.05949 -19508788.74946  20476204.7734   20476202.8444
 -22022789.68748 -17147109.15145  21380146.5864   21380142.9414
 -10620748.48047  -8263427.87542  23510468.9454   23510470.3714
  -1732795.85546  -1335261.33342  24371733.1174   24371733.9654
 -17261450.10549 -13437208.99145  21898884.5474   21898883.8954
  -7782176.71147  -6052360.89242  23268686.4534   23268687.4224
  -7223029.80948  -5614561.74643  23635501.8674   23635505.5594
 04  7 17  0 27  0.0000000  0  9G16G 1G13G23G20G19G27G 3G 8
  -9896135.21547  -7697534.16642  23465095.1334   23465094.0864
 -19866164.65649 -15467143.43545  21596745.9774   21596745.5864
 -25092371.19949 -19540470.40546  20468467.9304   20468465.8054
 -21974574.00848 -17109538.53745  21389321.5784   21389318.2504
 -10520234.60947  -8185105.58242  23529596.1644   23529597.6414
  -1821064.26246  -1404041.80842  24354936.0474   24354937.2384
 -17310716.97749 -13475598.72945  21889509.5474   21889508.8634
  -7831820.55947  -6091044.36442  23259239.3984   23259241.2034
  -7308109.46148  -5680857.44843  23619311.4384   23619314.7274
 04  7 17  0 27 30.0000000  0  9G16G 1G13G23G20G19G27G 3G 8
  -9812940.99247  -7632707.59942  23480926.3914   23480925.4654
 -19821456.14149 -15432305.68945  21605254.0864   21605253.5354
 -25132685.91049 -19571884.47446  20460796.3284   20460794.5554
 -21926006.36348 -17071693.66145  21398564.0634   21398560.1884
 -10419603.98847  -8106692.28942  23548745.8054   23548746.4454
  -1909266.52046  -1472770.74842  24338152.0704   24338152.6764
 -17359828.07849 -13513867.09445  21880163.9534   21880163.0904
  -7881031.02747  -6129390.09842  23249875.0864   23249876.1334
  -7393047.81648  -5747043.04243  23603148.9614   23603151.0744
 04  7 17  0 28  0.0000000  0  9G16G 1G13G23G20G19G27G 3G 8
  -9729493.73847  -7567683.83642  23496806.7584   23496805.4964
 -19776418.23449 -15397211.27045  21613824.3594   21613823.8714
 -25172655.66849 -19603029.74246  20453190.3594   20453187.9654
 -21877086.21548 -17033574.11645  21407873.1644   21407869.6054
 -10318859.18447  -8028190.05742  23567916.9304   23567918.3364
  -1997399.32447  -1541445.56042  24321381.6884   24321382.0904
 -17408783.65249 -13552014.25445  21870848.1724   21870847.1994
  -7929805.67247  -6167396.31042  23240593.5394   23240594.4694
  -7477843.76648  -5813117.68943  23587012.5864   23587014.7584
 04  7 17  0 28 30.0000000  0  9G16G 1G13G23G20G19G27G 3G 8
  -9645800.00047  -7502467.97842  23512732.1884   23512731.3984
 -19731055.13349 -15361863.45245  21622456.8984   21622456.3914
 -25212282.84849 -19633908.06546  20445649.2584   20445647.2274
 -21827818.15248 -16995183.47345  21417248.7344   21417244.6174
 -10218006.94147  -7949604.05342  23587108.9144   23587109.1804
  -2085463.83247  -1610067.20842  24304623.4774   24304624.5704
 -17457588.06249 -13590043.65145  21861560.7194   21861560.4494
  -7978146.11747  -6205064.15342  23231395.1334   23231395.4264
  -7562501.91848  -5879084.95642  23570902.5314   23570904.8754
 04  7 17  0 29  0.0000000  0  9G16G 1G13G23G20G19G27G 3G 8
  -9561859.87947  -7437060.15642  23528705.9144   23528704.7854
 -19685364.30549 -15326260.26145  21631151.6094   21631150.8524
 -25251563.04749 -19664516.00646  20438175.0394   20438172.6254
 -21778199.72348 -16956519.81245  21426690.7114   21426686.9264
 -10117047.56247  -7870934.60743  23606320.6024   23606321.6094
  -2173454.27747  -1678631.09442  24287879.2274   24287879.7774
 -17506239.07448 -13627953.50645  21852302.7034   21852302.1764
  -8026047.61346  -6242389.96042  23222279.0474   23222280.0124
  -7647019.57848  -5944942.71943  23554819.2424   23554821.6254
 04  7 17  0 29 30.0000000  0  9G16G 1G13G23G20G19G27G 3G 8
  -9477678.09847  -7371464.07142  23544725.3754   23544725.0394
 -19639347.73849 -15290403.24945  21639908.3284   21639907.8634
 -25290496.46549 -19694853.72846  20430766.2504   20430764.0234
 -21728233.25448 -16917584.93845  21436199.1094   21436195.4964
 -10015985.97747  -7792185.51942  23625552.1954   23625553.5784
  -2261370.02347  -1747136.80242  24271149.6644   24271150.1564
 -17554739.22348 -13665745.80145  21843073.7194   21843073.1334
  -8073509.67246  -6279373.35842  23213248.0944   23213248.3444
  -7731398.80948  -6010692.65243  23538762.1484   23538764.5554
 04  7 17  0 30  0.0000000  0  9G16G 1G13G23G20G19G27G 3G 8
  -9393254.90647  -7305679.86042  23560790.9844   23560790.5004
 -19593003.10549 -15254290.59445  21648726.8444   21648726.4884
 -25329079.51249 -19724918.44346  20423424.0394   20423421.7154
 -21677916.71548 -16878377.29345  21445773.9614   21445770.3444
  -9914822.78947  -7713357.24542  23644803.2814   23644804.7584
  -2349205.89147  -1815580.17942  24254434.6414   24254435.4144
 -17603086.63348 -13703419.07445  21833873.0704   21833872.7344
  -8120527.93047  -6316010.93942  23204300.8134   23204300.9304
  -7815637.14847  -6076332.77443  23522732.0474   23522734.0274
 04  7 17  0 30 30.0000000  0  9G16G 1G13G23G20G19G27G 3G 8
  -9308593.91447  -7239710.31842  23576901.3444   23576900.7304
 -19546331.62149 -15217923.25245  21657608.7034   21657608.1764
 -25367311.48449 -19754709.60946  20416148.9694   20416146.2704
 -21627251.62148 -16838898.03845  21455415.5704   21455411.6914
  -9813561.77347  -7634452.73842  23664072.9144   23664074.0904
  -2436959.80147  -1883959.78742  24237736.3834   24237735.7344
 -17651282.78548 -13740974.49045  21824702.0234   21824701.3054
  -8167101.23447  -6352301.78642  23195438.0554   23195438.5664
  -7899735.88748  -6141864.12843  23506728.1094   23506730.8014
 04  7 17  0 31  0.0000000  0  9G16G 1G13G23G20G19G27G 3G 8
  -9223694.73847  -7173555.21642  23593056.9144   23593057.1644
 -19499330.25849 -15181298.87244  21666552.6334   21666552.6564
 -25405187.70349 -19784223.53146  20408940.9844   20408938.6524
 -21576235.32848 -16799145.13745  21465124.0234   21465119.8404
  -9712202.66847  -7555471.81242  23683360.9774   23683362.7774
  -2524625.77747  -1952270.86542  24221052.9844   24221053.6024
 -17699325.07849 -13778410.01745  21815559.8594   21815559.1374
  -8213224.33648  -6388241.83142  23186661.4454   23186661.6954
  -7983691.27748  -6207283.76743  23490752.0554   23490754.5744
 04  7 17  0 31 30.0000000  0  9G16G 1G13G23G20G19G27G 3G 8
  -9138563.36347  -7107219.16542  23609257.3524   23609257.1484
 -19452002.50849 -15144420.15045  21675558.8134   21675558.7734
 -25442710.11349 -19813461.77846  20401800.7344   20401798.3834
 -21524871.48848 -16759121.41245  21474898.0554   21474894.2934
  -9610751.84047  -7476419.44142  23702666.1804   23702668.7234
  -2612204.44947  -2020513.85442  24204387.7814   24204388.2704
 -17747217.27748 -13815728.57845  21806445.8134   21806445.4184
  -8258898.70747  -6423832.22742  23177969.7034   23177970.3444
  -8067506.72348  -6272594.35543  23474802.4064   23474805.0984
 04  7 17  0 32  0.0000000  0  9G16G 1G13G23G20G19G27G 3G 8
  -9053200.50047  -7040702.75942  23625501.2504   23625500.8914
 -19404346.38349 -15107285.56944  21684627.1804   21684626.7894
 -25479875.03549 -19842421.47146  20394728.5704   20394725.6954
 -21473158.59048 -16718825.69645  21484738.5394   21484734.7854
  -9509210.30547  -7397296.34942  23721988.9774   23721991.9264
  -2699690.74647  -2088684.91843  24187739.3754   24187739.9694
 -17794957.95749 -13852929.07245  21797361.1884   21797360.7704
  -8304120.30148  -6459069.82143  23169364.6094   23169364.8874
  -8151180.41448  -6337794.52743  23458879.9304   23458881.9454
 04  7 17  0 32 30.0000000  0  9G16G 1G13G23G20G19G27G 3G 8
  -8967609.48047  -6974008.55942  23641788.8444   23641787.8874
 -19356362.66448 -15069895.70944  21693758.1414   21693757.8204
 -25516681.66449 -19871101.96246  20387724.4144   20387721.7774
 -21421097.61748 -16678258.75345  21494645.5084   21494641.7344
  -9407581.36347  -7318105.14742  23741328.8054   23741331.0274
  -2787082.24647  -2156782.09342  24171108.7814   24171109.3524
 -17842548.00848 -13890012.21145  21788304.8674   21788304.7544
  -8348887.29748  -6493953.14942  23160845.4924   23160845.6954
  -8234713.35948  -6402884.98243  23442984.4304   23442985.4304
 04  7 17  0 33  0.0000000  0  9G16G 1G13G23G20G19G27G 3G 8
  -8881790.98046  -6907137.10042  23658119.5314   23658119.0164
 -19308049.88749 -15032249.44344  21702951.7584   21702951.7504
 -25553126.71149 -19899500.70746  20380789.2584   20380786.6724
 -21368687.41448 -16637419.69145  21504618.9064   21504615.1454
  -9305866.23447  -7238846.81142  23760684.6254   23760686.9454
  -2874374.59847  -2224802.02742  24154497.6484   24154497.8204
 -17889986.31649 -13926977.09645  21779277.7424   21779277.2504
  -8393195.91448  -6528479.32543  23152413.5704   23152413.8914
  -8318103.47747  -6467864.16743  23427115.0704   23427117.2504
 04  7 17  0 33 30.0000000  0  9G16G 1G13G23G20G19G27G 3G 8
  -8795749.28547  -6840091.72242  23674492.7034   23674492.6604
 -19259409.78149 -14994348.11944  21712207.9924   21712207.8714
 -25589209.97349 -19927617.53746  20373922.7974   20373920.4654
 -21315929.73848 -16596309.85045  21514658.3524   21514654.6294
  -9204069.21547  -7159524.68942  23780056.1174   23780059.1844
  -2961566.23847  -2292743.43242  24137905.8594   24137905.4574
 -17937274.87149 -13963825.29045  21770279.0634   21770278.4414
  -8437045.73048  -6562647.98043  23144069.5474   23144070.2274
  -8401352.30547  -6532733.26243  23411273.8674   23411275.4534
 04  7 17  0 34  0.0000000  0  9G16G 1G13G23G20G19G27G 3G 8
  -8709486.10547  -6772873.75542  23690908.3674   23690907.7544
 -19210441.48049 -14956191.06244  21721526.5164   21721526.3674
 -25624929.28149 -19955450.78146  20367125.5634   20367123.3444
 -21262824.27348 -16554929.00845  21524763.9454   21524760.2154
  -9102192.21947  -7080140.19542  23799442.8754   23799445.0984
  -3048653.18047  -2360603.30242  24121333.6644   24121333.4774
 -17984412.97749 -14000556.24145  21761309.0164   21761308.0594
  -8480433.76248  -6596456.81943  23135813.1724   23135812.9454
  -8484458.72347  -6597491.36642  23395458.0784   23395460.1524
 04  7 17  0 34 30.0000000  0  9G16G 1G13G23G20G19G27G 3G 8
  -8623007.23047  -6705487.71542  23707365.0704   23707363.7814
 -19161148.41848 -14917780.95144  21730906.4534   21730907.0704
 -25660285.92649 -19983001.41746  20360397.5944   20360395.0744
 -21209374.58648 -16513279.96145  21534934.8524   21534931.1844
  -9000241.54747  -7000698.32442  23818843.6564   23818845.1644
  -3135635.89547  -2428381.94442  24104781.4384   24104780.6174
 -18031404.50049 -14037172.98345  21752366.8914   21752366.0664
  -8523361.30548  -6629906.83243  23127644.1484   23127644.3444
  -8567426.04748  -6662141.11042  23379671.0394   23379672.5314
 04  7 17  0 35  0.0000000  0  9G16G 1G13G23G20G19G27G 3G 8
  -8536306.23447  -6637928.60842  23723863.7114   23723863.0274
 -19111521.69548 -14879110.84244  21740350.3594   21740350.3714
 -25695269.34049 -20010261.22646  20353740.2114   20353738.0234
 -21155572.08248 -16471356.00445  21545173.5554   21545169.7814
  -8898210.73446  -6921194.02042  23838259.4614   23838261.7034
  -3222502.44147  -2496070.06442  24088250.9614   24088250.8554
 -18078240.60949 -14073668.61145  21743454.3444   21743453.4804
  -8565817.02048  -6662989.16843  23119564.7974   23119565.3754
  -8650245.18747  -6726675.36542  23363910.2344   23363912.1914
 04  7 17  0 35 30.0000000  0  9G16G 1G13G23G20G19G27G 3G 8
  -8449391.69547  -6570203.09942  23740403.0784   23740401.8094
 -19061567.59448 -14840185.63844  21749856.1724   21749856.1054
 -25729883.98049 -20037233.68346  20347153.3284   20347150.9184
 -21101423.29348 -16429162.19245  21555477.4454   21555474.1804
  -8796108.55947  -6841634.06342  23857689.2974   23857690.7154
  -3309255.68747  -2563669.88842  24071741.2734   24071742.0044
 -18124927.90249 -14110048.31145  21734569.7424   21734569.0354
  -8607804.95347  -6695707.01743  23111574.8594   23111575.3634
  -8732922.17647  -6791098.90242  23348176.6564   23348179.2624
 04  7 17  0 36  0.0000000  0  9G16G 1G13G23G20G19G27G 3G 8
  -8362264.40247  -6502311.75942  23756983.3914   23756981.6804
 -19011284.50048 -14801004.05544  21759425.2424   21759424.3404
 -25764126.51649 -20063916.18246  20340637.2344   20340635.2074
 -21046926.91048 -16386697.53845  21565847.6564   21565844.6994
  -8693936.48447  -6762019.63042  23877132.3364   23877134.3094
  -3395891.05947  -2631177.91642  24055255.7814   24055255.4144
 -18171465.06649 -14146311.00545  21725714.1644   21725713.5784
  -8649321.57447  -6728057.61243  23103674.2584   23103675.0164
  -8815455.59047  -6855410.53343  23332471.5004   23332473.6954
 04  7 17  0 36 30.0000000  0  9G16G 1G13G23G20G19G27G 3G 8
  -8274925.82047  -6434255.79742  23773603.3204   23773601.1914
 -18960671.28548 -14761565.24744  21769056.7894   21769055.7854
 -25797994.55549 -20090306.85646  20334192.3834   20334189.9964
 -20992081.95748 -16343961.26845  21576284.8444   21576281.5514
  -8591695.93446  -6682351.84742  23896587.5554   23896589.4264
  -3482404.27047  -2698590.67542  24038792.8054   24038792.8364
 -18217851.21549 -14182456.02745  21716887.3204   21716886.6094
  -8690363.60247  -6760038.37243  23095864.1954   23095864.7544
  -8897844.04348  -6919609.18643  23316793.1954   23316795.1484
 04  7 17  0 37  0.0000000  0  9G16G 1G13G23G20G19G27G 3G 8
  -8187377.55146  -6366036.46142  23790263.0554   23790261.6954
 -18909727.20749 -14721868.63344  21778750.6254   21778750.2584
 -25831485.19949 -20116403.46846  20327819.4614   20327817.0554
 -20936888.15248 -16300953.16545  21586787.7894   21586784.3284
  -8489388.64546  -6602632.12742  23916056.0314   23916057.6764
  -3568791.35547  -2765905.22642  24022354.2504   24022353.7854
 -18264085.61749 -14218482.81945  21708089.2424   21708088.1524
  -8730928.03547  -6791646.99143  23088144.7424   23088145.1954
  -8980086.24647  -6983693.90143  23301143.0234   23301144.9964
 04  7 17  0 37 30.0000000  0  9G16G 1G13G23G20G19G27G 3G 8
  -8099620.40246  -6297654.38242  23806963.1484   23806961.5354
 -18858450.82048 -14681913.07544  21788508.0634   21788508.2974
 -25864595.02349 -20142203.34246  20321518.7504   20321516.5204
 -20881344.34848 -16257672.34945  21597356.9454   21597354.2034
  -8387015.77046  -6522861.19542  23935537.4144   23935538.9884
  -3655047.80147  -2833117.91242  24005939.8914   24005938.9064
 -18310167.16449 -14254390.49345  21699319.8204   21699319.2584
  -8771011.07847  -6822880.53143  23080517.7274   23080517.7234
  -9062180.51247  -7047663.32242  23285520.7034   23285522.7934
 04  7 17  0 38  0.0000000  0  9G16G 1G13G23G20G19G27G 3G 8
  -8011659.52347  -6229113.53342  23823701.6094   23823699.8634
 -18806844.76648 -14641700.63644  21798329.2504   21798328.3914
 -25897325.07449 -20167707.27446  20315290.3364   20315288.1844
 -20825453.39548 -16214121.01345  21607992.8134   21607989.9304
  -8284582.55146  -6443043.42442  23955030.1564   23955031.8634
  -3741172.98847  -2900228.35142  23989550.1484   23989550.2584
 -18356098.66449 -14290181.25745  21690579.6024   21690578.7854
  -8810613.35947  -6853739.42742  23072981.7664   23072981.5314
  -9144129.53548  -7111519.60243  23269926.5554   23269928.6294
 04  7 17  0 38 30.0000000  0  9G16G 1G13G23G20G19G27G 3G 8
  -7923499.19546  -6160417.25642  23840477.2034   23840475.7274
 -18754911.17649 -14601232.95844  21808211.7504   21808211.3204
 -25929675.96549 -20192915.75946  20309134.3674   20309132.0864
 -20769217.48448 -16170300.89445  21618694.7584   21618691.2734
  -8182093.63346  -6363182.15842  23974532.9774   23974535.6024
  -3827165.70747  -2967235.56742  23973186.6024   23973186.3284
 -18401882.44149 -14325856.91945  21681867.0634   21681866.1134
  -8849734.89548  -6884223.71642  23065537.1414   23065537.0004
  -9225935.06248  -7175264.01643  23254359.4144   23254361.5004
 04  7 17  0 39  0.0000000  0  9G16G 1G13G23G20G19G27G 3G 8
  -7835141.02346  -6091566.81542  23857291.6254   23857290.5824
 -18702649.63749 -14560509.74344  21818156.8054   21818156.0904
 -25961644.93049 -20217826.63746  20303050.8364   20303048.4844
 -20712636.43448 -16126211.83145  21629461.6644   21629458.7774
  -8079551.00047  -6283279.04342  23994046.4304   23994048.6844
  -3913022.22747  -3034136.63142  23956848.7894   23956848.1214
 -18447517.89849 -14361417.00045  21673183.2194   21673182.2464
  -8888372.86347  -6914331.21542  23058184.2424   23058184.1994
  -9307595.99247  -7238895.78443  23238819.3134   23238821.2774
 04  7 17  0 39 30.0000000  0  9G16G 1G13G23G20G19G27G 3G 8
  -7746588.21946  -6022564.71342  23874143.0004   23874141.7734
 -18650060.71948 -14519531.42244  21828164.2734   21828162.8714
 -25993231.12948 -20242439.27046  20297040.1334   20297037.6024
 -20655711.30148 -16081854.64445  21640294.0474   21640291.1374
  -7976957.82047  -6203336.51142  24013569.3594   24013572.3484
  -3998740.21547  -3100929.76743  23940536.7034   23940537.2664
 -18493005.88749 -14396862.17445  21664526.6804   21664526.0664
  -8926525.78147  -6944060.71842  23050923.9534   23050923.8054
  -9389113.17248  -7302415.52743  23223307.5864   23223309.4924
 04  7 17  0 40  0.0000000  0  9G16G 1G13G23G20G19G27G 3G 8
  -7657844.17246  -5953413.60542  23891029.9534   23891028.9144
 -18597145.51648 -14478298.84444  21838233.5394   21838233.2304
 -26024433.84849 -20266753.07646  20291102.4454   20291100.2424
 -20598443.32448 -16037230.31045  21651191.8594   21651188.9264
  -7874318.03547  -6123357.64642  24033100.6954   24033104.4574
  -4084317.28947  -3167613.13443  23924252.0004   23924252.3714
 -18538347.81249 -14432193.52045  21655898.5554   21655897.9964
  -8964192.84447  -6973411.61743  23043755.8984   23043756.5314
  -9470486.99648  -7365823.57343  23207822.2814   23207824.2194
 04  7 17  0 40 30.0000000  0  9G16G 1G13G23G20G19G27G 3G 8
  -7568904.62546  -5884110.15342  23907954.4454   23907953.3094
 -18543897.37148 -14436806.84244  21848366.7114   21848365.8914
 -26055244.61349 -20290761.45646  20285239.3594   20285237.1414
 -20540826.29748 -15992333.98945  21662156.3444   21662153.2194
  -7771627.31247  -6043339.11442  24052643.3204   24052645.9454
  -4169743.75847  -3234179.09843  23907995.3914   23907996.7544
 -18583537.22749 -14467406.01945  21647299.2034   21647298.3324
  -9001365.29348  -7002377.13343  23036682.4064   23036682.3094
  -9551711.05948  -7429114.88743  23192366.2734   23192367.5434
 04  7 17  0 41  0.0000000  0  9G16G 1G13G23G20G19G27G 3G 8
  -7479775.51646  -5814659.03742  23924915.6484   23924913.8134
 -18490320.03549 -14395058.33444  21858562.0704   21858561.3014
 -26085665.52749 -20314466.06746  20279450.3594   20279448.3834
 -20482864.24248 -15947168.81745  21673186.0864   21673183.1254
  -7668891.84047  -5963285.71342  24072193.0084   24072195.8404
  -4255020.10547  -3300628.06943  23891768.3594   23891768.5784
 -18628577.80549 -14502502.55245  21638728.5084   21638727.5474
  -9038044.78947  -7030958.54743  23029702.3984   23029702.3164
  -9632788.16048  -7492291.71443  23176937.8134   23176939.1994
 04  7 17  0 41 30.0000000  0  9G16G 1G13G23G20G19G27G 3G 8
  -7390461.32846  -5745063.75042  23941912.0634   23941910.1644
 -18436415.40248 -14353054.77944  21868819.9064   21868819.2304
 -26115696.76649 -20337867.04246  20273735.5634   20273733.6914
 -20424559.37148 -15901736.49645  21684281.1484   21684277.8714
  -7566116.28947  -5883201.07542  24091750.6564   24091753.3754
  -4340144.87147  -3366958.94343  23875569.2734   23875569.3484
 -18673471.50449 -14537484.63845  21630185.4144   21630184.2584
  -9074231.16848  -7059155.69743  23022816.7584   23022816.1644
  -9713720.47748  -7555355.72343  23161536.8984   23161537.9224
 04  7 17  0 42  0.0000000  0  9G16G 1G13G23G20G19G27G 3G 8
  -7300959.03546  -5675321.74942  23958944.2034   23958941.9184
 -18382178.89549 -14310792.62344  21879140.2974   21879140.1454
 -26145331.68749 -20360959.19046  20268096.3364   20268094.0314
 -20365907.26248 -15856033.61445  21695442.1804   21695439.2734
  -7463298.39547  -5803083.45542  24111316.6884   24111319.1954
  -4425110.14547  -3433165.55843  23859400.4384   23859401.0084
 -18718213.90649 -14572348.82345  21621671.4064   21621670.4304
  -9109917.32848  -7086963.05643  23016025.6414   23016025.5904
  -9794503.11747  -7618303.11342  23146163.6884   23146165.2934
 04  7 17  0 42 30.0000000  0  9G16G 1G13G23G20G19G27G 3G 8
  -7211274.62546  -5605437.89442  23976010.2424   23976007.6524
 -18327613.96148 -14268274.53444  21889524.1644   21889523.6134
 -26174571.91449 -20383743.78046  20262532.1254   20262529.9064
 -20306911.69948 -15810063.09445  21706668.9924   21706665.3594
  -7360443.82047  -5722937.23842  24130888.8594   24130891.9144
  -4509916.12547  -3499247.99043  23843262.3914   23843262.9734
 -18762808.35249 -14607097.70545  21613185.3984   21613184.2704
  -9145104.95347  -7114381.97643  23009329.8284   23009329.6604
  -9875138.94948  -7681136.07943  23130819.4384   23130819.9144
 04  7 17  0 43  0.0000000  0  9G16G 1G13G23G20G19G27G 3G 8
  -7121411.58246  -5535414.79242  23993109.7424   23993107.7074
 -18272722.09848 -14225501.70844  21899969.5704   21899969.1374
 -26203417.10949 -20406220.56846  20257043.4144   20257040.8714
 -20247574.29748 -15763826.20945  21717960.3594   21717956.9964
  -7257556.63346  -5642765.68642  24150467.9774   24150470.6564
  -4594560.90647  -3565204.82642  23827155.7034   23827155.4304
 -18807256.44549 -14641732.55445  21604726.7734   21604725.7974
  -9179793.76648  -7141412.19443  23002728.2274   23002728.8204
  -9955629.05548  -7743855.52542  23115502.2734   23115503.9614
 04  7 17  0 43 30.0000000  0  9G16G 1G13G23G20G19G27G 3G 8
  -7031374.03146  -5465255.77742  24010242.7894   24010242.8404
 -18217504.85948 -14182475.34344  21910477.2584   21910476.5944
 -26231867.10549 -20428389.40446  20251628.9844   20251626.8204
 -20187897.17648 -15717324.60845  21729316.9304   21729313.5394
  -7154640.92646  -5562571.78242  24170052.2814   24170055.0784
  -4679042.87147  -3631034.84842  23811078.5314   23811078.7934
 -18851559.93749 -14676254.72445  21596296.5004   21596295.3364
  -9213983.00447  -7168053.11243  22996222.2974   22996222.3714
 -10035974.78948  -7806462.45942  23100212.9694   23100214.1214
 04  7 17  0 44  0.0000000  0  9G16G 1G13G23G20G19G27G 3G 8
  -6941163.42646  -5394961.96642  24027409.6954   24027408.3244
 -18161961.72348 -14139195.03244  21921046.2504   21921046.5514
 -26259919.64849 -20450248.54146  20246290.8054   20246288.4774
 -20127879.87548 -15670557.93745  21740737.5234   21740734.0984
  -7051698.60246  -5482357.34942  24189642.3134   24189644.9804
  -4763358.21147  -3696734.96942  23795033.0314   23795034.2894
 -18895718.33249 -14710663.82445  21587893.0634   21587892.3054
  -9247669.69947  -7194302.44642  22989811.8984   22989812.1134
 -10116175.50048  -7868956.37742  23084950.9844   23084952.2504
 04  7 17  0 44 30.0000000  0  9G16G 1G13G23G20G19G27G 3G 8
  -6850778.20346  -5324532.00341  24044609.4144   24044607.8554
 -18106089.09048 -14095657.96744  21931678.7344   21931679.1844
 -26287569.07849 -20471793.55246  20241029.3754   20241027.2424
 -20067519.14148 -15623523.64945  21752224.0004   21752220.7274
  -6948728.34846  -5402120.97742  24209237.0004   24209239.6294
  -4847499.81647  -3762299.74442  23779022.1954   23779021.9574
 -18939727.83249 -14744956.90545  21579518.0394   21579517.4104
  -9280848.37147  -7220155.94843  22983498.0704   22983498.5204
 -10196226.83648  -7931333.89142  23069717.6804   23069718.8554
 04  7 17  0 45  0.0000000  0  9G16G 1G13G23G20G19G27G 3G 8
  -6760223.95346  -5253970.37641  24061841.9924   24061840.5124
 -18049890.34848 -14051866.78344  21942373.1804   21942373.4694
 -26314816.89149 -20493025.62746  20235844.4614   20235842.3794
 -20006818.45748 -15576224.44844  21763775.4384   21763771.4304
  -6845735.63746  -5321867.09341  24228835.6414   24228838.9654
  -4931467.86347  -3827729.30642  23763044.1254   23763043.0474
 -18983591.64149 -14779136.46546  21571171.3134   21571170.5314
  -9313520.49247  -7245614.71442  22977280.8134   22977281.2854
 -10276132.15248  -7993597.66543  23054511.9844   23054513.4804
 04  7 17  0 45 30.0000000  0  9G16G 1G13G23G20G19G27G 3G 8
  -6669501.18446  -5183277.34042  24079105.8134   24079105.0474
 -17993363.89848 -14007820.25244  21953129.7034   21953130.1644
 -26341659.80949 -20513942.18747  20230736.1954   20230733.8484
 -19945776.64548 -15528659.45045  21775390.6254   21775387.5164
  -6742721.57446  -5241596.63741  24248438.5704   24248441.3164
  -5015257.14147  -3893019.55142  23747099.3524   23747098.6484
 -19027308.58249 -14813201.56145  21562852.1024   21562851.6134
  -9345682.55947  -7270676.02042  22971160.2584   22971160.9844
 -10355889.39848  -8055745.99843  23039334.9304   23039335.9024
 04  7 17  0 46  0.0000000  0  9G16G 1G13G23G20G19G27G 3G 8
  -6578615.93446  -5112457.73242  24096400.7194   24096400.0864
 -17936513.43748 -13963521.25044  21963947.9384   21963948.2704
 -26368099.73049 -20534544.73647  20225705.2424   20225702.7424
 -19884397.64848 -15480831.71545  21787070.9694   21787067.7274
  -6639692.35546  -5161314.29241  24268045.1724   24268048.0944
  -5098868.12947  -3958170.86742  23731188.7274   23731187.6954
 -19070882.07449 -14847154.91145  21554560.1174   21554559.3984
  -9377336.29747  -7295341.21342  22965136.9774   22965137.5474
 -10435501.87548  -8117781.57843  23024185.2584   23024186.0664
 04  7 17  0 46 30.0000000  0  9G16G 1G13G23G20G19G27G 3G 8
  -6487567.90646  -5041511.32842  24113726.9924   24113726.3324
 -17879336.59048 -13918967.91044  21974828.7974   21974828.6334
 -26394132.43449 -20554829.96846  20220751.2894   20220748.8634
 -19822679.69148 -15432739.83045  21798815.5554   21798812.1374
  -6536647.83246  -5081020.11342  24287653.9304   24287657.6564
  -5182295.24647  -4023178.88642  23715312.9144   23715311.9694
 -19114309.97349 -14880994.79545  21546296.3204   21546295.7344
  -9408477.38347  -7319606.98443  22959210.9774   22959211.2734
 -10514966.92248  -8179702.26043  23009063.2194   23009063.9494
 04  7 17  0 47  0.0000000  0  9G16G 1G13G23G20G19G27G 3G 8
  -6396358.18746  -4970438.88642  24131083.9224   24131083.5634
 -17821832.73848 -13874159.75944  21985771.3834   21985771.3954
 -26419755.32849 -20574795.85546  20215875.4144   20215873.3914
 -19760621.80548 -15384383.07844  21810624.4774   21810621.3364
  -6433589.70346  -5000715.33742  24307265.4534   24307268.5554
  -5265534.25847  -4088040.37842  23699472.2814   23699471.7624
 -19157591.10549 -14914720.32145  21538060.1484   21538059.3914
  -9439102.88747  -7343470.95843  22953382.8594   22953383.6804
 -10594283.52348  -8241507.27143  22993969.8284   22993970.5704
 04  7 17  0 47 30.0000000  0  9G16G 1G13G23G20G19G27G 3G 8
  -6304990.82445  -4899243.61942  24148469.6954   24148470.3674
 -17764003.94948 -13829098.42944  21996775.7274   21996775.7894
 -26444968.48049 -20594442.47846  20211077.5474   20211075.2704
 -19698226.77348 -15335763.63645  21822498.0164   21822494.7504
  -6330522.33646  -4920403.33541  24326878.6174   24326882.2114
  -5348583.87546  -4152754.24642  23683668.4694   23683667.7704
 -19200727.80549 -14948333.29745  21529851.3204   21529850.5004
  -9469213.07047  -7366933.42442  22947653.1414   22947653.9024
 -10673452.94148  -8303197.58743  22978903.6884   22978904.8164
 04  7 17  0 48  0.0000000  0  9G16G 1G13G23G20G19G27G 3G 8
  -6213466.12546  -4827925.79442  24165886.5784   24165887.3674
 -17705848.13348 -13783782.26344  22007842.3984   22007842.6254
 -26469768.41049 -20613767.09246  20206358.3134   20206355.9104
 -19635492.62548 -15286879.92144  21834436.2504   21834432.5594
  -6227445.91046  -4840084.21242  24346493.5234   24346497.4534
  -5431438.60246  -4217316.22942  23667901.3594   23667900.8674
 -19243717.70749 -14981831.89345  21521670.8984   21521669.8954
  -9498803.87947  -7389991.17242  22942022.0784   22942022.8554
 -10752472.45748  -8364771.11643  22963866.8364   22963868.3364
 04  7 17  0 48 30.0000000  0  9G16G 1G13G23G20G19G27G 3G 8
  -6121788.55147  -4756488.84842  24183332.6804   24183332.9804
 -17647367.84848 -13738213.26444  22018971.0234   22018970.9804
 -26494155.48049 -20632770.01247  20201717.6884   20201715.1884
 -19572421.97348 -15237734.01344  21846438.3134   21846434.7154
  -6124365.00046  -4759761.65241  24366110.0864   24366113.8674
  -5514097.48447  -4281725.64542  23652172.7114   23652171.7624
 -19286563.24649 -15015217.99445  21513517.3754   21513516.6884
  -9527875.80947  -7412644.59343  22936489.9844   22936490.7194
 -10831344.57848  -8426229.78843  22948858.1094   22948859.5944
 04  7 17  0 49  0.0000000  0  9G16G 1G13G23G20G19G27G 3G 8
  -6029958.17646  -4684932.84042  24200807.3834   24200808.0394
 -17588561.12148 -13692389.90444  22030161.1484   22030161.6884
 -26518126.05149 -20651448.37746  20197156.2974   20197153.9344
 -19509013.47348 -15188324.85544  21858504.2504   21858501.3164
  -6021280.00846  -4679435.89541  24385726.5004   24385729.8954
  -5596555.23846  -4345978.31442  23636481.1644   23636479.8484
 -19329262.46549 -15048490.09045  21505391.7664   21505391.4654
  -9556425.00847  -7434890.69942  22931057.4144   22931057.8634
 -10910067.17648  -8487571.94143  22933877.2734   22933878.5274
 04  7 17  0 49 30.0000000  0  9G16G 1G13G23G20G19G27G 3G 8
  -5937974.83646  -4613257.57742  24218311.7734   24218312.3554
 -17529426.03548 -13646310.67744  22041414.2344   22041415.0944
 -26541676.09849 -20669799.05447  20192674.7584   20192672.3554
 -19445265.40648 -15138651.08744  21870635.4614   21870631.9304
  -5918191.50046  -4599107.41441  24405343.9064   24405347.6644
  -5678806.59047  -4410070.16642  23620829.5004   23620828.0554
 -19371813.18749 -15081646.47646  21497294.9454   21497294.3914
  -9584447.74247  -7456726.55743  22925725.0004   22925725.1994
 -10988637.45748  -8548795.39443  22918926.5784   22918927.1484
 04  7 17  0 50  0.0000000  0  9G16G 1G13G23G20G19G27G 3G 8
  -5845843.13746  -4541466.72242  24235843.7734   24235843.6334
 -17469965.27348 -13599977.69644  22052729.5084   22052729.8094
 -26564806.21149 -20687822.51947  20188273.1174   20188271.0164
 -19381180.49648 -15088714.84644  21882830.3444   21882826.5004
  -5815103.90646  -4518779.70641  24424960.4064   24424965.1484
  -5760850.51246  -4474000.40443  23605216.5394   23605215.5394
 -19414217.89849 -15114689.09345  21489225.6024   21489224.5164
  -9611944.40647  -7478152.50543  22920492.4144   22920492.5394
 -11067057.64148  -8609901.90943  22904003.8594   22904004.0944
 04  7 17  0 50 30.0000000  0  9G16G 1G13G23G20G19G27G 3G 8
  -5753566.71245  -4469563.15042  24253403.1414   24253403.6024
 -17410179.99248 -13553391.84244  22064106.2034   22064106.5864
 -26587516.17649 -20705518.59046  20183951.4694   20183949.4144
 -19316760.40648 -15038517.43945  21895089.4924   21895086.0084
  -5712021.08246  -4438455.55141  24444576.3754   24444581.3324
  -5842684.87146  -4537767.32343  23589643.6254   23589643.1454
 -19456477.67249 -15147618.76845  21481183.6484   21481182.7234
  -9638914.57447  -7499168.19043  22915360.2194   22915360.7734
 -11145328.94148  -8670892.41443  22889109.0004   22889109.4924
 04  7 17  0 51  0.0000000  0  9G16G 1G13G23G20G19G27G 3G 8
  -5661148.37145  -4397548.91742  24270989.6254   24270990.2624
 -17350071.39848 -13506554.02344  22075544.2584   22075544.6054
 -26609805.01649 -20722886.50847  20179710.0234   20179707.6134
 -19252006.48048 -14988059.89444  21907411.8594   21907408.2464
  -5608946.16846  -4358137.67641  24464191.8754   24464195.6094
  -5924307.34046  -4601369.14043  23574111.6414   23574110.7424
 -19498593.55149 -15180436.31145  21473169.4614   21473168.4064
  -9665357.35547  -7519772.93443  22910328.3674   22910329.0044
 -11223451.35248  -8731766.91443  22874242.1174   22874243.0744
 04  7 17  0 51 30.0000000  0  9G16G 1G13G23G20G19G27G 3G 8
  -5568587.03545  -4325423.33342  24288603.6954   24288604.0164
 -17289636.57848 -13459462.03344  22087045.1094   22087045.0234
 -26631668.08649 -20739922.65746  20175549.5394   20175547.0784
 -19186916.04348 -14937340.12445  21919797.5704   21919794.7304
  -5505878.43746  -4277825.38741  24483804.3204   24483808.8874
  -6005711.47747  -4664800.85643  23558621.1804   23558620.4304
 -19540562.27049 -15213139.18445  21465183.0474   21465181.9614
  -9691267.98447  -7539963.02343  22905397.5474   22905398.5824
 -11301422.20348  -8792523.29743  22859404.9064   22859406.2424
 04  7 17  0 52  0.0000000  0  9G16G 1G13G23G20G19G27G 3G 8
  -5475888.14845  -4253190.58041  24306243.4224   24306244.7774
 -17228879.00448 -13412118.52144  22098607.2894   22098607.1134
 -26653106.95349 -20756628.25447  20171469.8524   20171467.4844
 -19121492.92248 -14886361.13845  21932247.8284   21932244.1294
  -5402823.54345  -4197523.09441  24503415.6174   24503420.1024
  -6086897.18747  -4728062.35243  23543171.7734   23543171.7384
 -19582387.23449 -15245730.04246  21457224.2424   21457222.7934
  -9716647.90247  -7559739.55143  22900567.7194   22900568.5824
 -11379243.95748  -8853163.53243  22844596.1414   22844596.3984
 04  7 17  0 52 30.0000000  0  9G16G 1G13G23G20G19G27G 3G 8
  -5383052.66445  -4180851.25241  24323909.9614   24323911.1174
 -17167797.87548 -13364522.90944  22110230.1414   22110230.3874
 -26674118.85549 -20773001.15247  20167471.2734   20167469.0704
 -19055736.54749 -14835122.45244  21944760.6334   21944757.2234
  -5299782.78146  -4117231.77741  24523024.2734   24523027.5274
  -6167860.25447  -4791150.35243  23527766.0004   23527764.7074
 -19624067.50449 -15278208.14745  21449292.5474   21449291.1484
  -9741494.74247  -7579100.70143  22895839.3594   22895839.9264
 -11456915.32448  -8913686.55743  22829815.1804   22829815.8914
 04  7 17  0 53  0.0000000  0  9G16G 1G13G23G20G19G27G 3G 8
  -5290082.57845  -4108407.23441  24341601.5634   24341602.0354
 -17106392.89548 -13316674.95244  22121915.8364   22121915.5594
 -26694701.69549 -20789039.72947  20163555.1644   20163552.5394
 -18989646.92248 -14783624.11945  21957337.4844   21957333.7584
  -5196758.04746  -4036952.99641  24542628.9774   24542632.5164
  -6248597.19547  -4854062.15543  23512401.4534   23512400.8324
 -19665602.25449 -15310572.87245  21441388.6954   21441387.6724
  -9765806.36748  -7598044.80843  22891213.3834   22891213.9804
 -11534435.31248  -8974091.66843  22815063.5864   22815064.1644
 04  7 17  0 53 30.0000000  0  9G16G 1G13G23G20G19G27G 3G 8
  -5196983.04346  -4035862.24141  24359318.9844   24359318.4734
 -17044667.56248 -13268577.36244  22133661.4694   22133661.3364
 -26714857.15249 -20804745.27247  20159719.3984   20159716.8674
 -18923227.52348 -14731868.80744  21969976.3984   21969972.8164
  -5093755.05545  -3956691.16441  24562230.0634   24562232.3714
  -6329107.63746  -4916797.45143  23497080.6724   23497080.7234
 -19706995.01249 -15342826.95346  21433511.6954   21433510.5084
  -9789584.27047  -7616573.02343  22886688.8914   22886689.1174
 -11611807.27748  -9034381.39943  22800340.3054   22800340.6804
 04  7 17  0 54  0.0000000  0  9G16G 1G13G23G20G19G27G 3G 8
  -5103751.49645  -3963214.38042  24377059.2894   24377059.8094
 -16982617.55148 -13220226.78144  22145469.1024   22145469.2424
 -26734578.95749 -20820112.91046  20155966.3284   20155963.8244
 -18856474.60249 -14679853.59745  21982678.5704   21982675.7504
  -4990771.58645  -3876444.46541  24581826.8284   24581830.2074
  -6409383.95347  -4979350.34043  23481804.1884   23481804.0164
 -19748241.19949 -15374966.81646  21425662.8284   21425662.0744
  -9812822.05147  -7634680.35543  22882266.6174   22882266.9804
 -11689026.25048  -9094551.92743  22785645.9924   22785646.4964
 04  7 17  0 54 30.0000000  0  9G16G 1G13G23G20G19G27G 3G 8
  -5010394.12945  -3890468.50041  24394825.0234   24394825.4844
 -16920247.20748 -13171626.57044  22157338.0634   22157338.3524
 -26753869.51649 -20835144.51046  20152295.6024   20152293.2894
 -18789392.86348 -14627582.18144  21995444.0704   21995440.7114
  -4887813.82845  -3796217.86341  24601418.6724   24601422.8404
  -6489427.00846  -5041721.42043  23466572.4304   23466572.1884
 -19789344.85249 -15406995.61746  21417841.2194   21417840.2894
  -9835522.44147  -7652368.94242  22877946.5554   22877947.3204
 -11766095.82848  -9154606.04543  22770980.2664   22770980.4804
 04  7 17  0 55  0.0000000  0  9G16G 1G13G23G20G19G27G 3G 8
  -4916912.05545  -3817625.42241  24412613.0084   24412613.7894
 -16857555.75848 -13122776.15444  22169268.1094   22169267.7854
 -26772726.29349 -20849838.09346  20148707.3364   20148704.6564
 -18721981.69148 -14575054.04444  22008272.3754   22008268.7664
  -4784883.21145  -3716012.39141  24621006.0084   24621009.6414
  -6569232.46947  -5103907.42343  23451386.0004   23451385.2624
 -19830304.85549 -15438912.47246  21410046.5164   21410045.8714
  -9857683.00447  -7669636.89743  22873729.3204   22873730.0394
 -11843014.95348  -9214542.93043  22756342.9144   22756343.3594
 04  7 17  0 55 30.0000000  0  9G16G 1G13G23G20G19G27G 3G 8
  -4823305.98446  -3744685.71641  24430427.2274   24430426.5124
 -16794542.22348 -13073674.75843  22181258.4694   22181258.9964
 -26791146.43449 -20864191.44546  20145202.0634   20145199.4734
 -18654240.48848 -14522268.77544  22021163.0004   22021159.1524
  -4681981.04745  -3635829.06241  24640588.2034   24640590.8244
  -6648795.60946  -5165904.55543  23436245.2344   23436244.5704
 -19871119.89549 -15470716.39046  21402279.6954   21402278.7464
  -9879301.04747  -7686482.09142  22869615.7734   22869616.3484
 -11919782.25448  -9274361.52943  22741733.7734   22741734.7234
 04  7 17  0 56  0.0000000  0  8G16G 1G13G23G19G27G 3G 8
  -4729575.65745  -3671649.22442  24448261.8364   24448263.0394
 -16731204.43048 -13024320.69043  22193311.5314   22193311.9344
 -26809125.91049 -20878201.42846  20141780.6644   20141778.2034
 -18586167.18748 -14469224.69944  22034116.9614   22034113.2154
  -6728110.60246  -5227708.35443  23421152.3364   23421151.4924
 -19911787.43449 -15502405.36046  21394540.9534   21394539.9804
  -9900372.44547  -7702901.33542  22865606.1334   22865606.6914
 -11996394.43048  -9334059.24143  22727155.4614   22727155.8754
 04  7 17  0 56 30.0000000  0  8G16G 1G13G23G19G27G 3G 8
  -4635726.89145  -3598520.48841  24466120.7114   24466122.1764
 -16667546.88348 -12974717.46744  22205425.3914   22205425.6214
 -26826666.83649 -20891869.68446  20138442.6564   20138440.0434
 -18517766.24648 -14415925.32044  22047133.1174   22047129.7664
  -6807178.47346  -5289319.58543  23406106.1334   23406105.6254
 -19952311.41849 -15533982.46646  21386829.6484   21386828.7114
  -9920899.98047  -7718896.78942  22861699.7664   22861700.0514
 -12072855.28947  -9393639.06143  22712605.5944   22712605.5394
 04  7 17  0 57  0.0000000  0  8G16G 1G13G23G19G27G 3G 8
  -4541749.78945  -3525291.75041  24484005.0704   24484006.2584
 -16603557.83248 -12924855.92944  22217602.1094   22217602.6684
 -26843755.86349 -20905185.81246  20135190.4304   20135188.2504
 -18449026.35248 -14362361.84144  22060213.8204   22060210.2774
  -6885984.07846  -5350726.43043  23391109.7814   23391108.8874
 -19992680.03149 -15565438.53246  21379147.8594   21379147.0314
  -9940869.87547  -7734457.72743  22857899.2814   22857899.6294
 -12149153.09447  -9453091.81543  22698086.0634   22698086.5904
 04  7 17  0 57 30.0000000  0  8G16G 1G13G23G19G27G 3G 8
  -4447637.75045  -3451957.78941  24501913.3984   24501915.7774
 -16539228.56648 -12874729.29443  22229843.4694   22229844.5084
 -26860382.49649 -20918141.64447  20132026.6254   20132024.1764
 -18379939.38748 -14308527.89744  22073360.6094   22073357.4024
  -6964515.08647  -5411919.30442  23376166.0004   23376164.3134
 -20032884.09449 -15596766.35446  21371497.3674   21371496.1294
  -9960271.98047  -7749576.22843  22854207.1094   22854207.8014
 -12225278.05148  -9512409.89543  22683600.3984   22683600.5164
 04  7 17  0 58  0.0000000  0  8G16G 1G13G23G19G27G 3G 8
  -4353398.50845  -3378524.84041  24519847.1334   24519849.9844
 -16474565.30148 -12824342.40543  22242148.4614   22242149.4734
 -26876551.02049 -20930740.49546  20128949.9844   20128948.0474
 -18310511.85548 -14254428.58944  22086572.5234   22086568.9884
  -7042774.14146  -5472900.30542  23361273.6094   23361271.5904
 -20072929.53549 -15627970.58546  21363876.8834   21363875.5554
  -9979110.60247  -7764255.68243  22850622.9304   22850622.6644
 -12301236.02048  -9571597.85743  22669145.9844   22669146.2624
 04  7 17  0 58 30.0000000  0  8G16G 1G13G23G19G27G 3G 8
  -4259036.85945  -3304996.44041  24537803.6254   24537807.4844
 -16409571.11748 -12773697.66744  22254517.1414   22254517.1454
 -26892262.61348 -20942983.30446  20125960.1024   20125957.6414
 -18240746.64848 -14200066.14044  22099848.7274   22099845.3204
  -7120760.81247  -5533669.04143  23346432.5474   23346432.1254
 -20112818.98849 -15659053.26046  21356286.2504   21356284.8164
  -9997387.10247  -7778497.09143  22847145.3594   22847145.2304
 -12377029.06647  -9630657.28443  22654722.9534   22654723.1334
 04  7 17  0 59  0.0000000  0  8G16G 1G13G23G19G27G 3G 8
  -4164556.32845  -3231375.51141  24555783.2274   24555787.8164
 -16344248.14848 -12722796.72244  22266947.3364   22266947.6844
 -26907517.66049 -20954870.36847  20123057.3914   20123054.7234
 -18170646.39548 -14145442.64344  22113187.9924   22113184.6914
  -7198473.57447  -5594224.34842  23331645.0864   23331643.1134
 -20152554.19549 -15690015.75246  21348724.6334   21348723.5744
 -10015102.12147  -7792300.98743  22843773.6804   22843774.1374
 -12452659.25448  -9689589.82443  22640330.6414   22640331.0164
 04  7 17  0 59 30.0000000  0  8G16G 1G13G23G19G27G 3G 8
  -4069960.92646  -3157664.90842  24573785.0234   24573788.1094
 -16278598.52048 -12671641.23743  22279440.0474   22279440.2734
 -26922316.46549 -20966401.90746  20120240.9304   20120238.3914
 -18100213.60948 -14090560.01544  22126591.2194   22126587.8794
  -7275911.02747  -5654565.11543  23316909.3834   23316907.3954
 -20192136.80549 -15720859.33046  21341192.2734   21341191.0554
 -10032256.08647  -7805667.69742  22840509.3674   22840510.1414
 -12528127.82448  -9748396.41343  22625969.4064   22625969.9064
 04  7 17  1  0  0.0000000  0  8G16G 1G13G23G19G27G 3G 8
  -3975254.89146  -3083868.16542  24591807.9304   24591811.1844
 -16212625.09848 -12620233.44244  22291994.3754   22291994.7584
 -26936659.59049 -20977578.37247  20117511.5704   20117509.4064
 -18029451.03948 -14035420.41344  22140056.4144   22140053.2274
  -7353072.32047  -5714690.70642  23302225.7194   23302223.3754
 -20231569.25449 -15751585.88845  21333688.5864   21333687.2974
 -10048849.78147  -7818597.83442  22837351.5704   22837351.8204
 -12603436.57448  -9807078.47443  22611638.7814   22611638.7664
 04  7 17  1  0 30.0000000  0  8G16G 1G13G23G19G27G 3G 8
  -3880441.23846  -3009987.51642  24609849.6254   24609853.3244
 -16146329.05548 -12568574.26843  22304610.6644   22304610.8244
 -26950546.45349 -20988399.31646  20114869.3834   20114867.1414
 -17958360.28548 -13980025.09144  22153584.8364   22153581.3284
  -7429954.87547  -5774599.10542  23287594.8444   23287592.7464
 -20270852.21549 -15782195.97246  21326212.9924   21326211.9694
 -10064882.77747  -7831091.06743  22834300.4694   22834300.9224
 -12678586.38748  -9865636.67443  22597338.2344   22597337.9494
 04  7 17  1  1  0.0000000  0  8G16G 1G13G23G19G27G 3G 8
  -3785521.10546  -2936023.84142  24627912.9304   24627915.6884
 -16079710.20348 -12516663.53743  22317287.7424   22317287.5234
 -26963975.27749 -20998863.35046  20112314.0004   20112311.5664
 -17886941.58648 -13924374.21444  22167175.3834   22167172.0984
  -7506554.97747  -5834287.40843  23273018.6644   23273016.0044
 -20309985.11749 -15812689.12745  21318766.4924   21318765.1884
 -10080353.41047  -7843146.09243  22831356.8594   22831356.8834
 -12753576.42248  -9924070.39443  22583067.6954   22583068.0434
 04  7 17  1  1 30.0000000  0  8G16G 1G13G23G19G27G 3G 8
  -3690499.61747  -2861981.19242  24645995.4924   24645998.2074
 -16012771.91448 -12464503.91743  22330025.4224   22330025.5434
 -26976947.11349 -21008971.28447  20109845.1804   20109843.0864
 -17815198.32448 -13868470.44544  22180827.7114   22180824.9064
  -7582872.37547  -5893755.42642  23258495.8834   23258494.1174
 -20348970.62149 -15843067.43446  21311347.7814   21311346.3794
 -10095263.37546  -7854764.23143  22828519.8444   22828519.5514
 -12828409.15248  -9982381.52243  22568827.6724   22568828.0434
 04  7 17  1  2  0.0000000  0  7G 1G13G23G19G27G 3G 8
 -15945514.49248 -12412095.61044  22342823.8444   22342824.3674
 -26989460.20749 -21018721.75647  20107464.3444   20107461.7274
 -17743131.00048 -13812314.15444  22194541.9224   22194538.6174
  -7658903.70347  -5953000.51743  23244027.5164   23244025.4734
 -20387808.36349 -15873330.60545  21303957.1024   21303955.9964
 -10109611.26247  -7865944.39242  22825788.7344   22825789.5434
 -12903083.63748 -10040569.33244  22554617.5084   22554617.6914
 04  7 17  1  2 30.0000000  0  7G 1G13G23G19G27G 3G 8
 -15877941.09848 -12359441.09544  22355683.2504   22355683.4344
 -27001516.24649 -21028116.07647  20105169.9224   20105167.9264
 -17670743.18448 -13755908.14444  22208317.0554   22208313.7234
  -7734648.49647  -6012022.33943  23229613.3984   23229612.1604
 -20426501.41849 -15903481.02645  21296594.1484   21296592.9064
 -10123398.66047  -7876687.79543  22823164.8444   22823166.5434
 -12977603.07048 -10098636.33343  22540436.5394   22540437.2854
 04  7 17  1  3  0.0000000  0  7G 1G13G23G19G27G 3G 8
 -15810034.56648 -12306526.99343  22368605.5944   22368605.5274
 -27013096.40249 -21037139.57747  20102966.4924   20102964.4384
 -17598017.89548 -13699239.16244  22222155.8594   22222152.8984
  -7810086.07447  -6070804.78743  23215258.0234   23215256.1054
 -20465031.88349 -15933504.75146  21289262.0944   21289261.0084
 -10136606.69547  -7886979.76043  22820651.7114   22820652.4924
 -13051949.73848 -10156568.71744  22526289.3444   22526289.4884
 04  7 17  1  3 30.0000000  0  7G 1G13G23G19G27G 3G 8
 -15741788.76248 -12253348.51243  22381592.1644   22381592.0234
 -27024192.19549 -21045785.66147  20100854.7894   20100852.7194
 -17524949.55148 -13642302.85844  22236060.6724   22236057.5944
  -7885206.63747  -6129340.19143  23200962.7034   23200961.8134
 -20503393.14849 -15963396.63846  21281962.2274   21281961.2114
 -10149227.79747  -7896814.37742  22818249.9924   22818250.9264
 -13126116.31248 -10214360.76744  22512175.5704   22512175.6094
 04  7 17  1  4  0.0000000  0  7G 1G13G23G19G27G 3G 8
 -15673208.64848 -12199909.53243  22394642.6724   22394642.4884
 -27034806.64849 -21054056.66947  20098835.2034   20098832.9654
 -17451542.98448 -13585103.00344  22250029.2194   22250026.4064
  -7960011.57447  -6187629.67943  23186728.1804   23186727.1684
 -20541589.40249 -15993159.93446  21274693.7894   21274692.6254
 -10161264.92647  -7906193.92143  22815959.8054   22815959.5394
 -13200106.68048 -10272015.50344  22498095.1804   22498096.0474
 04  7 17  1  4 30.0000000  0  7G 1G13G23G19G27G 3G 8
 -15604291.40248 -12146207.87443  22407756.6724   22407756.8134
 -27044935.39849 -21061949.20047  20096907.6414   20096905.2034
 -17377796.01248 -13527637.89744  22264063.1724   22264060.1414
  -8034494.34047  -6245668.10043  23172554.2584   23172553.1214
 -20579617.52349 -16022792.21046  21267456.9304   21267456.1414
 -10172714.02048  -7915115.31243  22813780.9144   22813781.2894
 -13273917.79748 -10329530.57644  22484049.8284   22484050.4104
 04  7 17  1  5  0.0000000  0  8G28G 1G13G23G19G27G 3G 8
   -170316.26255   -113828.67251  24568220.9144   24568227.9184
 -15535051.84048 -12092255.05243  22420932.3674   22420932.9104
 -27054591.31648 -21069473.29847  20095070.3204   20095067.9384
 -17303723.31248 -13469918.97644  22278158.8754   22278155.6294
  -8108666.03548  -6303464.12643  23158439.8914   23158438.9064
 -20617491.77748 -16052304.59746  21260249.6414   21260248.9024
 -10183588.59048  -7923588.99943  22811711.9844   22811711.6294
 -13347563.81248 -10386916.98544  22470035.6724   22470036.2274
 04  7 17  1  5 30.0000000  0  8G28G 1G13G23G19G27G 3G 8
   -280680.72745   -199826.48342  24547219.9224   24547225.9344
 -15465507.29748 -12038064.58143  22434166.7814   22434167.1174
 -27063789.52749 -21076640.73847  20093319.9534   20093317.1214
 -17229342.55148 -13411960.02744  22292313.4534   22292310.0594
  -8182540.25447  -6361028.36543  23144381.8364   23144380.3594
 -20655228.56649 -16081709.87946  21253068.7344   21253067.8524
 -10193904.17648  -7931627.11643  22809748.6724   22809749.0044
 -13421060.41848 -10444186.98844  22456049.4384   22456049.7704
 04  7 17  1  5 59.9990000  0  8G28G 1G13G23G19G27G 3G 8
   -390910.19945   -285719.23041  24526243.6904   24526249.0194
 -15395656.45348 -11983635.43243  22447458.9254   22447459.2884
 -27072524.44949 -21083447.17247  20091657.8004   20091655.3434
 -17154652.84048 -13353760.33144  22306526.0034   22306522.9914
  -8256107.37947  -6418353.32443  23130382.5734   23130381.1124
 -20692822.34849 -16111003.70846  21245914.6204   21245913.6754
 -10203655.33247  -7939225.41143  22807893.3084   22807893.0504
 -13494401.38348 -10501335.71244  22442092.7304   22442093.6594
 04  7 17  1  6 29.9990000  0  8G28G 1G13G23G19G27G 3G 8
   -501015.83246   -371515.42741  24505291.7064   24505296.4914
 -15325501.13748 -11928969.03643  22460809.4014   22460809.2884
 -27080801.14849 -21089896.54547  20090082.8084   20090079.8624
 -17079655.90648 -13295321.23444  22320797.2374   22320794.9254
  -8329374.79748  -6475444.72143  23116439.8314   23116438.8274
 -20730281.58649 -16140192.70546  21238786.6594   21238785.5694
 -10212847.48447  -7946388.10643  22806144.1514   22806143.8584
 -13567597.05148 -10558371.22844  22428163.8944   22428164.6364
 04  7 17  1  6 59.9990000  0  9G28G 1G13G23G10G19G27G 3G 8
   -610991.63346   -457210.43742  24484363.4334   24484368.9214
 -15255043.74648 -11874067.28343  22474216.8704   22474217.4804
 -27088617.68749 -21095987.37047  20088595.6364   20088592.9214
 -17004354.42248 -13236644.82744  22335126.9954   22335124.1204
   -129386.97755    -86267.90951  24486665.1904   24486668.1164
  -8402336.87948  -6532298.22543  23102555.6054   23102554.2414
 -20767604.32049 -16169275.33046  21231684.4174   21231683.2924
 -10221478.98447  -7953113.95843  22804502.0504   22804501.1204
 -13640643.91048 -10615290.78044  22414263.7304   22414263.8514
 04  7 17  1  7 29.9990000  0  9G28G 1G13G23G10G19G27G 3G 8
   -720847.21946   -542811.69942  24463457.8234   24463463.2494
 -15184296.38348 -11818939.55743  22487679.4564   22487680.0854
 -27095984.16849 -21101727.47746  20087193.3864   20087190.9134
 -16928761.09448 -13177741.02844  22349512.3474   22349509.1284
   -212988.02746   -151411.53541  24470757.4724   24470759.1874
  -8475001.91848  -6588920.27343  23088728.3944   23088726.6834
 -20804802.16849 -16198260.64846  21224605.6904   21224604.8314
 -10229560.67247  -7959411.40543  22802964.2304   22802963.0694
 -13713553.53948 -10672103.39444  22400389.7144   22400390.0344
 04  7 17  1  7 59.9990000  0  9G28G 1G13G23G10G19G27G 3G 8
   -830584.52746   -628320.87841  24442575.4644   24442581.0194
 -15113263.87948 -11763589.63943  22501196.8554   22501197.6444
 -27102903.53949 -21107119.20747  20085876.5344   20085874.2414
 -16852880.71148 -13118613.52344  22363952.0034   22363948.7764
   -296199.39847   -216251.57242  24454923.6444   24454924.0504
  -8547370.88748  -6645311.61143  23074957.2304   23074955.4174
 -20841879.15249 -16227151.78646  21217550.4174   21217548.9834
 -10237095.63748  -7965282.79543  22801529.8784   22801529.6794
 -13786330.09448 -10728812.33844  22386540.5114   22386540.6554
 04  7 17  1  8 29.9990000  0  9G28G 1G13G23G10G19G27G 3G 8
   -940193.79346   -713730.23642  24421717.0264   24421722.6984
 -15041938.98848 -11708011.88343  22514769.7064   22514770.0344
 -27109366.91849 -21112155.60947  20084646.8624   20084644.2374
 -16776706.23448 -13059256.87444  22378447.1364   22378444.4994
   -379010.69947   -280779.83842  24439165.7144   24439165.2414
  -8619432.86748  -6701463.75143  23061244.0584   23061242.2534
 -20878827.29748 -16255942.53246  21210519.2534   21210518.2264
 -10244075.48847  -7970721.65442  22800202.1594   22800201.2024
 -13858965.54748 -10785411.33844  22372718.4564   22372718.7574
 04  7 17  1  8 59.9990000  0  9G28G 1G13G23G10G19G27G 3G 8
  -1049670.58246   -799036.38842  24400883.5974   24400888.7104
 -14970319.71548 -11652204.77243  22528398.4954   22528398.9174
 -27115370.12949 -21116833.44646  20083504.6834   20083502.0814
 -16700236.08248 -12999669.83844  22392999.2454   22392996.8354
   -461416.77047   -344992.35442  24423484.7144   24423484.6244
  -8691182.21948  -6757372.25143  23047590.9174   23047589.1874
 -20915644.02748 -16284630.87646  21203513.1984   21203511.9954
 -10250496.39147  -7975724.93442  22798979.7614   22798979.1164
 -13931456.57848 -10841897.79944  22358923.6364   22358924.2804
 04  7 17  1  9 29.9990000  0  9G28G 1G13G23G10G19G27G 3G 8
  -1159011.50847   -884236.60542  24380076.9254   24380081.7964
 -14898405.29348 -11596167.62743  22542083.5194   22542083.9684
 -27120910.54749 -21121150.66047  20082450.0264   20082447.7304
 -16623469.51248 -12939851.80744  22407607.9014   22407605.1124
   -543413.60247   -408885.95842  24407881.4484   24407880.5224
  -8762614.54748  -6813033.73943  23033997.3784   23033995.5114
 -20952327.61749 -16313215.46646  21196532.7374   21196531.7454
 -10256356.34847  -7980291.14542  22797865.1364   22797864.3234
 -14003801.65248 -10898270.51844  22345156.8784   22345157.4484
 04  7 17  1  9 59.9990000  0  9G28G 1G13G23G10G19G27G 3G 8
  -1268212.91046   -969328.14442  24359296.0584   24359301.6084
 -14826194.61348 -11539899.65243  22555824.5584   22555825.8234
 -27125985.27748 -21125105.00347  20081484.2924   20081481.9404
 -16546405.85248 -12879802.29344  22422272.3624   22422269.5154
   -624997.16047   -472457.58242  24392356.0974   24392355.6944
  -8833725.06648  -6868444.46644  23020465.4954   23020463.6324
 -20988876.17648 -16341694.85746  21189577.9014   21189576.7224
 -10261652.83247  -7984418.28143  22796857.9404   22796856.4994
 -14075999.11748 -10954528.23644  22331417.9254   22331418.2494
 04  7 17  1 10 29.9990000  0  9G28G 1G13G23G10G19G27G 3G 8
  -1377268.32447  -1054305.94642  24338543.5034   24338547.4644
 -14753683.96148 -11483397.94443  22569623.6204   22569624.0774
 -27130588.79349 -21128692.16746  20080608.6674   20080605.8864
 -16469041.38748 -12819518.38144  22436994.1754   22436991.4334
   -706160.31247   -535701.55842  24376911.6364   24376912.6754
  -8904506.19548  -6923598.53643  23006996.2924   23006994.1014
 -21025285.28549 -16370065.57746  21182649.0264   21182648.1404
 -10266380.59046  -7988102.23943  22795957.3234   22795957.6284
 -14148044.03948 -11010667.07144  22317708.3554   22317708.3274
 04  7 17  1 10 59.9990000  0  9G28G 1G13G23G10G19G27G 3G 8
  -1486179.95346  -1139171.71742  24317817.1834   24317821.9914
 -14680878.08248 -11426666.19143  22583477.7144   22583478.5974
 -27134723.94549 -21131914.37547  20079821.5734   20079819.2804
 -16391381.47348 -12759004.25644  22451772.5894   22451769.4684
   -786904.73046   -598619.27642  24361545.7064   24361547.3864
  -8974959.07848  -6978496.82343  22993589.4644   22993587.3124
 -21061559.01649 -16398330.81246  21175746.5974   21175745.2494
 -10270543.07847  -7991345.73943  22795164.6754   22795164.4174
 -14219940.30548 -11066690.08544  22304026.7064   22304027.2264
 04  7 17  1 11 29.9990000  0  9G28G 1G13G23G10G19G27G 3G 8
  -1594941.81247  -1223920.75942  24297120.7764   24297125.5114
 -14607773.52748 -11369701.68243  22597389.2224   22597389.9804
 -27138385.34049 -21134767.41747  20079124.7534   20079122.4214
 -16313422.72348 -12698257.25344  22466607.7374   22466604.7064
   -867223.85546   -661205.46242  24346260.3234   24346264.0074
  -9045076.57448  -7033133.77443  22980246.0194   22980244.4014
 -21097692.98449 -16426487.13946  21168870.5264   21168869.1474
 -10274135.61347  -7994145.11443  22794481.5894   22794481.5624
 -14291683.36348 -11122593.72344  22290374.4174   22290374.9254
 04  7 17  1 11 59.9990000  0  9G28G 1G13G23G10G19G27G 3G 8
  -1703553.62947  -1308552.85642  24276451.6594   24276457.0654
 -14534372.71948 -11312506.36943  22611356.8154   22611357.7264
 -27141573.62949 -21137251.80447  20078518.2924   20078515.6284
 -16235167.67248 -12637279.36844  22481498.9404   22481496.6444
   -947117.00447   -723459.81942  24331057.6364   24331060.2924
  -9114857.37547  -7087508.35743  22966967.5974   22966965.3944
 -21133688.89149 -16454535.88146  21162020.6444   21162019.4134
 -10277158.97348  -7996501.00443  22793906.6514   22793906.1794
 -14363274.92248 -11178379.29644  22276751.2064   22276751.4294
 04  7 17  1 12 29.9990000  0  9G28G 1G13G23G10G19G27G 3G 8
  -1812012.03547  -1393065.50542  24255812.4954   24255817.6834
 -14460674.80148 -11255079.48043  22625381.4804   22625382.1324
 -27144286.17249 -21139365.48446  20078001.8474   20077999.4644
 -16156615.54748 -12576070.01344  22496447.1754   22496444.9404
  -1026580.14547   -785379.11142  24315937.2534   24315938.6444
  -9184296.82847  -7141616.95743  22953753.7374   22953751.6164
 -21169544.94149 -16482475.64646  21155197.1904   21155195.9914
 -10279610.99248  -7998411.65843  22793439.6834   22793440.0464
 -14434712.72748 -11234045.07644  22263157.0424   22263157.3784
 04  7 17  1 12 59.9990000  0  9G28G 1G13G23G10G19G27G 3G 8
  -1920315.79346  -1477457.67342  24235202.7144   24235207.5464
 -14386681.21548 -11197422.26743  22639461.7924   22639462.7454
 -27146522.64849 -21141108.19947  20077576.1984   20077574.0694
 -16077768.33648 -12514630.70644  22511451.2614   22511448.2454
  -1105611.55147   -846961.94742  24300898.2144   24300899.4874
  -9253392.72747  -7195457.84043  22940604.2224   22940602.9604
 -21205261.71149 -16510306.88046  21148400.5114   21148399.4954
 -10281491.86348  -7999877.29443  22793082.2764   22793082.4804
 -14505997.41848 -11289591.54244  22249591.8084   22249592.2104
 04  7 17  1 13 29.9990000  0  9G28G 1G13G23G10G19G27G 3G 8
  -2028458.94547  -1561724.67542  24214624.0654   24214628.3194
 -14312388.43048 -11139531.86843  22653599.2614   22653600.0584
 -27148277.41849 -21142475.55847  20077242.5734   20077240.3514
 -15998622.66848 -12452958.85544  22526512.2614   22526509.8864
  -1184204.58247   -908203.29042  24285942.2614   24285943.6364
  -9322137.94147  -7249025.47943  22927523.1514   22927521.5304
 -21240834.81249 -16538026.16246  21141631.0734   21141629.8904
 -10282796.97748  -8000894.28243  22792833.1204   22792833.3274
 -14577125.09848 -11345015.66044  22236056.3704   22236056.6794
 04  7 17  1 13 59.9990000  0  9G28G 1G13G23G10G19G27G 3G 8
  -2136445.07847  -1645869.28742  24194074.3784   24194079.0424
 -14237802.76648 -11081413.26943  22667792.6444   22667793.1164
 -27149555.14149 -21143471.19146  20076999.3154   20076996.6984
 -15919184.97348 -12391059.44644  22541628.6514   22541626.3474
  -1262362.69147   -969105.68542  24271069.0974   24271069.8704
  -9390535.10247  -7302321.88443  22914506.7924   22914506.1084
 -21276269.89149 -16565637.91946  21134888.5114   21134886.9294
 -10283530.94948  -8001466.24543  22792693.6984   22792693.9764
 -14648100.58248 -11400321.18844  22222550.8864   22222550.3234
 04  7 17  1 14 29.9990000  0  9G28G 1G13G23G10G19G27G 3G 8
  -2244270.75847  -1729888.93442  24173555.8624   24173559.5074
 -14162923.69948 -11023066.06843  22682042.1754   22682042.2334
 -27150353.37949 -21144093.21247  20076847.4564   20076844.9484
 -15839455.08248 -12328932.36544  22556800.7144   22556798.5224
  -1340082.10246  -1029666.27842  24256278.7764   24256279.0384
  -9458579.93447  -7355343.78943  22901558.6054   22901557.8664
 -21311565.43749 -16593140.92746  21128171.6204   21128170.3554
 -10283692.33648  -8001592.01043  22792662.8314   22792663.6904
 -14718922.23848 -11455506.84944  22209073.5974   22209073.8904
 04  7 17  1 14 59.9990000  0  9G28G 1G13G23G10G19G27G 3G 8
  -2351932.31247  -1813780.67942  24153067.5814   24153071.9374
 -14087749.78148 -10964489.07743  22696346.3474   22696347.4214
 -27150668.82049 -21144339.02147  20076787.5114   20076784.5934
 -15759431.82048 -12266576.67244  22572029.1754   22572026.3974
  -1417358.08247  -1089881.32842  24241573.4014   24241574.2024
  -9526267.07047  -7408086.96043  22888678.4174   22888676.9014
 -21346718.99649 -16620533.29646  21121482.2694   21121481.3744
 -10283278.25848  -8001269.38843  22792742.1284   22792742.2694
 -14789587.75048 -11510570.83444  22195626.6754   22195626.6054
 04  7 17  1 15 29.9990000  0  9G28G 1G13G23G10G19G27G 3G 8
  -2459427.42647  -1897542.82742  24132612.0894   24132615.8904
 -14012281.65648 -10905682.84743  22710707.9954   22710708.5694
 -27150500.39549 -21144207.80147  20076819.3234   20076817.0894
 -15679116.08248 -12203993.08343  22587312.7454   22587309.8744
  -1494188.17646  -1149748.85342  24226952.5194   24226953.7804
  -9593593.64147  -7460549.15943  22875866.2924   22875865.2724
 -21381730.15249 -16647814.70446  21114819.8394   21114819.0424
 -10282287.87948  -8000497.68443  22792930.9564   22792930.7374
 -14860096.51648 -11565512.69044  22182209.3624   22182208.8234
 04  7 17  1 15 59.9990000  0  9G28G 1G13G23G10G19G27G 3G 8
  -2566751.82047  -1981171.91742  24112188.3944   24112192.6514
 -13936517.71548 -10846646.11743  22725125.5584   22725126.5344
 -27149844.72749 -21143696.89147  20076944.0114   20076941.8084
 -15598506.37548 -12141180.41644  22602651.8704   22602649.1204
  -1570567.70346  -1209265.38242  24212418.0344   24212419.6324
  -9660554.29747  -7512726.22144  22863123.7844   22863123.1904
 -21416596.39149 -16674983.18346  21108184.9644   21108183.7884
 -10280718.65648  -7999274.95943  22793229.1674   22793229.4054
 -14930446.38348 -11620330.71044  22168821.5814   22168822.3624
 04  7 17  1 16 29.9990000  0  9G28G 1G13G23G10G19G27G 3G 8
  -2673909.90647  -2064671.39042  24091796.8154   24091800.6794
 -13860464.95748 -10787384.31643  22739597.6674   22739598.9214
 -27148706.80149 -21142810.21247  20077160.8394   20077158.0974
 -15517609.66848 -12078144.10044  22618046.6754   22618043.6054
  -1646500.59046  -1268433.86842  24197968.7374   24197970.9094
  -9727152.35947  -7564620.75544  22850450.6124   22850449.7964
 -21451323.96549 -16702043.61446  21101576.5264   21101575.5934
 -10278576.29348  -7997605.61043  22793636.4254   22793637.4054
 -15000642.98048 -11675029.31244  22155463.3084   22155463.9094
 04  7 17  1 16 59.9990000  0  9G28G 1G13G23G10G19G27G 3G 8
  -2780896.14547  -2148037.02242  24071438.4174   24071442.1754
 -13784120.38347 -10727895.18143  22754125.7764   22754126.4294
 -27147081.91049 -21141544.07147  20077470.0424   20077467.7104
 -15436423.42648 -12014882.19643  22633495.7064   22633493.3434
  -1721980.56247  -1327249.43842  24183605.5894   24183607.1634
  -9793381.00847  -7616227.40243  22837847.9724   22837846.5504
 -21485908.66449 -16728992.71246  21094995.0114   21094994.3864
 -10275856.55948  -7995486.36843  22794153.5654   22794155.0344
 -15070682.25448 -11729605.33244  22142135.6364   22142135.4214
 04  7 17  1 17 29.9990000  0  9G28G 1G13G23G10G19G27G 3G 8
  -2887709.37547  -2231267.78842  24051111.5814   24051115.2024
 -13707485.99247 -10668180.16443  22768709.2304   22768709.6204
 -27144970.08649 -21139898.51947  20077871.7144   20077869.4834
 -15354949.96947 -11951396.49243  22648999.3624   22648997.4214
  -1797006.43747  -1385711.14242  24169328.8154   24169330.9444
  -9859238.36747  -7667544.79044  22825315.7454   22825314.8394
 -21520351.44149 -16755831.22446  21088440.8394   21088439.7454
 -10272560.23048  -7992917.84843  22794781.2224   22794782.1714
 -15140564.96548 -11784059.33344  22128837.4014   22128837.1944
 04  7 17  1 17 59.9990000  0  9G28G 1G13G23G10G19G27G 3G 8
  -2994351.81647  -2314365.57842  24030818.0344   24030821.8274
 -13630566.17648 -10608242.75143  22783346.6674   22783347.1594
 -27142374.03549 -21137875.64247  20078365.6984   20078363.0384
 -15273193.55948 -11887690.28643  22664557.4804   22664555.3194
  -1871579.54747  -1443820.04342  24155138.3474   24155140.2264
  -9924725.23847  -7718573.44644  22812853.8864   22812852.9684
 -21554655.86349 -16782561.92146  21081913.1124   21081911.9214
 -10268690.56248  -7989902.55543  22795517.7304   22795518.4254
 -15210294.55548 -11838394.03644  22115568.4874   22115568.4994
 04  7 17  1 18 29.9990000  0  9G28G 1G13G23G10G19G27G 3G 8
  -3100818.82047  -2397326.61142  24010558.1284   24010561.6834
 -13553359.28948 -10548081.67243  22798039.1514   22798039.1474
 -27139290.20349 -21135472.67747  20078952.6364   20078950.2064
 -15191152.93748 -11823762.65044  22680169.8864   22680166.6404
  -1945695.12146  -1501572.44342  24141034.8394   24141036.0814
  -9989836.09448  -7769309.12944  22800463.8394   22800462.8554
 -21588819.13749 -16809182.63846  21075412.1514   21075411.0584
 -10264244.67648  -7986438.27143  22796364.0814   22796364.6084
 -15279868.52748 -11892607.46644  22102328.7144   22102328.7334
 04  7 17  1 18 59.9990000  0  9G28G 1G13G23G10G19G27G 3G 8
  -3207107.46547  -2480148.60542  23990331.7454   23990335.2494
 -13475864.84848 -10487696.48443  22812785.6364   22812786.4014
 -27135716.57849 -21132688.05546  20079632.9804   20079630.5464
 -15108827.98048 -11759613.45143  22695835.5194   22695832.8234
  -2019349.77747  -1558965.62242  24127018.0734   24127019.1904
 -10054566.98047  -7819748.75343  22788146.3314   22788145.0894
 -21622839.80549 -16835692.23546  21068937.8704   21068937.0194
 -10259220.96147  -7982523.70043  22797319.2224   22797320.2184
 -15349285.09048 -11946698.25044  22089119.5264   22089119.4404
 04  7 17  1 19 29.9990000  0  9G28G 1G13G23G10G19G27G 3G 8
  -3313214.17647  -2562828.93342  23970140.4094   23970143.0114
 -13398081.80548 -10427086.46143  22827587.2694   22827588.7614
 -27131650.34049 -21129519.57547  20080406.4094   20080404.0894
 -15026217.87148 -11695242.05343  22711555.8154   22711553.1284
  -2092539.28947  -1615996.39342  24113090.7304   24113091.8154
 -10118913.07047  -7869888.51644  22775901.7614   22775899.8194
 -21656715.93749 -16862089.21346  21062491.7844   21062490.5034
 -10253617.26247  -7978157.25043  22798385.3554   22798387.0194
 -15418541.90248 -12000664.55144  22075940.0814   22075939.9684
 04  7 17  1 19 59.9990000  0  9G28G 1G13G23G10G19G27G 3G 8
  -3419137.98447  -2645366.68642  23949982.6984   23949986.6634
 -13320012.21548 -10366253.11843  22842443.4644   22842444.4804
 -27127091.48049 -21125967.23347  20081274.0034   20081272.1984
 -14943324.65648 -11630650.05443  22727329.8554   22727327.8154
  -2165262.48446  -1672663.79342  24099251.7454   24099252.6514
 -10182872.65648  -7919727.10144  22763730.1834   22763728.0304
 -21690448.32049 -16888374.18346  21056072.8784   21056071.7144
 -10247434.45747  -7973339.51842  22799561.3864   22799563.4214
 -15487639.96948 -12054507.16344  22062791.2694   22062790.9444
 04  7 17  1 20 29.9990000  0  9G28G 1G13G23G10G19G27G 3G 8
  -3524873.51647  -2727757.72842  23929862.3004   23929865.6364
 -13241653.46148 -10305194.45343  22857354.7534   22857355.7654
 -27122035.50049 -21122027.53747  20082236.3704   20082234.0464
 -14860145.94948 -11565835.58743  22743158.0584   22743155.8084
  -2237513.85247  -1728963.53642  24085502.8394   24085504.2654
 -10246439.53947  -7969259.68343  22751634.0424   22751632.0694
 -21724033.14149 -16914544.17246  21049681.6674   21049680.6474
 -10240668.81246  -7968067.57742  22800849.5894   22800851.0504
 -15556575.32048 -12108222.95444  22049673.1514   22049673.5934
 04  7 17  1 20 59.9990000  0  9G28G 1G13G23G10G19G27G 3G 8
  -3630424.43447  -2810004.92842  23909775.7144   23909779.2494
 -13163011.82848 -10243915.37843  22872319.9174   22872321.0224
 -27116487.19149 -21117704.20747  20083291.7454   20083289.9334
 -14776688.17248 -11500803.67643  22759039.6124   22759037.7614
  -2309296.36747  -1784897.96642  24071842.5654   24071843.8664
 -10309616.10247  -8018488.11843  22739611.8154   22739609.7574
 -21757475.80949 -16940603.38646  21043317.6364   21043316.6834
 -10233325.64547  -7962345.70643  22802246.3474   22802248.5974
 -15625353.68448 -12161816.45044  22036584.6754   22036585.0074
 04  7 17  1 21 29.9990000  0  9G28G 1G13G23G10G19G27G 3G 8
  -3735787.69147  -2892105.94342  23889725.8084   23889729.4134
 -13084086.89847 -10182415.55942  22887338.1444   22887339.7224
 -27110444.31649 -21112995.49747  20084441.9014   20084439.6554
 -14692951.27048 -11435554.23743  22774974.5034   22774972.3044
  -2380606.66847  -1840464.36742  24058273.2614   24058274.0894
 -10372398.29348  -8067409.28544  22727665.0734   22727662.5974
 -21790774.57449 -16966550.46646  21036981.2374   21036980.0854
 -10225403.43447  -7956172.59742  22803754.1594   22803756.2334
 -15693973.01649 -12215285.99844  22023527.1984   22023527.1714
 04  7 17  1 21 59.9990000  0  9G28G 1G13G23G10G19G27G 3G 8
  -3840960.08647  -2974058.15542  23869713.0114   23869715.2694
 -13004878.29347 -10120694.66242  22902411.2844   22902413.0854
 -27103904.68449 -21107899.71247  20085686.6054   20085684.2334
 -14608935.17248 -11370087.27843  22790962.3624   22790960.0934
  -2451441.17246  -1895660.08442  24044794.1984   24044794.4374
 -10434782.07848  -8116019.99443  22715793.1204   22715790.8944
 -21823928.08249 -16992384.37346  21030672.2064   21030671.3434
 -10216900.65647  -7949547.06742  22805372.6514   22805373.9374
 -15762431.98048 -12268630.61144  22010499.7144   22010500.1284
 04  7 17  1 22 29.9990000  0  9G28G 1G13G23G10G19G27G 3G 8
  -3945939.09047  -3055859.72942  23849734.5584   23849738.5694
 -12925386.16047 -10058752.89742  22917538.7534   22917540.5584
 -27096866.82049 -21102415.69647  20087025.8554   20087023.3234
 -14524640.09847 -11304402.93243  22807003.1444   22807000.9374
  -2521797.12947  -1950482.91342  24031406.0264   24031406.9094
 -10496763.84047  -8164317.41943  22703998.5344   22703995.5584
 -21856935.27049 -17018104.26346  21024391.3554   21024390.1594
 -10207816.44947  -7942468.53343  22807101.0344   22807102.4444
 -15830729.30148 -12321849.25944  21997503.1834   21997503.4764
 04  7 17  1 22 59.9990000  0  9G28G 1G13G23G10G19G27G 3G 8
  -4050726.24247  -3137511.79242  23829794.6444   23829797.2264
 -12845614.52047  -9996593.30142  22932718.4014   22932720.8704
 -27089333.05949 -21096545.25646  20088459.3394   20088457.2414
 -14440070.30147 -11238504.50043  22823096.1514   22823094.0624
  -2591675.30947  -2004933.42142  24018108.8704   24018110.4374
 -10558343.89547  -8212301.83043  22692279.9334   22692277.5624
 -21889798.96549 -17043712.34146  21018137.6514   21018136.4134
 -10198153.86347  -7934939.26642  22808939.9174   22808941.8004
 -15898867.80948 -12374944.14544  21984536.9014   21984537.3744
 04  7 17  1 23 29.9990000  0  9G28G 1G13G23G10G19G27G 3G 8
  -4155323.89147  -3219016.18642  23809890.4404   23809893.2224
 -12765568.65647  -9934220.01842  22947951.0034   22947952.9334
 -27081306.63349 -21090290.93047  20089986.8474   20089984.5854
 -14355231.18747 -11172396.23743  22839240.5034   22839238.3434
  -2661078.00847  -2059013.43442  24004901.8554   24004903.2224
 -10619523.87148  -8259974.51843  22680637.9094   22680635.5934
 -21922523.36349 -17069211.87946  21011910.2144   21011909.1124
 -10187917.19547  -7926962.70443  22810887.7064   22810889.8744
 -15966851.59848 -12427918.48344  21971599.7224   21971600.5504
 04  7 17  1 23 59.9990000  0  9G28G 1G13G23G10G19G27G 3G 8
  -4259726.51247  -3300368.62342  23790022.9174   23790026.1014
 -12685245.89147  -9871630.97642  22963236.2534   22963237.8044
 -27072783.18449 -21083649.30446  20091609.1364   20091606.2844
 -14270120.41447 -11106076.27243  22855436.8084   22855434.9804
  -2729999.54747  -2112718.45842  23991785.9254   23991787.6324
 -10680297.36347  -8307330.43443  22669072.6514   22669070.5854
 -21955104.35549 -17094599.66246  21005709.9804   21005709.2414
 -10177102.73047  -7918535.89542  22812946.4254   22812947.7024
 -16034676.55148 -12480769.04444  21958693.1204   21958693.3584
 04  7 17  1 24 29.9990000  0  9G28G 1G13G23G10G19G27G 3G 8
  -4363929.03947  -3381565.11242  23770193.7844   23770196.4524
 -12604643.57847  -9808824.11842  22978574.0654   22978575.8314
 -27063758.64549 -21076617.22346  20093326.3084   20093323.7574
 -14184735.37547 -11039542.60543  22871685.2764   22871683.0424
  -2798434.39846  -2166044.26942  23978762.4014   23978764.9954
 -10740658.03548  -8354364.68443  22657586.8084   22657584.6754
 -21987538.33649 -17119872.89646  20999538.1514   20999537.1984
 -10165706.87548  -7909656.03643  22815114.8624   22815115.9294
 -16102339.12548 -12533493.07044  21945817.3944   21945817.6634
 04  7 17  1 24 59.9990000  0  9G28G 1G13G23G10G19G27G 3G 8
  -4467933.28947  -3462607.11442  23750402.0264   23750405.2534
 -12523766.55947  -9745803.16742  22993964.5194   22993966.8154
 -27054235.95349 -21069196.98347  20095138.1594   20095136.0384
 -14099081.27047 -10972799.28843  22887984.7454   22887982.7534
  -2866383.98846  -2218991.98742  23965831.9404   23965833.6984
 -10800606.93748  -8401078.07343  22646178.4484   22646176.7924
 -22019828.85249 -17145034.33546  20993393.8624   20993392.5814
 -10153733.34047  -7900326.06043  22817393.7534   22817394.3744
 -16169842.79348 -12586093.29944  21932971.6834   21932971.9014
 04  7 17  1 25 29.9990000  0  9G28G 1G13G23G10G19G27G 3G 8
  -4571737.27347  -3543493.10642  23730648.1124   23730651.7654
 -12442615.30946  -9682568.58642  23009406.9254   23009409.7614
 -27044213.82049 -21061387.55046  20097045.6124   20097043.2844
 -14013158.66447 -10905846.71843  22904335.6594   22904333.0854
  -2933845.85947  -2271559.71542  23952995.1054   23952996.0074
 -10860140.89148  -8447468.12444  22634849.3234   22634847.7694
 -22051974.96149 -17170083.25446  20987276.5424   20987275.2574
 -10141181.81248  -7890545.64743  22819782.5194   22819782.9524
 -16237187.07048 -12638569.32244  21920156.3474   21920156.4294
 04  7 17  1 25 59.9990000  0  9G28G 1G13G23G10G19G27G 3G 8
  -4675339.15247  -3624221.59642  23710933.5814   23710936.4134
 -12361190.83246  -9619121.05942  23024901.9334   23024904.3784
 -27033691.52749 -21053188.39846  20099047.8314   20099045.3514
 -13926968.57447 -10838685.74343  22920737.1444   22920735.1594
  -3000818.05947  -2323745.78142  23940251.0584   23940250.7724
 -10919257.07048  -8493532.63844  22623599.9014   22623598.7414
 -22083976.48049 -17195019.49746  20981186.8394   20981185.4994
 -10128052.21148  -7880314.83743  22822280.8554   22822281.2884
 -16304370.81648 -12690920.25444  21907372.3784   21907372.5934
 04  7 17  1 26 29.9990000  0  9G28G 1G13G23G10G19G27G 3G 8
  -4778734.38347  -3704789.08142  23691257.7924   23691260.6444
 -12279491.30146  -9555459.24942  23040448.6984   23040451.1754
 -27022665.52049 -21044596.72047  20101145.9954   20101143.5154
 -13840509.73047 -10771315.33843  22937189.9644   22937187.8194
  -3067295.66047  -2375546.55842  23927600.7454   23927600.5194
 -10977950.31248  -8539267.60044  22612431.6904   22612429.5934
 -22115830.51649 -17219840.84146  20975124.9954   20975123.9094
 -10114341.87948  -7869631.49343  22824889.7454   22824890.0854
 -16371391.54748 -12743144.12544  21894618.2924   21894618.6164
 04  7 17  1 26 59.9990000  0  9G28G 1G13G23G10G19G27G 3G 8
  -4881927.25047  -3785198.85742  23671620.5584   23671623.3474
 -12197523.68046  -9491588.52142  23056046.9404   23056048.9254
 -27011141.19949 -21035616.76046  20103339.0344   20103336.6944
 -13753789.16847 -10703740.99143  22953691.8004   22953690.0384
  -3133282.72747  -2426965.12342  23915043.8704   23915044.7264
 -11036223.81648  -8584675.47644  22601342.4644   22601340.3354
 -22147542.58249 -17244551.54846  20969090.3554   20969089.3664
 -10100056.90248  -7858500.37543  22827608.2374   22827608.5734
 -16438255.14148 -12795245.59045  21881894.7144   21881894.8784
 04  7 17  1 27 29.9990000  0  9G28G 1G13G23G10G19G27G 3G 8
  -4984907.10247  -3865442.68142  23652024.1514   23652026.6634
 -12115280.30946  -9427502.90942  23071697.7144   23071699.2414
 -26999109.34849 -21026241.31746  20105628.5344   20105626.4954
 -13666799.46147 -10635956.92343  22970245.5194   22970243.7184
  -3198768.64847  -2477993.08442  23902581.9724   23902584.8124
 -11094066.18048  -8629747.41344  22590335.4954   22590333.5734
 -22179103.64849 -17269144.59046  20963084.6364   20963083.5034
 -10085188.69948  -7846914.80543  22830437.3474   22830437.4214
 -16504952.24648 -12847217.32444  21869202.5654   21869202.8084
 04  7 17  1 27 59.9990000  0  9G28G 1G13G23G10G19G27G 3G 8
  -5087675.97747  -3945522.13342  23632468.3084   23632470.4404
 -12032765.85947  -9363206.08842  23087399.6904   23087401.8944
 -26986572.67249 -21016472.50646  20108014.1124   20108011.7264
 -13579545.24647 -10567966.75843  22986850.1054   22986847.8704
  -3263754.86746  -2528631.69042  23890215.7454   23890217.6244
 -11151478.37148  -8674484.14344  22579410.2224   22579408.3084
 -22210516.95749 -17293622.48746  20957106.7694   20957106.0624
 -10069741.00448  -7834877.67943  22833377.2304   22833377.4174
 -16571485.85548 -12899061.64144  21856541.7064   21856541.4014
 04  7 17  1 28 29.9990000  0  9G28G 1G13G23G10G19G27G 3G 8
  -5190231.60247  -4025435.36542  23612952.3474   23612954.7144
 -11949980.94547  -9298698.48742  23103153.3084   23103155.2144
 -26973530.03149 -21006309.42646  20110496.1754   20110494.1714
 -13492027.21547 -10499770.99843  23003504.1444   23003501.8624
  -3328238.98446  -2578878.99642  23877943.7764   23877947.4914
 -11208457.18448  -8718883.15944  22568567.4254   22568565.1514
 -22241781.92649 -17317984.79346  20951157.4954   20951156.1244
 -10053713.44548  -7822388.74043  22836427.1514   22836426.5814
 -16637855.85549 -12950778.48344  21843911.5734   21843911.4174
 04  7 17  1 28 59.9990000  0  9G28G 1G13G23G10G19G27G 3G 8
  -5292573.22347  -4105181.87542  23593477.3154   23593479.4874
 -11866927.43447  -9233981.62142  23118958.0654   23118959.9334
 -26959981.65649 -20995752.28546  20113074.2224   20113072.0304
 -13404247.58247 -10431371.42443  23020208.2764   23020205.8824
  -3392220.08646  -2628734.37242  23865768.5974   23865770.7064
 -11265000.78948  -8762943.08244  22557807.5734   22557805.3084
 -22272899.03549 -17342231.89146  20945235.8784   20945234.7964
 -10037107.19548  -7809448.84843  22839587.1834   22839586.3784
 -16704062.28948 -13002367.87045  21831312.5894   21831313.0734
 04  7 17  1 29 29.9990000  0  9G28G 1G13G23G10G19G27G 3G 8
  -5394700.44147  -4184761.35742  23574042.6284   23574045.1124
 -11783607.60247  -9169057.21542  23134813.4874   23134815.1054
 -26945928.73049 -20984801.96846  20115748.5654   20115746.4294
 -13316208.89147 -10362769.96043  23036961.5894   23036959.3704
  -3455696.98047  -2678196.89742  23853690.2924   23853690.7764
 -11321108.12148  -8806663.03744  22547130.8784   22547128.4254
 -22303869.18749 -17366364.46146  20939342.5034   20939341.4644
 -10019923.69548  -7796059.15242  22842856.9094   22842857.0034
 -16770106.25048 -13053830.66244  21818745.3554   21818745.4564
 04  7 17  1 29 59.9990000  0  9G28G 1G13G23G10G19G27G 3G 8
  -5496612.73047  -4264173.34742  23554649.5814   23554652.1244
 -11700023.54347  -9103926.89943  23150719.1364   23150720.8194
 -26931371.06649 -20973458.35546  20118518.6754   20118516.5544
 -13227913.44547 -10293968.45743  23053763.5264   23053761.9994
  -3518669.08647  -2727266.03942  23841707.5584   23841706.5464
 -11376777.37148  -8850041.63444  22536537.3864   22536534.7374
 -22334693.19549 -17390383.15646  20933476.9804   20933475.7534
 -10002164.25448  -7782220.70342  22846236.2694   22846236.1554
 -16835988.39149 -13105167.35344  21806208.1904   21806208.5654
 04  7 17  1 30 29.9990000  0  9G28G 1G13G23G10G19G27G 3G 8
  -5598303.91447  -4343413.03442  23535297.4174   23535300.3704
 -11616172.30547  -9038588.43243  23166676.3554   23166677.6444
 -26916304.21149 -20961717.97646  20121385.8554   20121383.6674
 -13139358.27047 -10224964.53943  23070614.8394   23070613.3904
  -3581130.75047  -2775937.47442  23829821.2064   23829820.5114
 -11432002.07048  -8893073.85244  22526028.4404   22526025.8194
 -22365366.55949 -17414284.47746  20927639.9874   20927638.9014
  -9983825.02347  -7767930.42642  22849726.7694   22849726.0774
 -16901704.73048 -13156374.85144  21793703.1124   21793702.6634
 04  7 17  1 30 59.9990000  0  9G28G 1G13G23G10G19G27G 3G 8
  -5699776.80147  -4422482.64642  23515988.3704   23515990.3944
 -11532059.28147  -8973045.94942  23182681.7924   23182683.3974
 -26900732.05549 -20949583.85246  20124349.0654   20124347.0694
 -13050549.12947 -10155762.74043  23087515.8474   23087513.7574
  -3643084.12147  -2824212.83642  23818032.3084   23818032.1594
 -11486783.95348  -8935760.99544  22515603.7924   22515600.6514
 -22395893.32849 -17438071.56046  20921830.8474   20921829.6984
  -9964910.78947  -7753192.11242  22853326.2304   22853325.3354
 -16967259.06648 -13207456.10844  21781228.1364   21781227.8554
 04  7 17  1 31 29.9990000  0  9G28G 1G13G23G10G19G27G 3G 8
  -5801028.46547  -4501379.89642  23496720.8004   23496722.5934
 -11447684.30547  -8907299.34143  23198738.5734   23198739.7224
 -26884652.57049 -20937054.41747  20127409.0424   20127406.9484
 -12961485.85247 -10086362.89743  23104463.2694   23104461.4214
  -3704526.07846  -2872089.70442  23806339.6444   23806340.7844
 -11541119.11748  -8978100.03344  22505263.7614   22505260.9724
 -22426271.85249 -17461743.12346  20916049.9404   20916048.9014
  -9945420.22347  -7738004.75542  22857034.9014   22857034.6084
 -17032649.53549 -13258409.68044  21768785.0584   21768784.5854
 04  7 17  1 31 59.9990000  0  9G28G 1G13G23G10G19G27G 3G 8
  -5902057.03947  -4580103.28242  23477495.4804   23477497.5154
 -11363048.41847  -8841349.46143  23214843.7924   23214845.9834
 -26868065.12149 -20924129.14846  20130565.6124   20130563.8664
 -12872169.77747 -10016766.12343  23121459.6364   23121458.3864
  -3765454.92646  -2919566.72642  23794744.8004   23794746.9644
 -11595004.96948  -9020088.98344  22495009.9174   22495007.0224
 -22456501.71149 -17485298.84446  20910297.0194   20910296.0114
  -9925353.52047  -7722368.42643  22860853.1364   22860853.6204
 -17097876.08648 -13309235.51844  21756372.6124   21756371.9484
 04  7 17  1 32 29.9990000  0  9G28G 1G13G23G10G19G27G 3G 8
  -6002860.27747  -4658651.12642  23458312.7374   23458314.7924
 -11278151.92647  -8775196.49642  23230999.4404   23231001.2414
 -26850968.47749 -20910807.11847  20133819.0344   20133816.8474
 -12782601.34847  -9946972.66142  23138504.6754   23138502.4564
  -3825868.00846  -2966641.82742  23783248.3314   23783251.3154
 -11648438.06648  -9061725.14244  22484841.3864   22484839.2844
 -22486581.64549 -17508737.75446  20904573.3704   20904572.3394
  -9904710.46547  -7706283.00742  22864781.4484   22864782.2104
 -17162936.98049 -13359932.27744  21743991.8784   21743991.0694
 04  7 17  1 32 59.9990000  0  9G28G 1G13G23G10G19G27G 3G 8
  -6103436.77047  -4737022.26642  23439173.7534   23439175.4484
 -11192996.10247  -8708841.45543  23247203.6594   23247205.7064
 -26833362.52049 -20897088.21046  20137169.3004   20137167.3864
 -12692781.94146  -9876983.65843  23155596.3394   23155594.8124
  -3885763.63347  -3013313.74042  23771851.2614   23771853.1874
 -11701416.28948  -9103006.83544  22474760.3554   22474757.9174
 -22516511.75449 -17532059.90146  20898877.5194   20898876.7104
  -9883492.06247  -7689749.28142  22868818.8864   22868820.4094
 -17227832.44549 -13410500.12044  21731642.6904   21731641.8274
 04  7 17  1 33 29.9990000  0  9G28G 1G13G23G10G19G27G 3G 8
  -6203785.64847  -4815216.08042  23420078.1594   23420079.9954
 -11107582.64547  -8642285.65943  23263457.2374   23263459.0854
 -26815247.60549 -20882972.71147  20140616.7844   20140614.4524
 -12602713.64547  -9806800.72643  23172735.5034   23172734.6404
  -3945140.44546  -3059581.40442  23760552.4724   23760553.9094
 -11753937.79348  -9143932.64944  22464765.4484   22464762.8744
 -22546292.28949 -17555265.50246  20893210.7534   20893209.5854
  -9861699.11347  -7672767.82343  22872966.4254   22872967.8584
 -17292562.76649 -13460939.29145  21719324.8704   21719324.7844
 04  7 17  1 33 59.9990000  0  9G28G 1G13G23G10G19G27G 3G 8
  -6303901.52746  -4893228.29642  23401026.2534   23401028.1014
 -11021909.25847  -8575527.32442  23279761.0424   23279762.7064
 -26796619.46549 -20868457.30147  20144161.4484   20144159.0264
 -12512394.37946  -9736422.20942  23189922.6674   23189922.3004
  -4003993.35946  -3105440.85942  23749353.1054   23749354.0154
 -11805996.55548  -9184497.87644  22454859.0504   22454856.2264
 -22575919.30149 -17578351.47846  20887572.9564   20887571.4644
  -9839328.48047  -7655336.26142  22877223.4874   22877224.8394
 -17357124.52749 -13511247.10844  21707039.1904   21707038.9914
 04  7 17  1 34 29.9990000  0  9G28G 1G13G23G10G19G27G 3G 8
  -6403785.28547  -4971059.64842  23382018.6284   23382020.4254
 -10935979.57047  -8508569.29342  23296112.6204   23296114.8274
 -26777480.41449 -20853543.78946  20147803.2844   20147801.1204
 -12421827.72747  -9665850.94542  23207157.3084   23207156.2534
  -4062323.23847  -3150892.75842  23738253.0974   23738253.7844
 -11857592.89548  -9224702.78144  22445040.5424   22445037.9484
 -22605394.77749 -17601319.37846  20881964.0734   20881962.5694
  -9816383.19947  -7637456.89443  22881589.3864   22881591.7764
 -17421519.54748 -13561425.00345  21694784.7764   21694784.9874
 04  7 17  1 34 59.9990000  0  9G28G 1G13G23G10G19G27G 3G 8
  -6503435.48846  -5048709.03642  23363055.6754   23363057.3824
 -10849794.87547  -8441412.55042  23312512.8554   23312514.8124
 -26757830.19149 -20838231.94946  20151543.0424   20151540.5654
 -12331015.27346  -9595088.14943  23224438.0424   23224437.6474
  -4120128.43046  -3195935.79342  23727252.7764   23727254.0034
 -11908724.32848  -9264545.43144  22435310.3704   22435307.6514
 -22634718.55949 -17624169.07346  20876383.7534   20876382.8514
  -9792863.71547  -7619130.11743  22886065.5424   22886067.2614
 -17485747.63349 -13611472.81945  21682563.0894   21682562.5304
 04  7 17  1 35 29.9990000  0  9G28G 1G13G23G10G19G27G 3G 8
  -6602851.09446  -5126175.60442  23344137.5114   23344139.8194
 -10763356.96547  -8374058.45842  23328962.4014   23328963.9564
 -26737668.65249 -20822521.68546  20155379.1514   20155377.3744
 -12239958.95747  -9524135.33343  23241765.7614   23241764.9764
  -4177407.80547  -3240569.14142  23716353.1204   23716354.6014
 -11959388.87948  -9304024.29044  22425669.3314   22425666.5304
 -22663891.09449 -17646900.92846  20870832.4014   20870831.1514
  -9768771.28147  -7600356.86143  22890649.9484   22890652.0544
 -17549808.88748 -13661390.64244  21670372.1674   21670372.1754
 04  7 17  1 35 59.9990000  0  9G28G 1G13G23G10G19G27G 3G 8
  -6702030.29746  -5203457.96342  23325264.5654   23325266.5264
 -10676666.86747  -8306507.88442  23345458.8394   23345459.9954
 -26716995.53149 -20806412.78146  20159313.2534   20159311.0464
 -12148659.89847  -9452993.32343  23259139.3624   23259138.8434
  -4234159.49247  -3284791.23642  23705553.2844   23705555.7454
 -12009583.88348  -9343137.24844  22416117.6204   22416114.9484
 -22692911.55949 -17669514.28846  20865310.1444   20865308.5894
  -9744106.13747  -7581137.32743  22895343.6204   22895345.5544
 -17613702.87549 -13711178.13145  21658213.4954   21658212.8944
 04  7 17  1 36 29.9990000  0  9G28G 1G13G23G10G19G27G 3G 8
  -6800973.15646  -5280556.19342  23306436.6834   23306438.5814
 -10589727.24247  -8238762.86742  23362002.9484   23362004.4134
 -26695812.14149 -20789906.26446  20163344.2844   20163342.3704
 -12057120.97347  -9381664.45443  23276559.2534   23276557.6244
  -4290383.42247  -3328602.12342  23694854.5344   23694856.0814
 -12059308.86748  -9381883.94744  22406655.1204   22406652.5114
 -22721781.01249 -17692009.98146  20859816.6284   20859815.1404
  -9718870.69947  -7561473.46843  22900145.6674   22900147.7454
 -17677430.98848 -13760836.35745  21646086.5114   21646086.2024
 04  7 17  1 36 59.9990000  0  9G28G 1G13G23G10G19G27G 3G 8
  -6899674.41846  -5357466.13942  23287654.2064   23287656.3044
 -10502535.83247  -8170821.64642  23378594.9174   23378596.2964
 -26674114.11749 -20772998.74346  20167473.6904   20167471.5934
 -11965339.87147  -9310146.84543  23294024.4954   23294024.3904
  -4346074.24648  -3371997.57242  23684257.1674   23684258.5974
 -12108557.71548  -9420259.66344  22397283.5974   22397281.0304
 -22750495.68049 -17714385.05446  20854352.2144   20854350.8624
  -9693061.66847  -7541362.57543  22905057.4564   22905059.2224
 -17740988.88748 -13810361.94945  21633991.8704   21633991.5624
 04  7 17  1 37 29.9990000  0  9G28G 1G13G23G10G19G27G 3G 8
  -6998134.76246  -5434188.36942  23268917.1054   23268919.7374
 -10415096.18046  -8102687.01442  23395233.6364   23395235.6084
 -26651903.82049 -20755692.04347  20171700.1364   20171697.9054
 -11873320.23447  -9238443.37243  23311535.5894   23311534.2694
  -4401232.76648  -3414978.27542  23673761.0344   23673762.3864
 -12157330.51648  -9458264.41644  22388002.4174   22388000.3004
 -22779057.43049 -17736640.97346  20848917.0894   20848915.5694
  -9666682.30147  -7520807.28843  22910077.7144   22910079.2414
 -17804379.09048 -13859756.89045  21621928.7924   21621928.3084
 04  7 17  1 37 59.9990000  0  9G28G 1G13G23G10G19G27G 3G 8
  -7096355.74647  -5510724.09942  23250226.6594   23250227.6324
 -10327412.34847  -8034362.10142  23411919.9484   23411921.3554
 -26629183.98049 -20737988.29246  20176023.5894   20176021.3944
 -11781066.66847  -9166557.62443  23329091.2064   23329089.5424
  -4455860.40647  -3457545.26742  23663366.0034   23663366.9404
 -12205627.71948  -9495898.56344  22378811.6364   22378809.1754
 -22807468.83649 -17758779.74846  20843510.3704   20843509.6284
  -9639735.71147  -7499809.99443  22915205.7924   22915206.5504
 -17867603.60948 -13909022.72245  21609897.6834   21609897.3274
 04  7 17  1 38 29.9990000  0  9G28G 1G13G23G10G19G27G 3G 8
  -7194329.94147  -5587067.49042  23231582.4954   23231584.6594
 -10239479.87946  -7965843.51442  23428652.7534   23428655.1514
 -26605948.05149 -20719882.41146  20180445.0424   20180442.8944
 -11688574.80147  -9094486.20043  23346692.1904   23346690.5774
  -4509949.74647  -3499692.81542  23653073.0194   23653073.9994
 -12253441.45348  -9533155.97244  22369713.2534   22369710.4334
 -22835723.73449 -17780796.57946  20838133.9644   20838132.4874
  -9612217.00847  -7478366.89243  22920442.1204   22920442.8004
 -17930656.61748 -13958154.88545  21597898.8234   21597898.8624
 04  7 17  1 38 59.9990000  0  9G28G 1G13G23G10G19G27G 3G 8
  -7292056.09047  -5663217.59942  23212985.7534   23212987.3154
 -10151300.16446  -7897132.21542  23445432.6984   23445435.8904
 -26582196.68049 -20701374.87246  20184964.6754   20184962.7764
 -11595846.11347  -9022230.20743  23364337.1834   23364336.4564
  -4563499.34847  -3541419.77542  23642882.4334   23642883.0304
 -12300769.53948  -9570034.98244  22360706.4724   22360704.4094
 -22863821.90649 -17802691.30246  20832787.1124   20832786.0114
  -9584127.26247  -7456478.83543  22925788.0654   22925788.3474
 -17993538.17248 -14007153.46745  21585932.6754   21585933.0224
 04  7 17  1 39 29.9990000  0  9G28G 1G13G23G10G19G27G 3G 8
  -7389532.89847  -5739173.43642  23194436.1124   23194438.0304
 -10062874.57846  -7828229.31342  23462260.4484   23462263.0544
 -26557929.35949 -20682465.30647  20189582.7224   20189580.7764
 -11502882.00447  -8949790.82143  23382027.9874   23382026.7334
  -4616507.84447  -3582725.07042  23632795.3554   23632796.1944
 -12347609.86348  -9606533.89844  22351793.3624   22351791.0544
 -22891763.11349 -17824463.71046  20827470.0264   20827468.6164
  -9555467.23847  -7434146.39943  22931241.9644   22931241.9054
 -18056247.78548 -14056018.06545  21574000.2304   21573999.6474
 04  7 17  1 39 59.9990000  0  9G28G 1G13G23G10G19G27G 3G 8
  -7486755.41047  -5814931.09542  23175935.1594   23175936.9834
  -9974201.39146  -7759133.49342  23479134.4804   23479136.9484
 -26533142.73849 -20663151.07646  20194299.5424   20194297.3784
 -11409680.94947  -8877166.78143  23399763.9334   23399762.9374
  -4668970.80947  -3623605.30542  23622812.0194   23622813.5384
 -12393957.09848  -9642648.58644  22342973.3624   22342971.1284
 -22919543.57449 -17846110.87346  20822183.7454   20822182.2414
  -9526234.35247  -7411367.59643  22936804.8944   22936804.7264
 -18118781.94948 -14104745.95945  21562100.0114   21562099.8514
 04  7 17  1 40 29.9990000  0  9G28G 1G13G23G10G19G27G 3G 8
  -7583732.09847  -5890497.23242  23157481.1834   23157482.9334
  -9885291.51246  -7689853.23742  23496053.4954   23496056.1984
 -26507846.48049 -20643439.74546  20199113.4334   20199111.1054
 -11316254.05547  -8804366.76043  23417542.7924   23417541.8004
  -4720896.39848  -3664066.78042  23612931.0344   23612932.1984
 -12439818.53548  -9678384.76244  22334246.7304   22334244.3474
 -22947172.86349 -17867640.23946  20816926.0814   20816924.6634
  -9496439.52347  -7388150.89643  22942474.2224   22942474.1874
 -18181149.99648 -14153344.41245  21550231.5654   21550231.5194
 04  7 17  1 40 59.9990000  0  9G28G 1G13G23G10G19G27G 3G 8
  -7680456.21147  -5965866.53042  23139075.2844   23139076.4804
  -9796141.06246  -7620385.49642  23513018.2614   23513020.6124
 -26482035.37149 -20623327.21746  20204025.0974   20204022.7334
 -11222597.48847  -8731387.78143  23435365.2224   23435364.2804
  -4772277.81248  -3704104.29442  23603153.7064   23603154.5544
 -12485186.90648  -9713736.68844  22325613.0894   22325610.6674
 -22974645.18749 -17889047.27946  20811698.4484   20811697.1904
  -9466078.04747  -7364492.64143  22948251.7304   22948252.3744
 -18243346.57848 -14201809.27445  21538396.4644   21538396.1834
 04  7 17  1 41 29.9990000  0  9G28G 1G13G23G10G19G27G 3G 8
  -7776926.49248  -6041038.09342  23120717.7374   23120719.1904
  -9706751.42246  -7550731.43342  23530027.8004   23530031.5304
 -26455709.27349 -20602813.40946  20209034.6204   20209032.4834
 -11128712.84047  -8658231.05843  23453230.5344   23453229.3944
  -4823113.82847  -3743716.75042  23593479.8624   23593480.5974
 -12530060.14848  -9748702.83344  22317074.1204   22317071.5734
 -23001960.32049 -17910331.85246  20806500.5034   20806499.1984
  -9435151.00048  -7340393.70243  22954138.0504   22954137.6554
 -18305371.36748 -14250140.26745  21526593.4804   21526592.9484
 04  7 17  1 41 59.9990000  0  9G28G 1G13G23G10G19G27G 3G 8
  -7873143.62148  -6116012.33542  23102408.3084   23102409.4994
  -9617126.26247  -7480893.85242  23547084.2144   23547086.8274
 -26428870.55949 -20581900.16446  20214142.0814   20214139.8944
 -11034603.76647  -8584899.44343  23471139.6444   23471137.7924
  -4873405.38747  -3782904.94442  23583909.4254   23583910.7694
 -12574438.50848  -9783283.37944  22308629.0424   22308626.6364
 -23029120.14149 -17931495.38446  20801332.0584   20801331.1714
  -9403661.57047  -7315856.53243  22960129.8314   22960129.7764
 -18367226.27748 -14298338.89645  21514822.5894   21514822.1014
 04  7 17  1 42 29.9990000  0  9G28G 1G13G23G10G19G27G 3G 8
  -7969101.78948  -6190784.80842  23084147.7064   23084149.0694
  -9527262.57446  -7410870.41242  23564183.7764   23564187.3944
 -26401514.56649 -20560583.84546  20219347.8004   20219345.6014
 -10940267.41847  -8511390.73142  23489090.1054   23489089.7144
  -4923146.74247  -3821664.44242  23574444.1124   23574445.4804
 -12618315.37548  -9817473.11344  22300279.0654   22300276.6084
 -23056119.73449 -17952534.06546  20796194.4014   20796193.2024
  -9371606.19548  -7290878.34443  22966229.9644   22966229.7884
 -18428906.73848 -14346401.59845  21503085.3554   21503084.9484
 04  7 17  1 42 59.9990000  0  9G28G 1G13G23G10G19G27G 3G 8
  -8064803.50047  -6265357.44142  23065935.7454   23065937.3004
  -9437165.50047  -7340665.05142  23581329.9254   23581332.6754
 -26373644.97749 -20538867.31546  20224651.2694   20224649.2224
 -10845709.40247  -8437709.34842  23507084.7924   23507083.5774
  -4972340.32047  -3859997.11642  23565082.7144   23565084.2654
 -12661692.66848  -9851273.59344  22292025.6674   22292022.8824
 -23082962.63749 -17973450.63446  20791086.5504   20791085.3084
  -9338989.43047  -7265462.70543  22972436.7694   22972436.0774
 -18490415.98448 -14394330.88945  21491380.4254   21491380.3974
 04  7 17  1 43 29.9990000  0  9G28G 1G13G23G10G19G27G 3G 8
  -8160245.62947  -6339727.78442  23047773.6444   23047775.1834
  -9346834.63747  -7270277.60942  23598519.6364   23598522.1014
 -26345259.82049 -20516749.04746  20230052.5974   20230050.3124
 -10750929.52347  -8363855.06142  23525120.7764   23525119.7804
  -5020983.11747  -3897900.57742  23555826.6054   23555827.8624
 -12704566.57048  -9884681.85944  22283866.6674   22283864.4134
 -23109646.80949 -17994243.52946  20786008.4484   20786007.1404
  -9305810.73047  -7239609.21843  22978749.9724   22978749.9834
 -18551752.28548 -14442125.40245  21479708.9484   21479708.9014
 04  7 17  1 43 59.9990000  0  9G28G 1G13G23G10G19G27G 3G 8
  -8255427.86348  -6413895.64642  23029661.4174   23029662.3784
  -9256272.43047  -7199709.83542  23615753.3474   23615755.9994
 -26316360.63749 -20494230.23746  20235551.7064   20235549.9214
 -10655930.09847  -8289829.67142  23543198.8234   23543197.8824
  -5069074.78547  -3935374.59942  23546674.9644   23546675.9804
 -12746936.07848  -9917697.04444  22275803.4724   22275801.4054
 -23136172.71949 -18014913.07746  20780960.5894   20780959.7654
  -9272072.17647  -7213319.48143  22985170.3784   22985170.6054
 -18612916.16048 -14489785.56745  21468069.4094   21468069.1594
 04  7 17  1 44 29.9990000  0  9G28G 1G13G23G10G19G27G 3G 8
  -8350347.14148  -6487858.61243  23011598.8474   23011599.6124
  -9165478.84447  -7128961.75442  23633031.0264   23633033.3514
 -26286945.82849 -20471309.64846  20241149.3624   20241147.4804
 -10560710.99247  -8215633.11842  23561318.4404   23561317.7454
  -5116612.60547  -3972417.08442  23537628.6444   23537630.0544
 -12788797.33248  -9950316.18244  22267837.9954   22267835.5894
 -23162538.45349 -18035457.81546  20775943.3624   20775942.5114
  -9237773.22747  -7186593.08442  22991697.2064   22991697.6674
 -18673905.69549 -14537309.87045  21456463.7144   21456463.1874
 04  7 17  1 44 59.9990000  0  9G28G 1G13G23G10G19G27G 3G 8
  -8445003.98848  -6561617.05543  22993585.9174   22993586.8354
  -9074457.30546  -7058036.10642  23650352.0654   23650354.5464
 -26257017.03149 -20447988.56146  20246844.5504   20246842.4684
 -10465276.07846  -8141268.42342  23579479.8554   23579478.7964
  -5163597.48047  -4009028.65942  23528688.0114   23528688.7064
 -12830150.73048  -9982539.59144  22259968.2374   22259966.1364
 -23188745.64849 -18055879.02746  20770956.3784   20770955.4994
  -9202916.69547  -7159432.18542  22998330.0504   22998330.2104
 -18734722.75048 -14584699.77045  21444890.4094   21444890.1984
 04  7 17  1 45 29.9990000  0  9G28G 1G13G23G10G19G27G 3G 8
  -8539396.99648  -6635169.92143  22975623.7694   22975624.9684
  -8983208.96946  -6986933.72342  23667715.9404   23667719.1554
 -26226574.46149 -20424267.12346  20252637.5504   20252636.0544
 -10369626.32846  -8066736.33142  23597680.9254   23597680.4564
  -5210027.92647  -4045208.19142  23519851.9174   23519853.5854
 -12870993.75848 -10014365.31144  22252196.3624   22252194.3044
 -23214793.53549 -18076176.09246  20765999.9174   20765998.9604
  -9167503.52047  -7131837.58142  23005069.2454   23005069.2964
 -18795366.53548 -14631954.64645  21433350.3004   21433350.1084
 04  7 17  1 45 59.9990000  0  9G28G 1G13G23G10G19G27G 3G 8
  -8633523.27348  -6708514.92843  22957711.7844   22957713.5224
  -8891733.60246  -6915654.43842  23685123.3624   23685126.6124
 -26195616.92649 -20400144.40846  20258528.8554   20258526.8974
 -10273762.11747  -7992037.11042  23615923.4404   23615922.8434
  -5255901.07447  -4080953.48142  23511122.9174   23511124.6514
 -12911323.04348 -10045790.68844  22244521.6124   22244519.9994
 -23240680.16849 -18096347.50446  20761073.5264   20761072.4724
  -9131533.19947  -7103808.79342  23011913.5114   23011914.4444
 -18855835.03148 -14679072.91145  21421843.3784   21421843.1054
 04  7 17  1 46 29.9990000  0  9G28G 1G13G23G10G19G27G 3G 8
  -8727378.74648  -6781648.95543  22939851.8704   22939852.7414
  -8800029.98046  -6844197.27742  23702574.3314   23702577.4724
 -26164141.19949 -20375617.91346  20264518.5894   20264516.5464
 -10177682.27347  -7917169.93042  23634207.1514   23634205.8584
  -5301212.98447  -4116261.40742  23502500.4874   23502502.3904
 -12951134.20348 -10076812.35244  22236946.0344   22236944.1794
 -23266402.51649 -18116390.90946  20756178.8474   20756178.1754
  -9095004.30547  -7075344.80042  23018864.2764   23018865.4644
 -18916125.73048 -14726052.64745  21410370.3474   21410369.8234
 04  7 17  1 46 59.9990000  0  9G28G 1G13G23G10G19G27G 3G 8
  -8820966.83248  -6854574.60243  22922042.3314   22922044.1324
  -8708104.27346  -6772567.06742  23720067.1984   23720070.3124
 -26132152.46949 -20350691.67646  20270605.8084   20270603.8744
 -10081392.82447  -7842139.35443  23652530.3864   23652529.6754
  -5345967.60547  -4151135.09942  23493983.5584   23493985.7964
 -12990429.85548 -10107432.31544  22229468.1834   22229466.5264
 -23291964.90649 -18136309.66846  20751314.4094   20751313.5654
  -9057922.64847  -7046450.05842  23025920.9644   23025921.7764
 -18976242.52049 -14772896.85145  21398930.5504   21398930.2224
 04  7 17  1 47 29.9990000  0  9G28G 1G13G23G10G19G27G 3G 8
  -8914283.53948  -6927288.75443  22904284.6834   22904286.0464
  -8615955.19946  -6700762.79742  23737603.2454   23737605.7614
 -26099648.18749 -20325363.69246  20276791.4484   20276789.2654
  -9984892.83247  -7766944.73843  23670893.6444   23670893.4054
  -5390160.99247  -4185571.40542  23485574.5424   23485575.6014
 -13029205.44148 -10137647.02644  22222089.4644   22222087.4134
 -23317363.96549 -18156101.14446  20746481.1444   20746480.2574
  -9020286.65247  -7017123.37142  23033083.4014   23033083.7024
 -19036182.56648 -14819603.31745  21387524.5194   21387524.1284
 04  7 17  1 47 59.9990000  0  9G28G 1G13G23G10G19G27G 3G 8
  -9007327.42648  -6999790.38843  22886578.7614   22886579.4094
  -8523584.29746  -6628785.70142  23755180.9334   23755183.4914
 -26066628.41849 -20299634.03046  20283074.7064   20283072.6444
  -9888183.79747  -7691587.20142  23689297.7224   23689296.4524
  -5433791.98447  -4219569.49242  23477271.4954   23477272.3004
 -13067458.87948 -10167454.89444  22214810.2224   22214808.1054
 -23342599.35248 -18175765.07846  20741679.1054   20741678.1084
  -8982097.50847  -6987365.65342  23040349.8154   23040350.5774
 -19095945.78949 -14866172.01845  21376151.7374   21376151.2804
 04  7 17  1 48 29.9990000  0  9G28G 1G13G23G10G19G27G 3G 8
  -9100104.19148  -7072083.84543  22868924.3624   22868924.8194
  -8430999.93746  -6556642.25542  23772798.6754   23772801.9294
 -26033100.04748 -20273508.06246  20289454.8864   20289452.9334
  -9791274.10247  -7616073.30842  23707738.5344   23707738.3084
  -5476866.21947  -4253133.78142  23469073.6834   23469075.6514
 -13105195.30548 -10196859.89844  22207629.3004   22207627.0504
 -23367677.50048 -18195306.50346  20736906.8704   20736906.0624
  -8943363.14547  -6957183.13542  23047721.3084   23047721.7844
 -19155538.26248 -14912607.65845  21364811.2614   21364810.9804
 04  7 17  1 48 59.9990000  0  9G28G 1G13G23G10G19G27G 3G 8
  -9192606.78548  -7144163.62743  22851321.4874   22851322.1904
  -8338197.86346  -6484329.15642  23790458.5734   23790461.7884
 -25999057.67249 -20246981.56046  20295933.1124   20295931.0224
  -9694159.77047  -7540399.98442  23726218.5034   23726218.8274
  -5519376.97747  -4286258.96442  23460984.4174   23460985.3974
 -13142407.28948 -10225856.25144  22200548.1124   22200545.8624
 -23392592.21149 -18214720.56046  20732165.8474   20732164.7374
  -8904079.07448  -6926572.26242  23055197.9094   23055198.2454
 -19214953.67649 -14958905.31945  21353504.9724   21353504.6244
 04  7 17  1 49 29.9990000  0  9G28G 1G13G23G10G19G27G 3G 8
  -9284839.21148  -7216032.92743  22833769.4804   22833770.7454
  -8245184.86746  -6411851.70042  23808157.4804   23808161.4684
 -25964506.86749 -20220058.88146  20302507.9094   20302505.9954
  -9596847.57447  -7464572.50142  23744736.9644   23744736.6284
  -5561328.52047  -4318948.40242  23453001.2534   23453003.0194
 -13179098.24648 -10254446.59744  22193565.8474   22193563.4214
 -23417348.46549 -18234011.13346  20727454.7304   20727453.5774
  -8864251.73848  -6895538.06043  23062776.2304   23062776.5934
 -19274197.32449 -15005069.14845  21342231.5194   21342230.8434
 04  7 17  1 49 59.9990000  0  9G28G 1G13G23G10G19G27G 3G 8
  -9376795.23448  -7287686.81943  22816270.9174   22816272.2884
  -8151957.35246  -6339207.08642  23825898.3234   23825902.4254
 -25929443.06649 -20192736.47346  20309180.1904   20309178.3274
  -9499334.30947  -7388588.33742  23763293.7374   23763292.6124
  -5602715.13347  -4351197.64042  23445125.9254   23445127.9014
 -13215261.32848 -10282625.60944  22186684.7224   22186681.9834
 -23441940.46949 -18253173.69846  20722775.0194   20722773.6284
  -8823877.53548  -6864077.71242  23070459.5974   23070460.2024
 -19333264.19149 -15051095.22845  21330991.4644   21330990.8234
 04  7 17  1 50 29.9990000  0  9G28G 1G13G23G10G19G27G 3G 8
  -9468475.17648  -7359125.63243  22798824.5584   22798825.3584
  -8058518.56646  -6266397.85442  23843679.9954   23843682.8864
 -25893868.13749 -20165015.78646  20315949.8944   20315948.1904
  -9401623.10547  -7312449.94242  23781886.6834   23781886.6874
  -5643537.41847  -4383007.15942  23437357.6594   23437359.0854
 -13250896.58648 -10310393.33244  22179903.0734   22179900.7334
 -23466369.71549 -18272209.43346  20718126.4094   20718124.9804
  -8782959.31648  -6832193.49042  23078246.9804   23078246.1594
 -19392155.18449 -15096984.25745  21319784.5584   21319783.9404
 04  7 17  1 50 59.9990000  0  9G28G 1G13G23G10G19G27G 3G 8
  -9559877.49648  -7430348.10343  22781431.1204   22781432.0464
  -7964869.62946  -6193424.87942  23861500.5034   23861504.6284
 -25857781.46949 -20136896.34946  20322817.3394   20322814.9294
  -9303715.31247  -7236158.32242  23800518.2374   23800518.1124
  -5683793.80547  -4414375.68342  23429696.8234   23429698.9094
 -13286001.86748 -10337748.08244  22173222.4484   22173220.1754
 -23490635.14849 -18291117.54046  20713509.0584   20713507.3234
  -8741498.15247  -6799886.15942  23086135.4174   23086136.1284
 -19450869.75448 -15142735.79745  21308611.7454   21308611.2184
 04  7 17  1 51 29.9990000  0  9G28G 1G13G23G10G19G27G 3G 8
  -9650999.32048  -7501351.97943  22764091.3944   22764092.0934
  -7871010.40246  -6120287.99042  23879362.4484   23879365.5814
 -25821181.88748 -20108377.23246  20329781.6754   20329779.8624
  -9205610.85947  -7159713.50042  23819186.8624   23819187.2144
  -5723481.88747  -4445301.42442  23422144.4014   23422145.1714
 -13320573.64148 -10364687.10244  22166644.0974   22166641.4054
 -23514734.62548 -18309896.31546  20708923.0654   20708921.3514
  -8699493.42247  -6767155.27242  23094129.5034   23094130.2104
 -19509405.69149 -15188348.14845  21297472.6124   21297471.5584
 04  7 17  1 51 59.9990000  0  9G28G 1G13G23G10G19G27G 3G 8
  -9741838.16048  -7572135.35943  22746804.8474   22746806.4014
  -7776941.30946  -6046987.58342  23897263.2844   23897266.6594
 -25784068.77749 -20079457.96846  20336844.2144   20336842.3704
  -9107310.30945  -7083115.85942  23837892.9174   23837893.0264
  -5762599.73447  -4475782.80042  23414701.1364   23414701.1674
 -13354609.23848 -10391208.32844  22160167.1754   22160164.8584
 -23538666.69148 -18328544.67246  20704368.8394   20704367.1714
  -8656945.75047  -6734001.31342  23102225.8004   23102226.5344
 -19567761.50449 -15233820.14345  21286367.8004   21286367.4134
 04  7 17  1 52 29.9990000  0  9G28G 1G13G23G10G19G27G 3G 8
  -9832392.86348  -7642697.34243  22729573.2534   22729574.1794
  -7682663.91046  -5973524.90642  23915201.9954   23915207.1364
 -25746442.91848 -20050139.14046  20344004.0814   20344002.5974
  -9008815.34846  -7006366.74842  23856636.5114   23856637.0854
  -5801146.43747  -4505819.20442  23407365.7844   23407365.8314
 -13388106.87548 -10417310.35344  22153793.1284   22153790.7304
 -23562430.96948 -18347062.29846  20699846.7534   20699844.9994
  -8613856.18747  -6700425.08942  23110425.8004   23110426.0224
 -19625936.68449 -15279151.38745  21275297.4644   21275296.7144
 04  7 17  1 52 59.9990000  0  9G28G 1G13G23G10G19G27G 3G 8
  -9922665.61748  -7713039.62943  22712394.7844   22712395.3624
  -7588183.14146  -5899903.73642  23933182.7764   23933186.5544
 -25708307.67249 -20020423.39246  20351261.0734   20351259.6244
  -8910130.81646  -6929469.92242  23875415.3084   23875415.9954
  -5839124.52047  -4535412.46942  23400138.1754   23400139.6164
 -13421068.46948 -10442994.68744  22147520.7144   22147517.6164
 -23586030.09449 -18365451.19446  20695355.7694   20695354.4764
  -8570229.63347  -6666430.43142  23118727.6054   23118727.9334
 -19683934.29749 -15324344.26345  21264260.7534   21264260.3584
 04  7 17  1 53 29.9990000  0 10G28G 1G13G23G10G19G27G 3G 8G31
 -10012656.96948  -7783162.64243  22695269.9404   22695270.5114
  -7493502.04346  -5826126.41642  23951199.6364   23951204.4994
 -25669664.55149 -19990311.90146  20358614.7534   20358612.8394
  -8811260.23446  -6852428.13542  23894230.2144   23894230.8274
  -5876534.72747  -4564563.24642  23393019.9254   23393021.5264
 -13453493.89848 -10468261.23144  22141350.3944   22141347.6674
 -23609465.19549 -18383712.29446  20690896.3004   20690894.9604
  -8526069.05547  -6632019.61842  23127129.8864   23127131.6124
 -19741755.64549 -15369399.81045  21253257.9014   21253257.5584
   -183153.80915                  24339641.628
 04  7 17  1 53 59.9990000  0 10G28G 1G13G23G10G19G27G 3G 8G31
 -10102374.67648  -7853072.40443  22678196.8554   22678197.2534
  -7398631.31646  -5752201.38142  23969253.4564   23969258.0654
 -25630523.36349 -19959812.30746  20366062.9564   20366061.5034
  -8712214.23046  -6775249.60542  23913078.9874   23913078.8904
  -5913385.24647  -4593277.89442  23386006.8944   23386009.2224
 -13485390.67248 -10493115.83844  22135280.0974   22135278.0194
 -23632744.84049 -18401852.24646  20686466.1594   20686464.8944
  -8481385.05947  -6597201.01742  23135632.8554   23135634.6674
 -19799409.49249 -15414324.83445  21242286.6754   21242285.9174
   -301474.16445   -214857.52051  24317125.1674   24317127.9014
 04  7 17  1 54 29.9990000  0 10G28G 1G13G23G10G19G27G 3G 8G31
 -10191821.34848  -7922771.00143  22661176.1054   22661176.5974
  -7303576.34846  -5678132.74742  23987341.5194   23987346.6124
 -25590888.50449 -19928928.02546  20373605.2454   20373603.2494
  -8612998.27046  -6697938.68442  23931958.4174   23931958.9644
  -5949679.20747  -4621558.86342  23379100.1514   23379102.1124
 -13516760.98448 -10517560.22244  22129310.5654   22129308.1904
 -23655872.20749 -18419873.53346  20682065.2764   20682064.1594
  -8436182.80947  -6561978.47442  23144235.6444   23144236.6474
 -19856899.16049 -15459121.94245  21231346.3864   21231345.9954
   -419857.82445   -307104.38841  24294597.6124   24294600.7264
 04  7 17  1 54 59.9990000  0 10G28G 1G13G23G10G19G27G 3G 8G31
 -10280993.22347  -7992255.43443  22644206.9174   22644207.7924
  -7208336.09446  -5603919.74442  24005465.5584   24005470.3394
 -25550757.51649 -19897657.15946  20381241.7374   20381240.0894
  -8513611.21546  -6620494.43442  23950871.9724   23950872.1124
  -5985413.16447  -4649403.45942  23372300.6284   23372301.7064
 -13547600.48848 -10541591.00244  22123442.1054   22123439.6204
 -23678844.41849 -18437773.91446  20677693.7224   20677692.2654
  -8390460.89547  -6526351.08742  23152935.5114   23152936.6444
 -19914221.93448 -15503789.00345  21220438.5974   21220437.9994
   -538299.35945   -399396.32841  24272059.8784   24272062.6284
 04  7 17  1 55 29.9990000  0 10G28G 1G13G23G10G19G27G 3G 8G31
 -10369886.21947  -8061522.58343  22627291.3394   22627291.2724
  -7112909.17646  -5529561.31542  24023624.2224   24023629.1944
 -25510127.91449 -19865997.76246  20388973.4254   20388971.7104
  -8414052.02746  -6542916.00542  23969816.6594   23969817.4724
  -6020583.37547  -4676808.77742  23365607.8624   23365608.5854
 -13577905.04348 -10565204.91544  22117675.6904   22117672.7804
 -23701657.91449 -18455550.65146  20673352.4804   20673351.0974
  -8344218.13747  -6490317.78142  23161735.0654   23161735.9254
 -19971374.43748 -15548323.39845  21209562.6754   21209562.1754
   -656793.44545   -491729.27041  24249509.8004   24249513.1014
 04  7 17  1 55 59.9990000  0 10G28G 1G13G23G10G19G27G 3G 8G31
 -10458498.09847  -8130570.67843  22610428.7144   22610429.4094
  -7017296.23446  -5455057.87942  24041819.4404   24041824.6054
 -25468999.46149 -19833949.62546  20396799.8314   20396797.9914
  -8314321.24247  -6465203.93442  23988795.3154   23988796.1794
  -6055188.43047  -4703773.75942  23359022.7374   23359023.4564
 -13607671.87948 -10588399.85044  22112011.3864   22112008.1324
 -23724311.03149 -18473202.40846  20669041.5584   20669040.3124
  -8297454.92247  -6453878.97042  23170634.0974   23170634.5424
 -20028354.50449 -15592723.43045  21198719.5344   21198719.1944
   -775336.03945   -584099.97741  24226952.0424   24226955.2804
 04  7 17  1 56 29.9990000  0 10G28G 1G13G23G10G19G27G 3G 8G31
 -10546822.48047  -8199394.74743  22593620.9254   22593621.5544
  -6921493.45345  -5380406.49742  24060051.4404   24060054.8704
 -25427367.01249 -19801508.76846  20404722.3864   20404720.5774
  -8214415.30146  -6387355.32842  24007807.0894   24007807.7184
  -6089221.88747  -4730293.32342  23352545.9644   23352548.0504
 -13636894.25448 -10611170.51744  22106450.1984   22106447.7104
 -23746798.06249 -18490724.74746  20664762.3624   20664761.2454
  -8250167.57847  -6417031.71342  23179632.9174   23179633.0344
 -20085157.22749 -15636985.27845  21187910.4334   21187909.5034
   -893919.34845   -676502.43041  24204386.7764   24204389.4014
 04  7 17  1 56 59.9990000  0 10G28G 1G13G23G10G19G27G 3G 8G31
 -10634858.55548  -8267994.17243  22576868.2924   22576869.1514
  -6825502.76645  -5305608.83541  24078316.6834   24078320.3434
 -25385231.47749 -19768675.90246  20412740.3554   20412738.8044
  -8114336.25446  -6309371.85042  24026851.5344   24026852.5074
  -6122683.48047  -4756367.29642  23346178.0344   23346181.3944
 -13665571.00848 -10633516.03444  22100993.1124   22100990.5464
 -23769118.79349 -18508117.50346  20660514.6674   20660513.5894
  -8202357.99247  -6379777.54142  23188731.7374   23188731.4334
 -20141782.48449 -15681108.83645  21177135.0584   21177134.3314
  -1012540.80145   -768934.60241  24181812.6754   24181816.9684
 04  7 17  1 57 29.9990000  0 10G28G 1G13G23G10G19G27G 3G 8G31
 -10722604.32047  -8336367.37443  22560170.7694   22560171.5504
  -6729325.11346  -5230665.44541  24096619.3554   24096622.7494
 -25342592.78549 -19735450.96546  20420854.3314   20420852.3944
  -8014085.06646  -6231254.23242  24045928.6054   24045930.4014
  -6155571.96547  -4781994.64342  23339919.6284   23339922.0774
 -13693699.90648 -10655434.63544  22095640.5424   22095637.9914
 -23791271.82049 -18525379.60446  20656299.3314   20656298.0224
  -8154026.84447  -6342116.90242  23197928.8394   23197929.3274
 -20198228.83648 -15725092.99646  21166393.8554   21166393.1594
  -1131197.27745   -861394.01641  24159232.7924   24159237.4014
 04  7 17  1 57 59.9990000  0 10G28G 1G13G23G10G19G27G 3G 8G31
 -10810063.31648  -8404517.11043  22543527.6984   22543528.1124
  -6632966.55145  -5155581.01141  24114954.0194   24114959.5544
 -25299456.02749 -19701837.92546  20429063.0814   20429061.2654
  -7913667.89146  -6153007.25242  24065037.0734   24065038.3904
  -6187891.33247  -4807178.55742  23333769.6754   23333771.5154
 -13721284.07048 -10676928.78444  22090391.1834   22090389.1474
 -23813261.08249 -18542514.09946  20652114.8314   20652113.7184
  -8105180.32448  -6304054.73042  23207223.8394   23207224.9134
 -20254500.25849 -15768940.85445  21155685.6204   21155684.5154
  -1249890.28546   -953881.95741  24136646.6754   24136650.6084
 04  7 17  1 58 29.9990000  0 10G28G 1G13G23G10G19G27G 3G 8G31
 -10897226.09447  -8472436.06043  22526941.0034   22526941.8434
  -6536420.28555  -5080350.36751  24133327.8624   24133331.7654
 -25255813.26649 -19667830.61346  20437368.0194   20437366.2304
  -7813078.11746  -6074625.81642  24084179.1124   24084179.9804
  -6219632.34847  -4831911.83842  23327730.0504   23327730.5384
 -13748313.70348 -10697990.82444  22085247.6594   22085245.2614
 -23835077.68449 -18559514.05546  20647963.1204   20647962.1674
  -8055811.48048  -6265585.54643  23216618.4254   23216619.6904
 -20310587.73049 -15812645.35845  21145012.4564   21145011.8824
  -1368608.77746  -1046389.69141  24114054.7224   24114058.9684
 04  7 17  1 58 59.9990000  0 10G28G 1G13G23G10G19G27G 3G 8G31
 -10984094.08647  -8540125.26643  22510410.3704   22510411.1554
  -6439690.54745  -5004976.83141  24151734.9804   24151738.7024
 -25211667.43449 -19633431.30946  20445768.7764   20445766.9914
  -7712319.99246  -5996113.15642  24103353.6364   24103353.3944
  -6250797.12147  -4856196.13542  23321799.3944   23321800.1634
 -13774789.87948 -10718621.61044  22080209.7144   22080206.7694
 -23856723.74249 -18576381.14746  20643844.2614   20643842.9444
  -8005924.62547  -6226712.78143  23226112.3154   23226113.3084
 -20366493.58249 -15856208.36245  21134373.9484   21134372.9134
  -1487352.73046  -1138917.37641  24091459.6984   24091462.9724
 04  7 17  1 59 29.9990000  0 10G28G 1G13G23G10G19G27G 3G 8G31
 -11070666.36747  -8607584.06143  22493936.2304   22493936.7574
  -6342779.41445  -4929461.83641  24170177.2534   24170179.7614
 -25167019.67649 -19598640.89146  20454265.0034   20454263.0694
  -7611395.57847  -5917470.98242  24122558.6444   24122558.1474
  -6281385.50047  -4880031.24042  23315978.7224   23315979.5464
 -13800711.82848 -10738820.53044  22075277.2374   22075274.2454
 -23878198.90249 -18593115.08246  20639757.2764   20639756.3624
  -7955521.75448  -6187437.85242  23235702.9334   23235704.6124
 -20422217.84049 -15899629.86945  21123769.8624   21123769.1244
  -1606119.49646  -1231462.78741  24068858.1904   24068861.2764
 04  7 17  1 59 59.9990000  0 10G28G 1G13G23G10G19G27G 3G 8G31
 -11156939.68747  -8674809.90743  22477519.2064   22477519.3234
  -6245686.01645  -4853804.81241  24188653.2144   24188655.9604
 -25121868.27049 -19563458.01946  20462856.9564   20462855.3664
  -7510304.12946  -5838698.61342  24141795.3474   24141794.9484
  -6311394.39547  -4903414.76442  23310267.5114   23310269.7374
 -13826075.67648 -10758584.57144  22070450.3704   22070447.8744
 -23899500.05149 -18609713.40546  20635703.8624   20635702.7574
  -7904601.96947  -6147760.17342  23245392.6444   23245394.0814
 -20477757.69549 -15942907.68445  21113201.1054   21113199.8624
  -1724903.97346  -1324021.94741  24046254.1904   24046258.3784
 04  7 17  2  0 29.9990000  0 10G28G 1G13G23G10G19G27G 3G 8G31
 -11242914.96947  -8741803.51343  22461158.0894   22461158.4524
  -6148413.93045  -4778008.54341  24207163.4724   24207166.5504
 -25076215.59049 -19527884.53346  20471544.6904   20471542.5624
  -7409049.40246  -5759798.98842  24161064.6364   24161062.9374
  -6340825.33647  -4926347.96742  23304667.4874   23304669.0854
 -13850882.08248 -10777914.22744  22065729.6124   22065727.6244
 -23920628.69549 -18626177.32346  20631683.6594   20631682.4874
  -7853169.20347  -6107682.80543  23255180.0194   23255181.1904
 -20533114.66849 -15986042.99245  21102667.3084   21102666.0544
  -1843705.37946  -1416594.27441  24023646.6674   24023651.4294
 04  7 17  2  0 59.9990000  0  9G28G13G23G10G19G27G 3G 8G31
 -11328589.45748  -8808562.73043  22444854.9874   22444855.2104
 -25030060.43449 -19491919.51346  20480327.7454   20480325.9954
  -7307631.42646  -5680772.21942  24180364.3704   24180362.7304
  -6369676.21947  -4948829.18642  23299176.9334   23299179.4804
 -13875127.93448 -10796807.10744  22061115.8704   22061113.5424
 -23941582.46149 -18642504.93546  20627695.9874   20627695.0694
  -7801223.21147  -6067205.51742  23265064.8314   23265065.7104
 -20588286.25449 -16029033.85345  21092167.9564   21092167.1984
  -1962519.35246  -1509176.47142  24001037.1204   24001041.1084
 04  7 17  2  1 29.9990000  0  9G28G13G23G10G19G27G 3G 8G31
 -11413963.92648  -8875088.15843  22428608.4484   22428609.4874
 -24983406.04349 -19455565.48646  20489205.6444   20489204.0424
  -7206053.82446  -5601621.06742  24199693.8784   24199692.8004
  -6397948.70747  -4970859.63442  23293798.0894   23293798.8704
 -13898814.08648 -10815263.84945  22056608.7534   22056606.1054
 -23962362.85949 -18658697.47446  20623741.9254   20623740.7374
  -7748767.55147  -6026331.07342  23275046.7454   23275047.8194
 -20643274.35949 -16071881.73845  21081704.3234   21081703.3584
  -2081345.17646  -1601767.89541  23978424.9644   23978429.1634
 04  7 17  2  1 59.9990000  0  9G28G13G23G10G19G27G 3G 8G31
 -11499021.79748  -8941366.88544  22412422.3864   22412422.9914
 -24936237.03549 -19418810.44746  20498181.4334   20498179.7964
  -7104302.82446  -5522334.76342  24219056.7304   24219056.3584
  -6425626.64547  -4992426.84642  23288530.3944   23288531.4914
 -13921923.58647 -10833271.25544  22052211.0654   22052208.7184
 -23982953.65649 -18674742.26946  20619823.4804   20619822.2724
  -7695788.23047  -5985048.59142  23285128.4014   23285129.8554
 -20698063.02349 -16114574.22145  21071278.4484   21071277.5624
  -2200164.33246  -1694354.04542  23955815.3084   23955818.8194
 04  7 17  2  2 29.9990000  0  9G28G13G23G10G19G27G 3G 8G31
 -11583759.50048  -9007396.14943  22396297.1984   22396298.2574
 -24888551.56249 -19381652.96646  20507255.8624   20507254.1674
  -7002377.30946  -5442912.48742  24238452.3944   24238451.9444
  -6452706.78947  -5013528.24442  23283376.7064   23283378.4804
 -13944452.72748 -10850826.42744  22047924.0894   22047921.7494
 -24003351.40649 -18690636.64846  20615941.8864   20615940.9914
  -7642284.51647  -5943357.53442  23295309.3314   23295311.1674
 -20752648.66849 -16157108.49045  21060891.2764   21060890.1014
  -2318971.30946  -1786930.70842  23933206.3864   23933210.4684
 04  7 17  2  2 59.9990000  0  9G28G13G23G10G19G27G 3G 8G31
 -11668181.45348  -9073179.36143  22380232.0504   22380232.4994
 -24840355.91049 -19344097.93746  20516427.0894   20516425.7144
  -6900284.91846  -5363360.18742  24257879.2304   24257879.7024
  -6479194.39547  -5034167.94942  23278336.8004   23278338.2264
 -13966405.75848 -10867932.67444  22043745.8004   22043743.9294
 -24023561.24249 -18706384.59846  20612096.2304   20612095.1514
  -7588263.72347  -5901263.53642  23305589.9094   23305591.0384
 -20807036.36749 -16199488.50845  21050541.1904   21050540.1834
  -2437769.02046  -1879500.26641  23910599.7144   23910604.0894
 04  7 17  2  3 29.9990000  0  9G28G13G23G10G19G27G 3G 8G31
 -11752283.64848  -9138713.43443  22364228.1594   22364227.9874
 -24791647.95349 -19306143.72046  20525695.9254   20525694.5814
  -6798024.49246  -5283676.96741  24277339.1054   24277338.6404
  -6505086.47347  -5054343.56542  23273409.3394   23273411.2964
 -13987778.43048 -10884586.70244  22039678.7764   22039676.7924
 -24043579.66849 -18721983.37946  20608286.9804   20608285.6514
  -7533724.81247  -5858765.85342  23315968.6124   23315969.0504
 -20861223.27049 -16241712.05245  21040230.0584   21040229.1514
  -2556551.93446  -1972058.20941  23887995.6984   23888000.3354
 04  7 17  2  3 59.9990000  0  9G28G13G23G10G19G27G 3G 8G31
 -11836075.07048  -9204005.31843  22348282.9334   22348282.9134
 -24742438.35949 -19267798.61846  20535060.6054   20535059.0034
  -6695607.30145  -5203871.50241  24296828.3474   24296828.1124
  -6530392.24246  -5074062.30242  23268594.4334   23268595.9724
 -14008579.49248 -10900795.30644  22035720.9564   22035718.5074
 -24063415.65249 -18737440.00246  20604512.2224   20604510.9404
  -7478679.39147  -5815873.47242  23326443.3864   23326444.1514
 -20915218.35249 -16283786.13045  21029954.7454   21029953.9724
  -2675326.75446  -2064609.77542  23865392.7694   23865398.2454
 04  7 17  2  4 29.9990000  0  9G28G13G23G10G19G27G 3G 8G31
 -11919551.55948  -9269051.79643  22332397.4014   22332398.0264
 -24692724.71149 -19229060.75146  20544520.4874   20544518.7614
  -6593032.16045  -5123943.11441  24316348.7374   24316348.3554
  -6555108.48447  -5093321.69342  23263890.4174   23263892.3554
 -14028804.75448 -10916555.24844  22031872.0584   22031869.9684
 -24083065.46949 -18752751.54046  20600773.1284   20600771.6244
  -7423126.02748  -5772585.31742  23337015.1514   23337016.1634
 -20969018.18449 -16325708.05545  21019717.3864   21019716.5694
  -2794087.60946  -2157150.48442  23842793.5814   23842798.8944
 04  7 17  2  4 59.9990000  0  9G28G13G23G10G19G27G 3G 8G31
 -12002713.25448  -9333853.00643  22316572.7764   22316573.1284
 -24642508.91449 -19189931.59046  20554076.3004   20554074.8584
  -6490301.65255  -5043893.55051  24335897.3084   24335897.7064
  -6579235.69946  -5112122.13542  23259299.6904   23259300.9524
 -14048454.21948 -10931866.51744  22028132.5114   22028130.9954
 -24102529.55149 -18767918.32646  20597069.3234   20597067.7924
  -7367067.67648  -5728903.65942  23347683.3314   23347683.5974
 -21022623.34449 -16367478.27245  21009516.4254   21009515.7844
  -2912832.63747  -2249678.88142  23820197.5194   23820202.1124
 04  7 17  2  5 29.9990000  0  9G28G13G23G10G19G27G 3G 8G31
 -12085560.84848  -9398409.44144  22300806.9404   22300807.6554
 -24591793.29749 -19150412.97146  20563727.3554   20563725.6514
  -6387419.44945  -4963725.78441  24355475.0034   24355475.4214
  -6602775.30546  -5130464.59042  23254820.4334   23254821.2694
 -14067528.62948 -10946729.67345  22024503.1444   22024500.9954
 -24121808.97749 -18782941.22646  20593400.2924   20593399.1324
  -7310507.67647  -5684831.08542  23358445.9564   23358446.9604
 -21076034.68749 -16409097.46445  20999352.4484   20999352.0264
  -3031560.91847  -2342194.28442  23797603.6364   23797608.5504
 04  7 17  2  5 59.9990000  0  9G28G13G23G10G19G27G 3G 8G31
 -12168096.08648  -9462722.50444  22285101.1834   22285101.6124
 -24540581.32849 -19110507.58546  20573472.6124   20573470.9444
  -6284390.05145  -4883443.42641  24375081.9094   24375082.0544
  -6625729.88747  -5148351.25342  23250452.3474   23250454.0424
 -14086029.46548 -10961145.90644  22020982.0034   22020980.0814
 -24140905.96949 -18797821.97746  20589766.3704   20589765.2844
  -7253450.47747  -5640371.12442  23369303.8004   23369305.3124
 -21129254.52049 -16450567.41545  20989225.0344   20989224.5074
  -3150272.18447  -2434696.30342  23775013.7304   23775018.2574
 04  7 17  2  6 29.9990000  0  9G28G13G23G10G19G27G 3G 8G31
 -12250311.13347  -9526786.06844  22269455.8624   22269456.1874
 -24488867.00849 -19070210.75646  20583313.7144   20583312.0424
  -6181208.08245  -4803042.04741  24394716.1834   24394716.8664
  -6648092.34847  -5165776.54942  23246196.5974   23246198.3084
 -14103948.63348 -10975108.91445  22017572.3704   22017570.3084
 -24159812.66449 -18812554.43246  20586168.6904   20586167.4954
  -7195891.11747  -5595519.80942  23380257.2764   23380258.3864
 -21182275.04749 -16491882.08545  20979135.5344   20979135.1084
  -3268956.64147  -2527177.51842  23752428.2374   23752433.8584
 04  7 17  2  6 59.9990000  0  9G28G13G23G10G19G27G 3G 8G31
 -12332209.03148  -9590602.50244  22253871.3554   22253871.6714
 -24436655.37149 -19029526.40046  20593249.4014   20593247.5854
  -6077879.56245  -4722526.38841  24414379.1364   24414379.6874
  -6669866.63746  -5182743.46742  23242052.7224   23242054.5854
 -14121289.32448 -10988621.15044  22014272.6364   22014270.7024
 -24178532.53549 -18827141.30046  20582606.4254   20582604.7964
  -7137835.60247  -5550281.95742  23391304.2144   23391307.1874
 -21235100.18049 -16533044.47145  20969083.0974   20969082.6364
  -3387615.82447  -2619638.99642  23729848.3084   23729853.1944
 04  7 17  2  7 29.9990000  0  9G28G13G23G10G19G27G 3G 8G31
 -12413791.32048  -9654173.02644  22238346.4094   22238346.3864
 -24383949.71949 -18988457.09846  20603278.7614   20603276.9374
  -5974408.59846  -4641899.97341  24434071.0034   24434069.8904
  -6691055.00447  -5199253.85542  23238021.0114   23238022.1514
 -14138052.97748 -11001683.74544  22011083.1054   22011080.8974
 -24197067.47349 -18841584.07646  20579078.7454   20579077.5814
  -7079288.10947  -5504660.66342  23402446.2764   23402448.1944
 -21287731.66049 -16574055.97846  20959067.7924   20959067.0224
  -3506248.89547  -2712080.15342  23707273.3784   23707277.3904
 04  7 17  2  7 59.9990000  0  8G28G13G10G19G27G 3G 8G31
 -12495056.06647  -9717496.09644  22222882.4954   22222882.4334
 -24330749.78949 -18947002.65246  20613402.2144   20613400.8864
  -6711656.28547  -5215306.78442  23234101.0344   23234101.8434
 -14154237.55148 -11014295.08644  22008002.9724   22008000.5344
 -24215415.64849 -18855881.33346  20575587.4874   20575586.3744
  -7020249.88347  -5458656.95342  23413680.6514   23413682.5264
 -21340168.44948 -16614915.76645  20949089.5344   20949088.7494
  -3624852.19147  -2804498.09242  23684703.9874   23684708.1514
 04  7 17  2  8 29.9990000  0  8G28G13G10G19G27G 3G 8G31
 -12575999.36748  -9780568.70044  22207479.4484   22207478.8434
 -24277053.44149 -18905161.38946  20623620.1364   20623618.7224
  -6731667.54746  -5230899.92642  23230292.8624   23230294.2884
 -14169839.03548 -11026452.06645  22005033.8704   22005031.7574
 -24233573.25049 -18870030.09746  20572132.2534   20572130.8314
  -6960719.39547  -5412269.71842  23425009.1834   23425012.0854
 -21392406.74249 -16655620.89546  20939148.6514   20939147.7534
  -3743419.71547  -2896888.16542  23662140.5424   23662144.9604
 04  7 17  2  8 59.9990000  0  8G28G13G10G19G27G 3G 8G31
 -12656613.25048  -9843384.62644  22192139.1284   22192138.5304
 -24222854.73849 -18862928.67046  20633933.8004   20633932.3314
  -6751081.50846  -5246027.65342  23226598.4874   23226599.6244
 -14184849.57048 -11038148.57745  22002177.6364   22002175.0894
 -24251532.75849 -18884024.50646  20568714.5814   20568713.0464
  -6900691.81647  -5365495.16142  23436431.7844   23436434.6364
 -21444438.90649 -16696165.39445  20929247.6444   20929246.5264
  -3861941.53546  -2989242.62342  23639586.5264   23639590.2064
 04  7 17  2  9 29.9990000  0  8G28G13G10G19G27G 3G 8G31
 -12736889.32848  -9905937.31044  22176863.3474   22176862.5894
 -24168147.17249 -18820299.44146  20644344.4094   20644343.1364
  -6769890.54745  -5260684.02442  23223019.1754   23223020.6594
 -14199260.71148 -11049378.03044  21999435.6124   21999433.3434
 -24269285.80949 -18897858.04446  20565336.3624   20565334.9994
  -6840161.41047  -5318328.67942  23447950.8234   23447953.6324
 -21496256.72749 -16736542.87545  20919387.1904   20919385.6084
  -3980407.36347  -3081553.39942  23617043.3554   23617046.4644
 04  7 17  2  9 59.9990000  0  8G28G13G10G19G27G 3G 8G31
 -12816825.52048  -9968225.17344  22161651.1444   22161651.4564
 -24112930.40649 -18777273.43046  20654852.1834   20654850.7614
  -6788093.35246  -5274868.02542  23219555.5194   23219555.9134
 -14213070.45349 -11060138.84444  21996807.4874   21996804.7964
 -24286830.61749 -18911529.31346  20561997.5584   20561996.5854
  -6779128.83647  -5270770.97342  23459565.6984   23459568.1054
 -21547858.81249 -16776752.27046  20909567.3474   20909566.2614
  -4098813.15247  -3173817.39442  23594511.1754   23594514.6324
 04  7 17  2 10 29.9990000  0  8G28G13G10G19G27G 3G 8G31
 -12896429.57848 -10030254.22744  22146503.1514   22146502.9684
 -24057213.97749 -18733858.07846  20665454.5194   20665452.9134
  -6805698.65646  -5288586.40542  23216205.0974   23216205.1754
 -14226286.64148 -11070437.16345  21994292.5424   21994290.2024
 -24304174.95749 -18925044.38646  20558697.0034   20558695.9724
  -6717604.80547  -5222830.28742  23471272.5974   23471275.1444
 -21599252.76649 -16816799.48246  20899787.2374   20899786.2104
  -4217164.57047  -3266039.07442  23571989.3314   23571992.7574
 04  7 17  2 10 59.9990000  0  8G28G13G10G19G27G 3G 8G31
 -12975701.91448 -10092024.80244  22131417.8784   22131417.8514
 -24000999.93049 -18690054.97446  20676151.9484   20676150.1944
  -6822707.64846  -5301840.19742  23212967.7454   23212969.4444
 -14238909.27748 -11080272.98545  21991890.4404   21991888.0584
 -24321319.48049 -18938403.73746  20555434.3084   20555433.6284
  -6655592.53547  -5174509.14542  23483074.3084   23483075.6514
 -21650439.47749 -16856685.22446  20890046.8004   20890045.9834
  -4335459.79747  -3358216.92042  23549478.3474   23549481.5034
 04  7 17  2 11 29.9990000  0  8G28G13G10G19G27G 3G 8G31
 -13054644.56647 -10153538.46644  22116395.7144   22116395.8394
 -23944292.56649 -18645867.46246  20686942.9334   20686941.4214
  -6839123.26245  -5314631.57242  23209844.5894   23209846.4094
 -14250940.80548 -11089648.17944  21989600.9484   21989598.8554
 -24338266.29348 -18951609.03746  20552209.7924   20552208.2964
  -6593097.28147  -5125811.66342  23494965.8554   23494968.1474
 -21701421.44949 -16896411.41146  20880345.3944   20880344.4644
  -4453699.05547  -3450351.16542  23526978.2764   23526980.4954
 04  7 17  2 11 59.9990000  0  8G28G13G10G19G27G 3G 8G31
 -13133257.09848 -10214794.90744  22101436.4404   22101435.7964
 -23887093.12149 -18601296.51846  20697827.8154   20697826.2374
  -6854946.11746  -5326961.05342  23206833.7844   23206835.6444
 -14262380.85948 -11098562.51945  21987423.9874   21987421.6364
 -24355015.29349 -18964660.21146  20549022.7224   20549021.3474
  -6530121.27347  -5076739.58442  23506950.6984   23506952.8124
 -21752197.90649 -16935977.43546  20870682.9254   20870682.1944
  -4571879.78147  -3542439.83342  23504488.8704   23504492.2024
 04  7 17  2 12 29.9990000  0  8G28G13G10G19G27G 3G 8G31
 -13211540.78548 -10275795.10844  22086539.3154   22086538.8784
 -23829404.84449 -18556344.65646  20708805.3554   20708804.0734
  -6870178.44147  -5338830.38942  23203934.9404   23203936.7224
 -14273230.88349 -11107017.07245  21985359.1754   21985356.7964
 -24371567.65649 -18977558.16646  20545872.9254   20545871.4764
  -6466668.47347  -5027295.98242  23519025.7534   23519028.0584
 -21802770.99249 -16975385.00346  20861059.0814   20861058.6124
  -4690001.23447  -3634482.29442  23482010.5424   23482013.6014
 04  7 17  2 12 59.9990000  0  8G28G13G10G19G27G 3G 8G31
 -13289493.36748 -10336537.30244  22071705.3314   22071704.9254
 -23771227.47349 -18511011.68646  20719876.4014   20719874.6284
  -6884818.64147  -5350238.34042  23201148.7694   23201149.6944
 -14283488.77049 -11115010.23844  21983407.4174   21983404.9294
 -24387921.11749 -18990301.14546  20542760.9484   20542759.3784
  -6402739.28147  -4977481.18942  23531190.9014   23531192.4604
 -21853138.59049 -17014632.45646  20851474.3704   20851473.8314
  -4808058.93047  -3726475.09742  23459545.3624   23459548.1204
 04  7 17  2 13 29.9990000  0  8G28G13G10G19G27G 3G 8G31
 -13367113.70348 -10397020.63544  22056934.5584   22056934.4134
 -23712561.50449 -18465297.98146  20731039.9724   20731038.6054
  -6898866.64147  -5361184.86142  23198475.8624   23198475.7184
 -14293153.08648 -11122540.88345  21981568.0894   21981565.6874
 -24404074.57049 -19002888.25446  20539686.6984   20539685.6714
  -6338335.49647  -4927296.58342  23543445.4874   23543448.0734
 -21903299.63749 -17053718.94346  20841928.9564   20841927.9684
  -4926049.52347  -3818415.59142  23437092.6674   23437094.5464
 04  7 17  2 13 59.9990000  0  8G28G13G10G19G27G 3G 8G31
 -13444404.99647 -10457247.56144  22042226.4724   22042226.2694
 -23653411.92249 -18419207.44346  20742295.9644   20742294.7964
  -6912326.59047  -5371673.17042  23195914.2924   23195915.1164
 -14302227.31248 -11129611.71645  21979841.5974   21979839.0194
 -24420031.41848 -19015322.17546  20536650.7534   20536648.8744
  -6273463.46947  -4876746.99342  23555791.1904   23555792.8704
 -21953257.37149 -17092647.00946  20832422.0034   20832421.6904
  -5043974.16848  -3910304.71042  23414652.1834   23414654.0114
 04  7 17  2 14 29.9990000  0  8G28G13G10G19G27G 3G 8G31
 -13521363.46948 -10517215.13544  22027581.9404   22027581.5224
 -23593776.88749 -18372738.63046  20753644.2224   20753642.4804
  -6925195.60947  -5381701.03142  23193465.2534   23193467.4644
 -14310707.76648 -11136219.85845  21978227.6284   21978224.8234
 -24435787.78149 -19027599.90246  20533652.2454   20533650.6244
  -6208122.28547  -4825831.92142  23568225.0814   23568227.4764
 -22003008.03149 -17131413.73646  20822954.9644   20822954.3624
  -5161826.85547  -4002137.74342  23392224.7454   23392227.5814
 04  7 17  2 14 59.9990000  0  8G28G13G10G19G27G 3G 8G31
 -13597990.60948 -10576924.52944  22013000.3084   22012999.5854
 -23533660.04349 -18325894.38446  20765084.0344   20765082.7224
  -6937476.08247  -5391270.26742  23191128.0974   23191130.9644
 -14318596.23448 -11142366.73544  21976726.7764   21976723.7844
 -24451345.24249 -19039722.60646  20530691.6594   20530690.2724
  -6142316.03547  -4774554.44242  23580748.1674   23580750.0974
 -22052553.59849 -17170020.64046  20813526.6594   20813525.6364
  -5279606.89847  -4093914.20442  23369811.6754   23369814.8154
 04  7 17  2 15 29.9990000  0  8G28G13G10G19G27G 3G 8G31
 -13674281.13348 -10636371.62844  21998482.3864   21998482.0264
 -23473057.77349 -18278671.88246  20776616.0504   20776614.6164
  -6949164.24647  -5400377.93342  23188903.8554   23188906.8394
 -14325887.61348 -11148048.33945  21975339.2374   21975336.5654
 -24466698.55949 -19051686.24946  20527770.1204   20527768.5894
  -6076042.71547  -4722913.00742  23593358.3314   23593361.1904
 -22101888.89149 -17208463.72646  20804138.5734   20804137.9094
  -5397307.08247  -4185628.41442  23347414.4334   23347416.6794
 04  7 17  2 15 59.9990000  0  8G28G13G10G19G27G 3G 8G31
 -13750237.86748 -10695558.62844  21984028.2614   21984027.8314
 -23411975.12549 -18231075.07046  20788239.8234   20788238.4644
  -6960263.59047  -5409026.81342  23186792.3474   23186793.8044
 -14332584.77348 -11153266.92644  21974064.7374   21974061.9804
 -24481850.57049 -19063493.04046  20524886.7224   20524885.3234
  -6009307.55947  -4670911.66142  23606057.9954   23606061.3234
 -22151017.14849 -17246745.50946  20794789.7064   20794788.9724
  -5514927.81247  -4277280.71442  23325031.7614   23325034.4914
 04  7 17  2 16 29.9990000  0  8G28G13G10G19G27G 3G 8G31
 -13825860.14548 -10754485.01044  21969637.8154   21969637.3554
 -23350413.34049 -18183104.90545  20799954.8314   20799953.2534
  -6970774.55547  -5417217.24642  23184791.9484   23184792.9374
 -14338687.39848 -11158022.24944  21972903.8314   21972900.9014
 -24496800.56249 -19075142.41846  20522041.9334   20522040.6244
  -5942113.02047  -4618552.40042  23618844.7924   23618848.1714
 -22199937.21949 -17284865.03146  20785480.2764   20785480.1554
  -5632466.31247  -4368868.93442  23302664.8084   23302667.4334
 04  7 17  2 16 59.9990000  0  8G28G13G10G19G27G 3G 8G31
 -13901147.77748 -10813150.63044  21955310.6514   21955310.7024
 -23288373.84849 -18134762.49545  20811760.6674   20811758.9444
  -6980697.85247  -5424949.75142  23182903.5504   23182904.9524
 -14344195.27048 -11162314.12845  21971855.6204   21971852.5974
 -24511548.11749 -19086634.06246  20519235.5194   20519234.1834
  -5874461.87547  -4565837.34842  23631718.7614   23631722.1794
 -22248649.70749 -17322822.79946  20776211.2924   20776210.5304
  -5749919.97347  -4460391.06342  23280313.6984   23280316.4014
 04  7 17  2 17 29.9990000  0  8G28G13G10G19G27G 3G 8G31
 -13976099.76248 -10871554.68444  21941048.3084   21941047.8234
 -23225857.88349 -18086048.82045  20823657.1284   20823655.4604
  -6990033.67247  -5432224.42542  23181127.5344   23181129.1284
 -14349107.83648 -11166142.14445  21970920.8394   21970918.0584
 -24526092.38749 -19097967.29046  20516467.7224   20516466.7454
  -5806355.95747  -4512768.05342  23644678.4644   23644682.7104
 -22297153.24249 -17360617.74346  20766980.9874   20766980.0344
  -5867285.68747  -4551844.65042  23257979.5194   23257982.5034
 04  7 17  2 17 59.9990000  0  8G28G13G10G19G27G 3G 8G31
 -14050711.81248 -10929693.85944  21926850.0264   21926849.5074
 -23162863.10949 -18036962.02546  20835644.5734   20835642.9724
  -6998778.70747  -5439038.76942  23179463.3624   23179465.4334
 -14353421.03148 -11169503.10945  21970099.9804   21970097.0034
 -24540429.06649 -19109138.77346  20513739.5814   20513738.7844
  -5737794.03147  -4459343.42442  23657725.6834   23657729.3154
 -22345444.16049 -17398247.03946  20757791.5584   20757791.0154
  -5984556.94547  -4643224.62042  23235663.4254   23235666.4764
 04  7 17  2 18 29.9990000  0  8G28G13G10G19G27G 3G 8G31
 -14124991.29748 -10987573.91044  21912714.5114   21912714.4054
 -23099398.32049 -17987509.02445  20847721.6364   20847720.4054
  -7006941.31248  -5445399.25542  23177909.9724   23177911.8474
 -14357142.29349 -11172402.83844  21969391.4564   21969389.3514
 -24554565.02749 -19120153.82246  20511049.6904   20511048.7724
  -5668785.75847  -4405570.98842  23670857.6674   23670861.3004
 -22393529.05549 -17435715.79346  20748641.3314   20748640.2534
  -6101738.58647  -4734534.77142  23213364.5584   23213367.2494
 04  7 17  2 18 59.9990000  0  8G28G13G10G19G27G 3G 8G31
 -14198932.86348 -11045190.61444  21898644.4174   21898643.4804
 -23035460.41449 -17937687.33545  20859888.5264   20859887.4524
  -7014517.36747  -5451302.70842  23176468.4954   23176469.7334
 -14360266.65648 -11174837.45144  21968797.1834   21968794.5224
 -24568495.03949 -19131008.39046  20508398.5654   20508397.4994
  -5599328.55546  -4351448.52442  23684074.2374   23684078.7804
 -22441403.02349 -17473020.17446  20739531.0264   20739530.3154
  -6218823.13347  -4825769.28442  23191083.9954   23191086.2494
 04  7 17  2 19 29.9990000  0  8G28G13G10G19G27G 3G 8G31
 -14272536.85548 -11102544.29844  21884637.4094   21884637.0654
 -22971052.13749 -17887499.13446  20872145.0814   20872143.7454
  -7021508.54347  -5456750.38442  23175138.2534   23175138.5264
 -14362794.90649 -11176807.57344  21968315.8554   21968314.1904
 -24582219.52049 -19141702.80946  20505787.0264   20505785.9014
  -5529426.26647  -4296979.25642  23697377.4484   23697381.2374
 -22489066.78149 -17510160.79046  20730461.0264   20730459.9054
  -6335808.72347  -4916926.69642  23168821.7534   23168823.9644
 04  7 17  2 19 59.9990000  0  8G28G13G10G19G27G 3G 8G31
 -14345802.67648 -11159634.45044  21870695.5584   21870694.9914
 -22906174.34449 -17836945.05845  20884491.0424   20884489.1474
  -7027915.37547  -5461742.73942  23173918.9334   23173919.8864
 -14364726.34048 -11178312.63045  21967948.8474   21967946.7884
 -24595737.45749 -19152236.28346  20503214.6904   20503213.5654
  -5459080.85946  -4242164.72542  23710763.8944   23710767.1554
 -22536519.25049 -17547136.73846  20721431.1444   20721430.4094
  -6452692.26647  -5008004.61642  23146579.7534   23146581.7964
 04  7 17  2 20 29.9990000  0  8G28G13G10G19G27G 3G 8G31
 -14418730.88348 -11216461.56344  21856817.5654   21856817.0504
 -22840829.60949 -17786027.15245  20896925.4874   20896924.2334
  -7033739.35947  -5466280.93742  23172810.4564   23172811.9684
 -14366062.12148 -11179353.55145  21967694.4564   21967692.5424
 -24609049.41849 -19162609.27746  20500681.6054   20500680.5194
  -5388295.75447  -4187007.53942  23724234.2454   23724236.4764
 -22583761.18449 -17583948.64946  20712441.5034   20712440.4134
  -6569472.02048  -5099001.61942  23124357.1284   23124359.0074
 04  7 17  2 20 59.9990000  0  8G28G13G10G19G27G 3G 8G31
 -14491320.28548 -11273024.63444  21843004.1054   21843004.0074
 -22775018.96949 -17734746.19045  20909449.0034   20909447.6834
  -7038980.34447  -5470364.79242  23171813.2694   23171815.3514
 -14366801.50848 -11179929.74344  21967553.6364   21967551.4604
 -24622154.00449 -19172820.67146  20498188.1514   20498186.8154
  -5317072.68047  -4131509.07242  23737787.7454   23737789.9334
 -22630791.18049 -17620595.43746  20703491.9804   20703491.1754
  -6686144.45747  -5189915.00842  23102154.9644   23102157.0264
 04  7 17  2 21 29.9990000  0  8G28G13G10G19G27G 3G 8G31
 -14563569.70748 -11329322.79844  21829255.6594   21829255.0194
 -22708742.77349 -17683102.45445  20922060.9254   20922059.8974
  -7043638.21947  -5473994.30142  23170927.0344   23170928.5544
 -14366943.02748 -11180040.07144  21967526.8154   21967524.7534
 -24635049.56249 -19182869.19146  20495733.9954   20495732.7574
  -5245413.33646  -4075670.57142  23751423.6364   23751426.0504
 -22677607.99249 -17657076.11646  20694582.8784   20694582.3154
  -6802705.78547  -5280741.81442  23079973.7304   23079975.5974
 04  7 17  2 21 59.9990000  0  8G28G13G10G19G27G 3G 8G31
 -14635481.28148 -11385357.71544  21815571.2694   21815570.4684
 -22642005.68749 -17631099.59045  20934760.3864   20934759.4644
  -7047716.68047  -5477172.34142  23170150.7534   23170151.8784
 -14366489.76648 -11179686.92145  21967613.1594   21967611.1594
 -24647738.51649 -19192756.73446  20493319.4094   20493318.1324
  -5173322.93047  -4019496.19442  23765141.5894   23765143.7024
 -22724213.84049 -17693392.40746  20685714.0194   20685713.2654
  -6919156.02347  -5371482.05242  23057814.0194   23057815.9914
 04  7 17  2 22 29.9990000  0  8G28G13G10G19G27G 3G 8G31
 -14707053.87148 -11441128.47244  21801951.4724   21801950.8664
 -22574808.19149 -17578737.96545  20947547.9174   20947546.6084
  -7051215.75447  -5479898.86942  23169484.9804   23169485.6014
 -14365440.76249 -11178869.56744  21967812.6284   21967810.6364
 -24660219.13749 -19202481.93846  20490944.6444   20490943.3584
  -5100803.07046  -3962987.12642  23778941.4874   23778943.9444
 -22770607.40249 -17729543.25646  20676886.0734   20676884.6204
  -7035491.53147  -5462132.89842  23035675.8784   23035677.8124
 04  7 17  2 22 59.9990000  0  8G28G13G10G19G27G 3G 8G31
 -14778287.65248 -11496635.23444  21788396.3234   21788395.5894
 -22507152.51249 -17526019.30545  20960422.2844   20960421.4644
  -7054136.77347  -5482174.99142  23168928.5504   23168929.8974
 -14363796.44148 -11177588.31945  21968125.4014   21968122.9834
 -24672491.50449 -19212044.86246  20488609.1984   20488607.6244
  -5027856.52746  -3906145.48442  23792822.6754   23792825.6364
 -22816788.76249 -17765528.75846  20668097.9094   20668096.8624
  -7151710.07847  -5552692.60242  23013560.1284   23013562.3234
 04  7 17  2 23 29.9990000  0  8G28G13G10G19G27G 3G 8G31
 -14849180.13748 -11551876.04944  21774905.5654   21774905.3704
 -22439038.06649 -17472943.18245  20973384.0584   20973383.1054
  -7056478.42247  -5483999.67742  23168483.5654   23168484.4914
 -14361554.78948 -11175841.62944  21968552.0504   21968550.0934
 -24684552.82849 -19221443.34846  20486314.0814   20486312.7844
  -4954483.79346  -3848971.80142  23806784.9874   23806787.3864
 -22862755.09449 -17801346.71546  20659350.9874   20659349.5114
  -7267806.62547  -5643157.25742  22991467.4804   22991470.0154
 04  7 17  2 23 59.9990000  0  8G28G13G10G19G27G 3G 8G31
 -14919732.23048 -11606851.65444  21761479.9334   21761479.6364
 -22370467.85249 -17419511.88945  20986432.5654   20986431.5194
  -7058242.89548  -5485374.63642  23168147.9564   23168149.3234
 -14358717.22748 -11173630.59244  21969092.2224   21969089.9684
 -24696403.67649 -19230677.82546  20484059.0264   20484057.9254
  -4880689.55946  -3791469.94242  23820827.9174   23820830.6164
 -22908507.73449 -17836998.16746  20650644.5034   20650643.3824
  -7383779.67647  -5733525.65542  22969398.1834   22969400.1674
 04  7 17  2 24 29.9990000  0  8G28G13G10G19G27G 3G 8G31
 -14989944.28148 -11661562.26544  21748119.2614   21748118.6364
 -22301444.32449 -17365727.39145  20999567.6984   20999566.1054
  -7059431.75047  -5486301.06342  23167921.4644   23167922.9834
 -14355284.59049 -11170955.84445  21969745.5344   21969743.4404
 -24708044.43748 -19239748.55746  20481843.6904   20481842.6284
  -4806476.42245  -3733641.58442  23834950.2534   23834952.4014
 -22954046.55549 -17872482.97746  20641978.5894   20641977.4644
  -7499627.23047  -5823796.32142  22947353.2144   22947354.7614
 04  7 17  2 24 59.9990000  0  8G28G13G10G19G27G 3G 8G31
 -15059808.41448 -11716001.79444  21734824.3784   21734823.5694
 -22231961.40649 -17311584.91945  21012789.8474   21012788.7104
  -7060038.17247  -5486773.59142  23167805.1514   23167808.2024
 -14351249.15648 -11167811.39244  21970513.4094   21970511.0114
 -24719466.56649 -19248648.93846  20479670.2924   20479669.1554
  -4731839.24245  -3675482.88942  23849152.7374   23849155.3354
 -22999363.56249 -17907794.95246  20633355.3474   20633354.1944
  -7615338.77347  -5913960.97742  22925333.8314   22925335.7024
 04  7 17  2 25 29.9990000  0  8G28G13G10G19G27G 3G 8G31
 -15129330.38348 -11770174.68744  21721594.3784   21721594.1164
 -22162026.98049 -17257090.63045  21026098.0424   21026096.8004
  -7060069.43047  -5486797.94642  23167800.0264   23167801.2724
 -14346617.32448 -11164202.19744  21971394.9174   21971392.7724
 -24730675.69949 -19257383.33946  20477537.1984   20477536.2024
  -4656786.13745  -3616999.84142  23863435.0034   23863437.3044
 -23044464.52049 -17942938.57746  20624772.9174   20624771.7804
  -7730917.66447  -6004022.27042  22903339.9484   22903341.3044
 04  7 17  2 25 59.9990000  0  8G28G13G10G19G27G 3G 8G31
 -15198506.78148 -11824078.30644  21708430.6834   21708430.2654
 -22091639.94949 -17202243.66045  21039492.3474   21039491.2884
  -7059523.76247  -5486372.82942  23167904.4484   23167904.8624
 -14341386.34448 -11160126.14544  21972390.4874   21972387.8434
 -24741668.21149 -19265948.95246  20475445.5344   20475444.6404
  -4581316.75845  -3558192.30542  23877795.8314   23877798.4484
 -23089345.53549 -17977910.80546  20616232.0894   20616231.2224
  -7846358.11747  -6093975.70042  22881372.1444   22881373.4094
 04  7 17  2 26 29.9990000  0  8G28G13G10G19G27G 3G 8G31
 -15267339.65648 -11877714.24344  21695332.0114   21695331.7144
 -22020804.14149 -17147046.99245  21052972.0194   21052970.4334
  -7058403.99247  -5485500.30142  23168117.9334   23168117.8274
 -14335558.45748 -11155584.95144  21973499.3394   21973496.8194
 -24752445.68049 -19274347.00246  20473394.6514   20473393.6754
  -4505437.59445  -3499065.96442  23892236.2924   23892237.8274
 -23134008.67649 -18012713.22246  20607733.2614   20607732.1984
  -7961659.48847  -6183820.76942  22859430.8084   22859431.9374
 04  7 17  2 26 59.9990000  0  8G28G13G10G19G27G 3G 8G31
 -15335828.85248 -11931082.37444  21682298.8084   21682298.3824
 -21949521.27349 -17091501.96145  21066536.7534   21066535.0854
  -7056711.39547  -5484181.40242  23168439.8084   23168440.6904
 -14329133.91448 -11150578.83044  21974721.8704   21974719.1594
 -24763007.51649 -19282577.01346  20471384.4874   20471383.8904
  -4429150.32846  -3439621.78542  23906754.2764   23906755.7104
 -23178453.34049 -18047345.34246  20599275.4404   20599275.1284
  -8076818.98447  -6273555.28942  22837516.8084   22837518.3944
 04  7 17  2 27 29.9990000  0  8G28G13G10G19G27G 3G 8G31
 -15403974.51649 -11984182.81945  21669331.2534   21669330.8584
 -21877793.68449 -17035610.40945  21080185.8944   21080184.7064
  -7054447.66047  -5482417.47342  23168869.4954   23168872.1794
 -14322113.59848 -11145108.47544  21976058.0584   21976055.5464
 -24773353.44549 -19290638.78846  20469415.8624   20469414.8944
  -4352458.26646  -3379862.31642  23921348.5894   23921349.3704
 -23222679.55149 -18081807.30046  20590859.4564   20590858.5854
  -8191834.38347  -6363177.53442  22815629.6834   22815630.9564
 04  7 17  2 27 59.9990000  0  8G28G13G10G19G27G 3G 8G31
 -15471772.92648 -12037012.67244  21656429.6514   21656429.3744
 -21805619.45349 -16979370.81745  21093920.3004   21093919.2884
  -7051610.21947  -5480206.47742  23169410.0734   23169411.7184
 -14314494.12548 -11139171.22644  21977507.8314   21977505.3274
 -24783479.64549 -19298529.33646  20467488.9404   20467487.9684
  -4275359.39146  -3319785.58642  23936020.8154   23936021.9374
 -23266683.50849 -18116096.08246  20582485.4404   20582484.8154
  -8306699.31248  -6452682.52842  22793771.2304   22793773.1714
 04  7 17  2 28 29.9990000  0  8G28G13G10G19G27G 3G 8G31
 -15539228.68448 -12089575.55045  21643593.0894   21643592.6904
 -21733005.61749 -16922788.66845  21107738.3554   21107737.0774
  -7048205.18747  -5477553.24143  23170057.6904   23170059.5464
 -14306280.73448 -11132771.18844  21979070.7224   21979068.0424
 -24793390.30549 -19306251.93046  20465602.9644   20465602.4174
  -4197861.62946  -3259397.77842  23950768.2694   23950769.0624
 -23310469.37549 -18150214.91946  20574153.4644   20574152.9684
  -8421415.82848  -6542071.85942  22771941.8474   22771943.5304
 04  7 17  2 28 59.9990000  0  8G28G13G10G19G27G 3G 8G31
 -15606335.60549 -12141866.58945  21630823.3784   21630822.6794
 -21659947.52749 -16865860.34945  21121640.6834   21121639.8974
  -7044227.79747  -5474454.01542  23170815.1754   23170815.9484
 -14297467.86748 -11125904.04844  21980748.0584   21980745.0934
 -24803078.41049 -19313801.11646  20463759.1904   20463758.5854
  -4119961.51646  -3198696.33642  23965592.3554   23965593.3044
 -23354030.50449 -18184158.63946  20565864.1834   20565863.5544
  -8535974.98847  -6631338.59943  22750141.6124   22750143.6014
 04  7 17  2 29 29.9990000  0  8G28G13G10G19G27G 3G 8G31
 -15673099.12949 -12193890.04745  21618118.1674   21618117.3314
 -21586452.77349 -16808591.78545  21135626.2304   21135625.3824
  -7039684.55947  -5470913.87642  23171679.3784   23171680.0424
 -14288061.15648 -11118574.14544  21982537.6674   21982535.2334
 -24812549.23449 -19321181.01646  20461957.1364   20461956.2804
  -4041667.07847  -3137687.52542  23980490.1054   23980491.8474
 -23397371.75449 -18217931.02546  20557616.5894   20557616.0224
  -8650379.60547  -6720484.90442  22728371.0504   22728372.6874
 04  7 17  2 29 59.9990000  0  8G28G13G10G19G27G 3G 8G31
 -15739513.85549 -12245641.69545  21605480.3314   21605479.3234
 -21512518.34049 -16750980.60345  21149695.8234   21149694.9604
  -7034571.65647  -5466929.86843  23172652.2224   23172653.8974
 -14278056.08648 -11110777.97444  21984441.3234   21984439.1514
 -24821796.81649 -19328386.92646  20460197.4724   20460196.5114
  -3962976.39546  -3076370.04642  23995464.3394   23995465.8974
 -23440488.22349 -18251528.24546  20549411.7304   20549410.7844
  -8764621.68748  -6809504.62643  22706631.2304   22706633.0384
 04  7 17  2 30 29.9990000  0  8G28G13G10G19G27G 3G 8G31
 -15805580.71549 -12297122.30144  21592907.7534   21592907.1944
 -21438147.20349 -16693029.14545  21163848.1284   21163847.4374
  -7028891.58647  -5462503.86742  23173733.6754   23173734.9484
 -14267454.14548 -11102516.73344  21986459.1054   21986457.3474
 -24830821.89549 -19335419.45646  20458479.8554   20458479.1834
  -3883893.16446  -3014746.56142  24010513.1984   24010514.7534
 -23483380.41849 -18284950.68446  20541249.5344   20541248.6054
  -8878699.75848  -6898396.49842  22684923.1054   22684924.4214
 04  7 17  2 30 59.9990000  0  8G28G13G10G19G27G 3G 8G31
 -15871298.16049 -12348330.61945  21580402.0584   21580401.3784
 -21363339.79349 -16634737.73545  21178083.4874   21178082.6444
  -7022643.90647  -5457635.63643  23174922.2144   23174924.2924
 -14256254.51248 -11093789.76644  21988590.4334   21988587.7184
 -24839622.30949 -19342276.87746  20456805.5424   20456804.2304
  -3804418.47346  -2952817.94542  24025636.4014   24025637.5194
 -23526046.04749 -18318196.58946  20533130.5034   20533129.5584
  -8992609.49248  -6987157.21443  22663246.8474   22663247.9914
 04  7 17  2 31 29.9990000  0  8G28G13G10G19G27G 3G 8G31
 -15936664.32849 -12399265.21544  21567962.9094   21567962.3194
 -21288096.12949 -16576106.37545  21192402.1284   21192400.7024
  -7015828.62547  -5452325.07142  23176219.5734   23176220.9444
 -14244455.96948 -11084596.10544  21990835.5034   21990833.1794
 -24848195.66449 -19348957.34446  20455173.8314   20455172.7694
  -3724553.93446  -2890585.55042  24040834.0504   24040835.0344
 -23568483.05549 -18351264.35246  20525054.8154   20525053.6944
  -9106346.32847  -7075783.21543  22641603.1444   22641604.4684
 04  7 17  2 31 59.9990000  0  8G28G13G10G19G27G 3G 8G31
 -16001677.54749 -12449924.80444  21555591.6674   21555591.0544
 -21212416.70349 -16517135.45445  21206803.2924   21206802.3394
  -7008445.41447  -5446571.99242  23177624.3154   23177625.9254
 -14232057.16848 -11074934.71144  21993194.8234   21993192.5694
 -24856539.82849 -19355459.26346  20453586.0814   20453584.8394
  -3644300.48046  -2828050.20942  24056105.2844   24056106.9564
 -23610689.08649 -18384152.12146  20517023.6444   20517022.3044
  -9219905.80948  -7164271.00743  22619993.1904   22619994.7334
 04  7 17  2 32 29.9990000  0  8G28G13G10G19G27G 3G 8G31
 -16066339.58649 -12500310.73745  21543286.9874   21543286.0074
 -21136305.53148 -16457828.13545  21221286.6594   21221285.8234
  -7000497.56247  -5440378.92142  23179136.6514   23179137.2224
 -14219060.91048 -11064807.78144  21995667.8784   21995665.5624
 -24864656.21149 -19361783.73946  20452041.5194   20452040.4334
  -3563662.44146  -2765215.03642  24071449.3944   24071451.1164
 -23652666.06249 -18416861.41546  20509035.4644   20509034.6244
  -9333287.29347  -7252620.08642  22598417.2694   22598418.8864
 04  7 17  2 32 59.9990000  0  8G28G13G10G19G27G 3G 8G31
 -16130654.43449 -12550426.13144  21531047.9334   21531047.2844
 -21059768.42649 -16398188.90645  21235851.8004   21235851.0344
  -6991990.37147  -5433750.00942  23180755.7924   23180757.1164
 -14205471.69148 -11054218.78544  21998254.3624   21998251.5734
 -24872548.27049 -19367933.43646  20450539.9334   20450538.8234
  -3482646.45745  -2702085.34141  24086865.6984   24086868.4684
 -23694417.10949 -18449394.66046  20501090.7374   20501089.2374
  -9446491.85947  -7340831.32242  22576875.5344   22576876.5194
 04  7 17  2 33 29.9990000  0  8G28G13G10G19G27G 3G 8G31
 -16194617.06249 -12600267.07044  21518876.5424   21518875.2884
 -20982802.21548 -16338215.30445  21250497.8474   21250497.1674
  -6982920.27047  -5426682.47943  23182482.1444   23182483.6874
 -14191285.00848 -11043164.23944  22000953.6054   22000951.3004
 -24880210.13749 -19373903.73346  20449081.3864   20449080.6874
  -3401250.52345  -2638659.52741  24102353.4644   24102357.8434
 -23735936.87549 -18481747.67146  20493189.5894   20493188.5624
  -9559511.66447  -7428898.60242  22555368.2614   22555369.6984
 04  7 17  2 33 59.9990000  0  8G28G13G10G19G27G 3G 8G31
 -16258232.87149 -12649837.76945  21506770.6514   21506769.8904
 -20905414.53548 -16277913.29345  21265224.1514   21265223.2184
  -6973294.24648  -5419181.74942  23184313.9954   23184315.7304
 -14176507.25448 -11031649.10344  22003765.9564   22003762.9994
 -24887646.86349 -19379698.60146  20447666.3394   20447665.7304
  -3319483.19145  -2574944.34941  24117913.6754   24117918.4404
 -23777230.16449 -18513924.25546  20485331.8084   20485330.4484
  -9672349.49248  -7516824.05542  22533895.9724   22533897.3554
 04  7 17  2 34 29.9990000  0  8G28G13G10G19G27G 3G 8G31
 -16321499.78949 -12699136.60244  21494731.6444   21494730.4834
 -20827605.77348 -16217283.17345  21280031.1284   21280030.0464
  -6963111.78548  -5411247.40742  23186251.6984   23186253.1984
 -14161136.59848 -11019671.99144  22006690.7764   22006688.0264
 -24894855.71949 -19385315.90046  20446294.8704   20446293.9444
  -3237344.74645  -2510939.95841  24133543.1674   24133548.8394
 -23818295.01248 -18545922.84146  20477517.3864   20477515.9214
  -9785000.43448  -7604603.87443  22512458.8704   22512460.3784
 04  7 17  2 34 59.9990000  0  8G28G13G10G19G27G 3G 8G31
 -16384420.69949 -12748165.82145  21482758.1834   21482756.8904
 -20749380.52348 -16156328.50345  21294916.7144   21294916.0384
  -6952377.36347  -5402882.95043  23188294.0344   23188294.9764
 -14145177.09848 -11007236.04544  22009727.8944   22009725.3514
 -24901839.05549 -19390757.47646  20444965.8944   20444964.9954
  -3154841.46945  -2446651.42742  24149242.5114   24149249.2454
 -23859133.47349 -18577744.98146  20469746.1284   20469744.6834
  -9897464.79748  -7692238.32742  22491057.7454   22491059.1904
 04  7 17  2 35 29.9990000  0  8G28G13G10G19G27G 3G 8G31
 -16446995.35949 -12796925.24545  21470850.2454   21470849.7374
 -20670740.77748 -16095050.84345  21309881.2924   21309880.9214
  -6941092.10548  -5394089.28742  23190441.7064   23190442.2374
 -14128629.00848 -10994341.46144  22012877.0894   22012874.4684
 -24908596.08649 -19396022.71946  20443680.0424   20443679.1204
  -3071975.69546  -2382080.60742  24165013.4954   24165017.7064
 -23899744.48449 -18609389.92746  20462017.9804   20462016.7264
 -10009739.41848  -7779724.90242  22469693.1124   22469693.7694
 04  7 17  2 35 59.9990000  0  8G28G13G10G19G27G 3G 8G31
 -16509207.59849 -12845402.26245  21459011.8784   21459010.6944
 -20591672.19948 -16033439.01445  21324927.6514   21324927.1284
  -6929241.69547  -5384855.25642  23192696.5264   23192697.9954
 -14111477.15648 -10980976.39644  22016140.7924   22016138.2964
 -24915110.02749 -19401098.52546  20442440.6364   20442439.7264
  -2988734.78946  -2317217.78242  24180852.9094   24180858.9094
 -23940111.77749 -18640844.92946  20454336.1514   20454335.2574
 -10121805.58648  -7867049.07842  22448366.9014   22448368.2804
 04  7 17  2 36 29.9990000  0  8G28G13G10G19G27G 3G 8G31
 -16571067.15249 -12893604.45745  21447240.0974   21447239.0344
 -20512186.80549 -15971502.41645  21340053.2844   21340052.5974
  -6916836.88747  -5375189.22143  23195057.0654   23195058.5154
 -14093731.68448 -10967148.77444  22019517.7764   22019515.2454
 -24921389.84449 -19405991.87846  20441245.4874   20441244.2924
  -2905129.98046  -2252071.22442  24196763.2064   24196768.2224
 -23980244.42249 -18672117.06346  20446699.2144   20446698.4564
 -10233669.94548  -7954215.99542  22427079.9254   22427080.5854
 04  7 17  2 36 59.9990000  0  8G28G13G10G19G27G 3G 8G31
 -16632577.00449 -12941534.16445  21435534.9334   21435534.0074
 -20432289.61349 -15909244.94944  21355257.2144   21355256.6714
  -6903882.78547  -5365095.17542  23197522.5034   23197524.3044
 -14075396.54348 -10952861.68045  22023006.9174   22023004.4484
 -24927438.12949 -19410704.81446  20440094.5974   20440093.5194
  -2821167.22747  -2186645.74142  24212740.6834   24212745.8194
 -24020144.78949 -18703208.19746  20439106.5424   20439105.1944
 -10345332.89548  -8041225.97442  22405831.0424   22405831.6324
 04  7 17  2 37 29.9990000  0  8G28G13G10G19G27G 3G 8G31
 -16693731.08649 -12989186.64045  21423898.3554   21423896.9954
 -20351976.62548 -15846663.46245  21370540.3234   21370540.0504
  -6890374.60247  -5354569.32642  23200092.5734   23200094.8394
 -14056466.33248 -10938110.88244  22026608.8314   22026606.5304
 -24933247.79749 -19415231.82746  20438989.3004   20438988.2304
  -2736844.06246  -2120939.73542  24228787.0734   24228792.3514
 -24059806.59449 -18734113.44946  20431558.7064   20431557.7454
 -10456785.25048  -8128071.83243  22384622.7224   22384623.0974
 04  7 17  2 37 59.9990000  0  8G28G13G10G19G27G 3G 8G31
 -16754533.48849 -13036565.07844  21412327.4954   21412326.3084
 -20271253.98048 -15783762.76245  21385901.6124   21385900.9134
  -6876318.08247  -5343616.24842  23202767.7534   23202769.6874
 -14036945.99247 -10922900.24444  22030323.8944   22030321.4374
 -24938822.23449 -19419575.51046  20437928.1834   20437927.3974
  -2652166.62947  -2054957.53342  24244901.7614   24244905.7884
 -24099233.16849 -18764835.43846  20424056.0344   20424055.6164
 -10568028.35548  -8214754.64942  22363453.5264   22363454.7724
 04  7 17  2 38 29.9990000  0  8G28G13G10G19G27G 3G 8G31
 -16814982.84049 -13083668.41545  21400824.3154   21400823.1284
 -20190122.72748 -15720543.66644  21401340.3004   21401339.6944
  -6861713.72348  -5332236.27342  23205546.8864   23205547.9564
 -14016835.13747 -10907229.46545  22034150.5894   22034148.3314
 -24944159.87949 -19423734.71946  20436912.7304   20436911.7374
  -2567136.09047  -1988700.00042  24261081.8944   24261086.5934
 -24138422.51649 -18795372.57546  20416598.7534   20416598.1554
 -10679058.27748  -8301271.36043  22342325.1904   22342325.8974
 04  7 17  2 38 59.9990000  0  8G28G13G10G19G27G 3G 8G31
 -16875078.05149 -13130495.80645  21389388.5424   21389387.1714
 -20108583.50848 -15657006.69444  21416856.6754   21416856.2064
  -6846561.89147  -5320429.70542  23208430.3474   23208430.9564
 -13996133.23848 -10891098.12644  22038090.0894   22038087.9404
 -24949258.73849 -19427707.85446  20435942.3084   20435941.2024
  -2481754.34847  -1922168.69342  24277329.9644   24277334.3514
 -24177372.36749 -18825723.03546  20409186.7534   20409185.9764
 -10789870.77348  -8387618.59943  22321237.7694   22321238.6364
 04  7 17  2 39 29.9990000  0  8G28G29G13G10G19G27G 8G31
 -16934824.09449 -13177051.11645  21378019.3004   21378018.1204
   -159451.00055   -106524.56251  24415083.2224   24415085.0694
 -20026643.31248 -15593157.26044  21432449.4954   21432448.8354
  -6830869.11747  -5308201.64742  23211416.8624   23211417.6984
 -13974846.06248 -10874510.73644  22042140.9874   22042138.7614
 -24954122.87549 -19431498.09746  20435016.5974   20435015.5584
 -24216087.81249 -18855890.87346  20401819.7454   20401818.2454
 -10900467.90248  -8473798.07843  22300191.7454   22300192.8434
 04  7 17  2 39 59.9990000  0  8G28G29G13G10G19G27G 8G31
 -16994225.58649 -13223337.94145  21366715.5034   21366714.0504
   -262813.48846   -187066.60341  24395414.0034   24395416.5504
 -19944309.26248 -15529000.92844  21448117.2694   21448116.8274
  -6814641.74647  -5295556.99442  23214504.0654   23214506.3744
 -13952979.57848 -10857471.93144  22046301.9094   22046299.8624
 -24958756.60249 -19435108.79646  20434134.8314   20434133.8824
 -24254572.66449 -18885879.04646  20394496.0034   20394495.2454
 -11010851.77048  -8559811.34643  22279186.3864   22279187.1324
 04  7 17  2 40 29.9990000  0  8G28G29G13G10G19G27G 8G31
 -17053275.83249 -13269351.08045  21355478.5344   21355477.2694
   -366048.88745   -267509.71141  24375768.0734   24375771.4954
 -19861576.47748 -15464533.89844  21463860.6754   21463860.5074
  -6797874.59448  -5282491.73042  23217695.8784   23217697.2024
 -13930527.46547 -10839976.80344  22050574.5194   22050572.2144
 -24963152.23049 -19438533.98746  20433298.3554   20433297.2064
 -24292819.58649 -18915681.84546  20387217.9484   20387216.4524
 -11121012.50048  -8645650.76043  22258223.1444   22258224.3274
 04  7 17  2 40 59.9990000  0  8G28G29G13G10G19G27G 8G31
 -17111971.16849 -13315087.66045  21344308.7694   21344308.0344
   -469151.42245   -347849.17641  24356149.0504   24356150.9374
 -19778443.27048 -15399754.84544  21479680.3704   21479680.0384
  -6780565.79347  -5269004.33842  23220988.6364   23220990.5974
 -13907486.99648 -10822023.20244  22054958.8394   22054956.8084
 -24967305.18049 -19441770.04946  20432508.0974   20432507.0854
 -24330824.12149 -18945295.79946  20379985.9644   20379984.9094
 -11230943.44548  -8731311.08243  22237304.3084   22237305.1874
 04  7 17  2 41 29.9990000  0  8G28G29G13G10G19G27G 8G31
 -17170309.15249 -13360545.77245  21333207.5344   21333206.6124
   -572116.67245   -428081.75041  24336555.7694   24336557.8234
 -19694909.24248 -15334663.46544  21495576.9484   21495576.1444
  -6762714.55548  -5255094.34342  23224386.1054   23224387.0344
 -13883856.69948 -10803610.00544  22059455.7924   22059454.3234
 -24971212.44549 -19444814.68546  20431764.6834   20431763.6674
 -24368583.26249 -18974718.53646  20372800.4564   20372799.5464
 -11340639.37548  -8816788.27643  22216429.5034   22216431.1364
 04  7 17  2 41 59.9990000  0  8G28G29G13G10G19G27G 8G31
 -17228289.43749 -13405725.16545  21322174.5814   21322173.3084
   -674942.21545   -508205.39841  24316987.9644   24316990.8664
 -19610976.63348 -15269261.49844  21511548.0894   21511547.5934
  -6744322.34048  -5240762.76142  23227886.1514   23227887.0974
 -13859637.23848 -10784737.70744  22064064.5264   22064062.4804
 -24974873.02349 -19447667.09246  20431068.0974   20431067.1944
 -24406096.21549 -19003949.43046  20365662.0504   20365661.1594
 -11450097.14848  -8902079.90743  22195600.5584   22195601.3744
 04  7 17  2 42 29.9990000  0  8G28G29G13G10G19G27G 8G31
 -17285914.89549 -13450628.07645  21311208.6124   21311207.6244
   -777628.87145   -588220.82841  24297446.9014   24297450.0624
 -19526650.31248 -15203552.75344  21527595.2924   21527594.4524
  -6725393.66048  -5226013.15642  23231488.3784   23231489.2264
 -13834832.43447 -10765409.30544  22068784.8554   22068782.6324
 -24978288.84449 -19450328.78046  20430417.8314   20430416.8154
 -24443364.86749 -19032989.97546  20358570.2304   20358568.9604
 -11559316.58248  -8987185.82843  22174816.8624   22174817.8784
 04  7 17  2 42 59.9990000  0  8G28G29G13G10G19G27G 8G31
 -17343183.85949 -13495253.18145  21300310.2844   21300309.8944
   -880172.73845   -668124.97541  24277933.8474   24277935.9014
 -19441930.62548 -15137537.48044  21543717.0034   21543716.7184
  -6705928.75848  -5210845.71943  23235192.4724   23235193.6834
 -13809441.47347 -10745624.14244  22073616.9484   22073613.8744
 -24981457.58249 -19452797.93546  20429815.1594   20429814.0894
 -24480387.28949 -19061838.62946  20351524.8154   20351523.9254
 -11668293.12948  -9072102.47143  22154079.1364   22154079.9764
 04  7 17  2 43 29.9990000  0  8G28G29G13G10G19G27G 8G31
 -17400098.29349 -13539602.04645  21289480.1984   21289478.7304
   -982573.48845   -747917.67341  24258447.1284   24258450.3704
 -19356821.68748 -15071218.92544  21559912.3474   21559912.0584
  -6685931.10548  -5195263.12343  23238997.3624   23238999.5384
 -13783467.14548 -10725384.41944  22078559.7144   22078557.0854
 -24984380.20349 -19455075.34146  20429259.0344   20429258.0304
 -24517164.18749 -19090495.96846  20344526.7454   20344525.6204
 -11777025.68448  -9156829.00943  22133387.5504   22133388.4524
 04  7 17  2 43 59.9990000  0  8G28G29G13G10G19G27G 8G31
 -17456657.43049 -13583674.03245  21278717.1594   21278715.8664
  -1084828.33246   -827596.75141  24238988.3394   24238991.0774
 -19271324.94948 -15004598.15544  21576182.1984   21576181.8664
  -6665401.80948  -5179266.27442  23242904.1364   23242905.8514
 -13756909.61748 -10704690.24944  22083613.2064   22083610.6514
 -24987055.26249 -19457159.82846  20428750.0344   20428748.6754
 -24553693.87149 -19118960.64946  20337575.3004   20337574.4134
 -11885510.59048  -9241362.57343  22112743.9564   22112744.2614
 04  7 17  2 44 29.9990000  0  8G28G29G13G10G19G27G 8G31
 -17512861.14549 -13627469.08145  21268022.0194   21268020.8944
  -1186934.89546   -907160.19841  24219558.7454   24219560.8624
 -19185441.85948 -14937676.36244  21592525.0194   21592525.2024
  -6644342.37947  -5162856.34142  23246911.6444   23246913.6084
 -13729769.77348 -10683542.33544  22088777.9954   22088775.1674
 -24989481.53148 -19459050.38346  20428288.4014   20428287.2494
 -24589975.34049 -19147231.92246  20330671.0504   20330670.2144
 -11993744.59848  -9325700.64143  22092147.2304   22092147.8904
 04  7 17  2 44 59.9990000  0  8G28G29G13G10G19G27G 8G31
 -17568707.87549 -13670985.95345  21257394.7064   21257393.7694
  -1288889.32846   -986605.09942  24200157.0344   24200159.1754
 -19099173.48048 -14870454.33644  21608941.8314   21608941.2764
  -6622753.20347  -5146033.62042  23251019.6754   23251021.7844
 -13702047.21548 -10661940.35144  22094053.1834   22094050.9444
 -24991657.01649 -19460745.55046  20427874.2304   20427873.0934
 -24626006.86749 -19175308.43846  20323814.7064   20323813.2764
 -12101723.36348  -9409839.80143  22071599.1204   22071600.1674
 04  7 17  2 45 29.9990000  0  8G28G29G13G10G19G27G 8G31
 -17624200.65249 -13714227.02445  21246834.5734   21246833.7104
  -1390692.51246  -1065932.16441  24180784.7694   24180786.6204
 -19012524.37948 -14802935.65544  21625430.6514   21625429.9874
  -6600638.75047  -5128801.60442  23255227.9404   23255230.2694
 -13673745.89148 -10639887.37944  22099438.7064   22099436.1324
 -24993583.57449 -19462246.75946  20427507.6834   20427506.6634
 -24661790.35249 -19203191.67846  20317005.2694   20317004.2374
 -12209446.82048  -9493780.01443  22051099.9094   22051101.1244
 04  7 17  2 45 59.9990000  0  8G28G29G13G10G19G27G 8G31
 -17679335.54349 -13757189.21645  21236342.9014   21236341.6874
  -1492338.28946  -1145136.56342  24161442.2064   24161444.1794
 -18925493.04748 -14735119.12444  21641992.0344   21641991.9644
  -6577997.12547  -5111158.81342  23259536.5114   23259538.7724
 -13644862.72348 -10617381.02644  22104935.1124   22104932.7844
 -24995256.59849 -19463550.39646  20427189.3474   20427188.2694
 -24697321.15649 -19230878.01346  20310243.8864   20310242.7374
 -12316908.03948  -9577515.88843  22030650.9334   22030651.6124
 04  7 17  2 46 29.9990000  0  8G28G29G13G10G19G27G 8G31
 -17734115.34049 -13799874.72145  21225918.7764   21225917.4334
  -1593827.29346  -1224218.81942  24142129.1904   24142131.1054
 -18838084.68048 -14667008.78944  21658625.5734   21658625.2224
  -6554832.96946  -5093108.82242  23263944.5194   23263946.3194
 -13615401.66847 -10594424.37244  22110541.1904   22110538.9764
 -24996677.86348 -19464657.88846  20426918.7224   20426917.5624
 -24732600.99649 -19258368.79346  20303530.1674   20303529.5624
 -12424106.89148  -9661047.32643  22010251.5974   22010252.5194
 04  7 17  2 46 59.9990000  0  8G28G29G13G10G19G27G 8G31
 -17788541.00049 -13842284.27145  21215561.3314   21215560.0654
  -1695158.23446  -1303177.95542  24122846.6674   24122848.6474
 -18750301.90248 -14598606.74044  21675330.1834   21675329.7024
  -6531149.03947  -5074653.84742  23268451.5034   23268452.7184
 -13585364.82047 -10571019.04844  22116257.1054   22116255.1284
 -24997847.55148 -19465569.32246  20426696.2144   20426694.9764
 -24767630.13749 -19285664.20146  20296864.3474   20296863.5194
 -12531041.20748  -9744372.63744  21989902.6284   21989903.4604
 04  7 17  2 47 29.9990000  0  8G28G29G13G10G19G27G 8G31
 -17842610.96949 -13884416.65245  21205272.5974   21205271.0894
  -1796326.77746  -1382010.53442  24103595.7764   24103596.0224
 -18662145.40648 -14529913.45644  21692105.7694   21692105.3124
  -6506945.39546  -5055793.85242  23273057.5654   23273058.0544
 -13554751.31247 -10547164.36244  22122082.4094   22122080.2804
 -24998763.10248 -19466282.72446  20426522.0344   20426520.5034
 -24802406.05949 -19312762.30546  20290246.8084   20290245.8194
 -12637706.48848  -9827488.31743  21969604.4334   21969605.3354
 04  7 17  2 47 59.9990000  0  8G28G29G13G10G19G27G 8G31
 -17896323.78949 -13926270.74145  21195051.1984   21195049.9994
  -1897329.60946  -1460713.92942  24084375.7224   24084376.1984
 -18573616.15248 -14460929.70344  21708952.4484   21708951.5114
  -6482222.55947  -5036529.31942  23277762.2694   23277762.9684
 -13523560.88747 -10522860.14044  22128017.6984   22128015.6474
 -24999422.23448 -19466796.32846  20426396.6054   20426395.3354
 -24836926.58649 -19339661.39246  20283677.5734   20283676.5464
 -12744098.07848  -9910390.72644  21949358.9644   21949359.6084
 04  7 17  2 48 29.9990000  0  8G28G29G13G10G19G27G 8G31
 -17949682.93049 -13967849.23645  21184897.0814   21184895.8044
  -1998167.77346  -1539289.06842  24065185.6904   24065187.2104
 -18484719.59048 -14391659.73644  21725868.8314   21725868.2104
  -6456985.86346  -5016864.35442  23282564.3394   23282564.7144
 -13491798.11348 -10498109.95044  22134061.9724   22134059.8474
 -24999827.30949 -19467111.95946  20426319.5264   20426318.5154
 -24871194.01649 -19366363.24246  20277157.0344   20277156.0114
 -12850216.41448  -9993080.20144  21929165.4804   21929165.8744
 04  7 17  2 48 59.9990000  0  8G28G29G13G10G19G27G 8G31
 -18002683.95749 -14009148.68545  21174811.6054   21174810.3394
  -2098834.43746  -1617730.48042  24046030.2144   24046030.9404
 -18395453.39148 -14322101.74844  21742855.9804   21742855.5264
  -6431232.72347  -4996796.98942  23287465.1364   23287466.3624
 -13459459.71948 -10472911.19444  22140215.8084   22140213.7494
 -24999973.17249 -19467225.60146  20426291.6444   20426290.5464
 -24905203.69549 -19392864.25146  20270685.3234   20270684.3664
 -12956054.05548 -10075550.97744  21909025.1364   21909024.9294
 04  7 17  2 49 29.9990000  0  8G28G29G13G10G19G27G 8G31
 -18055329.35249 -14050171.03445  21164793.2694   21164792.1444
  -2199329.70346  -1696038.41042  24026906.1754   24026907.4054
 -18305821.82848 -14252259.08344  21759912.2454   21759912.3084
  -6404967.30547  -4976330.46442  23292463.5194   23292464.2884
 -13426549.14548 -10447266.60844  22146478.8234   22146476.4914
 -24999861.14849 -19467138.28346  20426313.3554   20426311.8514
 -24938956.85549 -19419165.37346  20264262.1364   20264261.4564
 -13061610.44148 -10157802.57343  21888938.0814   21888938.6084
 04  7 17  2 49 59.9990000  0  8G28G29G13G10G19G27G 8G31
 -18107618.61749 -14090915.85945  21154843.2534   21154841.8044
  -2299650.66846  -1774210.40842  24007815.7224   24007816.7304
 -18215826.34848 -14182132.82344  21777037.7844   21777037.6984
  -6378190.98846  -4955465.83142  23297558.5654   23297559.9684
 -13393067.05948 -10421176.66744  22152850.2844   22152848.0034
 -24999489.83649 -19466848.93446  20426383.7764   20426382.8624
 -24972451.91049 -19445265.39946  20257888.1054   20257887.0114
 -13166881.87548 -10239832.12344  21868905.0264   21868905.7694
 04  7 17  2 50 29.9990000  0  8G28G29G13G10G19G27G 8G31
 -18159551.48049 -14131382.98245  21144960.4724   21144959.4014
  -2399794.81246  -1852244.61342  23988758.8864   23988759.6324
 -18125469.27748 -14111724.82244  21794231.9804   21794231.4484
  -6350905.50446  -4934204.46042  23302751.3554   23302753.2334
 -13359014.31248 -10394642.06544  22159329.9874   22159328.1404
 -24998857.85949 -19466356.45646  20426503.7924   20426502.8744
 -25005687.64849 -19471163.33746  20251563.8474   20251562.4724
 -13271865.03148 -10321637.07244  21848928.0034   21848928.2184
 04  7 17  2 50 59.9990000  0  8G28G29G13G10G19G27G 8G31
 -18211126.84849 -14171571.53245  21135146.0814   21135144.6054
  -2499758.80947  -1930138.54242  23969736.1984   23969737.1754
 -18034751.74648 -14041035.90744  21811495.1984   21811494.6444
  -6323111.59447  -4912546.91342  23308040.0814   23308042.3944
 -13324391.18448 -10367663.01344  22165918.4174   22165916.9564
 -24997963.68749 -19465659.66046  20426673.8624   20426672.7064
 -25038661.85249 -19496857.47046  20245288.6124   20245287.8274
 -13376555.98848 -10403214.32344  21829005.4564   21829005.9014
 04  7 17  2 51 29.9990000  0  8G28G29G13G10G19G27G 8G31
 -18262341.27349 -14211478.83445  21125400.1754   21125398.7844
  -2599536.70746  -2007887.37742  23950749.1284   23950749.1444
 -17943672.14548 -13970064.88244  21828827.0974   21828826.5264
  -6294807.62547  -4890491.91143  23313425.9954   23313428.9254
 -13289194.99248 -10340237.41944  22172615.9804   22172614.3394
 -24996802.36749 -19464754.71946  20426895.2064   20426894.2534
 -25071370.71149 -19522344.86646  20239064.3554   20239063.4954
 -13480947.89548 -10484558.53444  21809140.2694   21809140.3944
 04  7 17  2 51 59.9990000  0  8G28G29G13G10G19G27G 8G31
 -18313201.74649 -14251110.32145  21115721.8554   21115720.4954
  -2699132.83646  -2085494.63942  23931796.3624   23931796.8584
 -17852239.47748 -13898818.72844  21846225.8554   21846225.9444
  -6266002.59447  -4868046.48943  23318907.3624   23318909.5774
 -13253433.89548 -10312371.63344  22179421.2224   22179419.6244
 -24995380.03949 -19463646.38646  20427165.8554   20427164.5464
 -25103819.92649 -19547629.91746  20232889.6904   20232888.2454
 -13585044.68748 -10565672.81144  21789331.5734   21789331.7574
 04  7 17  2 52 29.9990000  0  8G28G29G13G10G19G27G 8G31
 -18363699.80949 -14290459.42345  21106112.2144   21106110.8084
  -2798536.54346  -2162951.93742  23912879.9094   23912880.6904
 -17760447.37548 -13827292.51043  21863693.8004   21863693.5384
  -6236689.89547  -4845205.46242  23324485.4174   23324486.8554
 -13217100.67248 -10284060.05944  22186335.2614   22186333.7534
 -24993687.16049 -19462327.22446  20427487.7374   20427486.3974
 -25135999.52349 -19572704.86246  20226765.8944   20226764.9214
 -13688834.76648 -10646548.07044  21769580.5114   21769581.3044
 04  7 17  2 52 59.9990000  0  8G28G29G13G10G19G27G 8G31
 -18413842.22349 -14329531.39145  21096570.5114   21096569.2304
  -2897751.95346  -2240262.43042  23893999.8554   23894000.3584
 -17668304.89848 -13755493.23944  21881227.9644   21881227.7334
  -6206878.35947  -4821975.72142  23330158.5584   23330160.4294
 -13180203.23848 -10255308.83544  22193356.8944   22193354.8124
 -24991729.63349 -19460801.87746  20427860.3394   20427858.8944
 -25167915.67649 -19597574.55846  20220692.3864   20220691.1514
 -13792321.90248 -10727187.27744  21749887.4724   21749887.8744
 04  7 17  2 53 29.9990000  0  8G28G29G13G10G19G27G 8G31
 -18463628.15649 -14368325.58945  21087095.9954   21087094.6324
  -2996775.90646  -2317423.80042  23875156.9254   23875157.0154
 -17575813.06248 -13683421.75743  21898828.5814   21898828.4994
  -6176568.99247  -4798358.09942  23335926.3084   23335928.1324
 -13142741.77348 -10226118.10944  22200485.6984   22200483.4834
 -24989505.49649 -19459068.77446  20428283.5424   20428282.5934
 -25199566.52049 -19622237.50746  20214669.7844   20214668.1204
 -13895501.96948 -10807587.20744  21730252.8944   21730253.0894
 04  7 17  2 53 59.9990000  0  8G28G29G13G10G19G27G 8G31
 -18513058.67649 -14406842.82445  21077689.8944   21077688.4564
  -3095606.92646  -2394434.90142  23856349.2764   23856349.8554
 -17482975.55148 -13611080.89144  21916495.2764   21916494.8004
  -6145764.87947  -4774354.93042  23341788.4174   23341790.3944
 -13104718.78948 -10196489.83144  22207721.1904   22207719.0654
 -24987014.60549 -19457127.79746  20428757.5734   20428756.3124
 -25230952.05949 -19646693.71546  20208697.0034   20208695.8194
 -13998372.89848 -10887746.26243  21710677.0504   21710677.3554
 04  7 17  2 54 29.9990000  0  8G28G29G13G10G19G27G 8G31
 -18562131.43449 -14445081.30445  21068351.7454   21068350.4874
  -3194240.25446  -2471291.88442  23837580.0034   23837580.5114
 -17389791.73848 -13538470.22743  21934227.6984   21934227.2494
  -6114465.58646  -4749965.91742  23347744.2224   23347745.7964
 -13066133.19948 -10166423.16944  22215063.7694   22215061.3744
 -24984253.79749 -19454976.48446  20429282.8624   20429281.4524
 -25262069.35249 -19670940.93046  20202775.3234   20202773.9954
 -14100929.33248 -10967660.23644  21691161.2694   21691161.1244
 04  7 17  2 54 59.9990000  0  8G28G29G13G10G19G27G 8G31
 -18610848.66849 -14483042.73045  21059081.0114   21059079.5934
  -3292675.58646  -2547994.62642  23818847.5504   23818848.8004
 -17296266.21548 -13465593.23744  21952024.8234   21952024.5624
  -6082675.24647  -4725194.26842  23353794.1984   23353795.4564
 -13026988.39548 -10135920.74644  22222513.2144   22222510.4604
 -24981224.16449 -19452615.72146  20429859.4254   20429858.2964
 -25292918.99249 -19694979.56246  20196904.7924   20196903.4684
 -14203170.39548 -11047328.48044  21671705.1204   21671705.2844
 04  7 17  2 55 29.9990000  0  8G28G29G13G10G19G27G 8G31
 -18659212.30149 -14520728.64045  21049878.0584   21049876.3584
  -3390912.11746  -2624542.45842  23800154.0264   23800155.6124
 -17202402.66048 -13392452.89644  21969886.7454   21969886.4604
  -6050397.66447  -4700042.99242  23359936.2924   23359938.0584
 -12987287.32448 -10104984.89744  22230067.9174   22230065.7654
 -24977926.51649 -19450046.09446  20430486.8624   20430485.8704
 -25323501.74249 -19718810.22846  20191085.0584   20191083.7184
 -14305094.59048 -11126749.81444  21652309.6594   21652309.5504
 04  7 17  2 55 59.9990000  0  8G28G29G13G10G19G27G 8G31
 -18707216.44949 -14558134.42145  21040742.8474   21040741.5654
  -3488941.56246  -2700928.91642  23781499.8554   23781501.0894
 -17108197.46548 -13319046.30944  21987813.0654   21987813.4374
  -6017629.04747  -4674509.04742  23366172.1444   23366173.7104
 -12947025.45748 -10073612.06144  22237729.2844   22237727.3864
 -24974353.77049 -19447262.07946  20431166.6674   20431165.3864
 -25353810.99249 -19742427.76546  20185317.5974   20185316.0304
 -14406693.09848 -11205917.35144  21632976.0504   21632975.7264
 04  7 17  2 56 29.9990000  0  8G28G29G13G10G19G27G 8G31
 -18754864.30949 -14595262.59046  21031675.5734   21031674.5894
  -3586764.76246  -2777154.69842  23762884.9094   23762886.0774
 -17013655.99648 -13245377.69344  22005803.9094   22005803.7224
  -5984374.66847  -4648596.61042  23372500.3084   23372501.9994
 -12906207.40248 -10041805.83744  22245496.8864   22245494.7224
 -24970508.29349 -19444265.55846  20431898.1754   20431897.4214
 -25383848.26249 -19765833.38146  20179601.3234   20179599.9994
 -14507965.89848 -11284831.10844  21613704.0504   21613704.5424
 04  7 17  2 56 59.9990000  0  8G28G29G13G10G19G27G 8G31
 -18802155.52749 -14632112.83146  21022676.5344   21022675.5154
  -3684378.69947  -2853217.37742  23744309.6364   23744311.0774
 -16918779.84048 -13171448.31043  22023858.1834   22023858.0854
  -5950635.89546  -4622306.69942  23378920.7844   23378922.2804
 -12864833.75048 -10009566.68244  22253370.0264   22253368.0114
 -24966388.44949 -19441055.26446  20432682.3084   20432681.2224
 -25413612.46549 -19789026.22046  20173937.3394   20173936.0264
 -14608909.47349 -11363488.31944  21594495.4404   21594495.7334
 04  7 17  2 57 29.9990000  0  8G28G29G13G10G19G27G 8G31
 -18849091.91049 -14668686.59746  21013744.9954   21013743.6874
  -3781782.51647  -2929116.36342  23725774.5734   23725775.2844
 -16823572.83648 -13097261.08743  22041975.4404   22041975.5894
  -5916416.66446  -4595642.41342  23385432.0034   23385433.6204
 -12822907.82848  -9976897.15844  22261348.6834   22261346.4524
 -24961995.00449 -19437631.76846  20433518.3704   20433517.5344
 -25443104.83649 -19812007.24946  20168325.3154   20168324.1714
 -14709522.39548 -11441887.89244  21575348.9094   21575349.6874
 04  7 17  2 57 59.9990000  0  8G28G29G13G10G19G27G 8G31
 -18895674.55949 -14704984.71845  21004880.2764   21004878.8314
  -3878974.73447  -3004850.45642  23707279.2454   23707280.4914
 -16728038.45348 -13022818.78344  22060154.9874   22060155.4174
  -5881720.09446  -4568606.19642  23392034.3004   23392035.9804
 -12780431.91048  -9943799.08744  22269431.1834   22269429.1514
 -24957327.99249 -19433995.12046  20434406.3154   20434405.3944
 -25472324.36349 -19834775.66546  20162764.9804   20162763.4334
 -14809802.60549 -11520028.18444  21556266.4874   21556266.8154
 04  7 17  2 58 29.9990000  0  8G28G29G13G10G19G27G 8G31
 -18941908.28949 -14741010.94345  20996082.6674   20996080.5854
  -3975957.66047  -3080421.51142  23688824.0344   23688824.8974
 -16632183.75048 -12948126.86643  22078395.8784   22078396.0624
  -5846553.17246  -4541203.44242  23398726.9954   23398728.4644
 -12737412.06648  -9910277.16944  22277617.3004   22277615.9914
 -24952390.89148 -19430148.01646  20435345.8474   20435344.7804
 -25501275.14549 -19857334.68546  20157256.1834   20157254.3274
 -14909751.77348 -11597910.53244  21537246.5424   21537246.8044
 04  7 17  2 58 59.9990000  0  8G28G29G13G10G19G27G 8G31
 -18987780.89849 -14776755.78045  20987353.0734   20987351.6444
  -4072716.47747  -3155817.90142  23670411.6594   23670412.2694
 -16535998.50047 -12873177.38243  22096699.5264   22096699.2654
  -5810905.68047  -4513426.25242  23405510.2844   23405511.8274
 -12693837.66048  -9876323.14244  22285909.3784   22285907.9874
 -24947170.62149 -19426080.26146  20436339.1054   20436338.3704
 -25529943.75049 -19879673.83446  20151800.5894   20151798.9404
 -15009354.36348 -11675522.83544  21518293.1284   21518293.1444
 04  7 17  2 59 29.9990000  0  9G28G29G13G 7G10G19G27G 8G31
 -19033298.41449 -14812223.91746  20978691.3784   20978690.0774
  -4169254.39147  -3231042.17442  23652040.6444   23652042.2144
 -16439490.35548 -12797976.28443  22115064.4334   22115064.4404
   -165248.57014                  24002405.331
  -5774785.43047  -4485280.63642  23412383.4484   23412385.7964
 -12649715.75048  -9841942.48144  22294305.7224   22294303.6084
 -24941671.73049 -19421795.41046  20437385.9014   20437384.6904
 -25558335.16449 -19901796.99346  20146397.5894   20146396.1754
 -15108613.29348 -11752867.33644  21499404.3944   21499404.6324
 04  7 17  2 59 59.9990000  0  9G28G29G13G 7G10G19G27G 8G31
 -19078472.66449 -14847424.58145  20970094.9334   20970093.2454
  -4265580.94147  -3306101.71042  23633710.6444   23633711.6324
 -16342673.69948 -12722534.79243  22133487.7844   22133487.6244
   -272019.87945   -193665.20351  23982087.3944   23982094.5464
  -5738206.54346  -4456777.65543  23419344.5114   23419346.5384
 -12605059.67648  -9807145.59144  22302803.5974   22302801.3124
 -24935905.26249 -19417302.05046  20438483.1514   20438481.6794
 -25586460.18049 -19923712.58146  20141045.6594   20141044.1874
 -15207537.30948 -11829950.88244  21480579.6364   21480579.9334
 04  7 17  3  0 29.9990000  0  9G28G29G13G 7G10G19G27G 8G31
 -19123306.84049 -14882360.25145  20961563.5264   20961561.5264
  -4361696.45347  -3380996.86342  23615420.6124   23615420.9564
 -16245553.66848 -12646856.91543  22151968.9644   22151969.1834
   -378748.35945   -276829.89241  23961778.0894   23961784.2764
  -5701174.28547  -4427921.43242  23426391.6674   23426394.5154
 -12559873.66448  -9771935.76344  22311401.7924   22311399.5894
 -24929873.13349 -19412601.68646  20439630.8234   20439629.4954
 -25614320.60549 -19945421.99246  20135744.1284   20135742.9644
 -15306126.27048 -11906773.34944  21461818.6204   21461818.7064
 04  7 17  3  0 59.9990000  0  9G28G29G13G 7G10G19G27G 8G31
 -19167800.13749 -14917030.29545  20953096.3394   20953094.5304
  -4457597.30946  -3455724.79942  23597171.1204   23597172.0654
 -16148131.46548 -12570943.57443  22170507.9874   22170508.2844
   -485430.26245   -359958.31041  23941476.5654   23941483.1874
  -5663689.38746  -4398712.46242  23433524.5194   23433527.2804
 -12514158.36348  -9736313.50344  22320101.4334   22320099.4524
 -24923573.06649 -19407692.54046  20440829.5584   20440828.3314
 -25641913.90649 -19966923.27746  20130493.3084   20130491.8004
 -15404375.94948 -11983331.43544  21443122.2614   21443122.0774
 04  7 17  3  1 29.9990000  0  9G28G29G13G 7G10G19G27G 8G31
 -19211946.83249 -14951430.26745  20944695.8004   20944693.9954
  -4553275.44547  -3530279.15242  23578964.0974   23578965.3744
 -16050403.84448 -12494792.24443  22189105.2064   22189105.7144
   -592057.91446   -443044.45241  23921184.6834   23921192.1874
  -5625748.68046  -4369148.34142  23440743.9484   23440747.1754
 -12467909.60248  -9700275.57644  22328902.0194   22328900.1634
 -24916998.34048 -19402569.37546  20442080.7064   20442079.7144
 -25669233.51249 -19988211.21346  20125294.1594   20125293.1364
 -15502277.73048 -12059618.42944  21424492.2534   21424492.1904
 04  7 17  3  1 59.9990000  0  9G28G29G13G 7G10G19G27G 8G31
 -19255745.30949 -14985558.88645  20936361.0654   20936359.1474
  -4648726.21147  -3604656.35442  23560800.4484   23560801.4094
 -15952370.55148 -12418402.74243  22207760.8944   22207761.0114
   -698626.51646   -526084.55341  23900905.0034   23900912.3084
  -5587352.41846  -4339229.20942  23448051.0424   23448053.3624
 -12421126.73448  -9663821.43244  22337804.6204   22337802.3584
 -24910146.13749 -19397230.00246  20443384.7064   20443383.4484
 -25696276.59449 -20009283.69646  20120148.0194   20120146.9684
 -15599826.55149 -12135630.38444  21405929.1594   21405929.3194
 04  7 17  3  2 29.9990000  0  9G28G29G13G 7G10G19G27G 8G31
 -19299196.08249 -15019416.57645  20928092.6594   20928090.7804
  -4743947.69147  -3678854.91042  23542680.7064   23542681.3944
 -15854034.88348 -12341777.62043  22226473.3234   22226473.5034
   -805134.19146   -609077.14442  23880638.4334   23880644.2884
  -5548503.13747  -4308957.08242  23455444.1364   23455445.6714
 -12373811.95348  -9626952.86744  22346808.6054   22346806.3154
 -24903015.89549 -19391673.97546  20444741.7924   20444740.4994
 -25723042.14849 -20030139.94646  20115054.7844   20115053.8704
 -15697019.80949 -12211365.29844  21387433.8784   21387433.8944
 04  7 17  3  2 59.9990000  0  9G28G29G13G 7G10G19G27G 8G31
 -19342296.51249 -15053001.27245  20919890.5974   20919889.0694
  -4838934.71147  -3752870.79842  23524604.5584   23524605.9054
 -15755395.77048 -12264916.02943  22245243.5734   22245243.4764
   -911575.81646   -692018.27241  23860382.6754   23860388.4834
  -5509200.58647  -4278331.75842  23462923.1904   23462925.4524
 -12325963.87948  -9589668.70544  22355913.6904   22355911.0584
 -24895603.65249 -19385898.21346  20446152.0584   20446150.7844
 -25749526.72749 -20050777.27546  20110015.0424   20110013.7494
 -15793851.70749 -12286818.63144  21369007.4874   21369007.0974
 04  7 17  3  3 29.9990000  0  9G28G29G13G 7G10G19G27G 8G31
 -19385045.88749 -15086312.40645  20911755.6284   20911753.8584
  -4933683.48447  -3826701.03942  23506574.8864   23506575.4214
 -15656455.21947 -12187819.57843  22264071.3004   22264071.4334
  -1017948.14846   -774905.48242  23840140.4334   23840146.1364
  -5469446.02747  -4247354.18342  23470488.6284   23470489.7024
 -12277583.29348  -9551969.61244  22365120.3314   22365118.0584
 -24887907.55549 -19379901.24846  20447616.6754   20447615.5264
 -25775728.17649 -20071193.98346  20105028.9254   20105027.6754
 -15890318.25449 -12361987.27144  21350650.2764   21350649.7804
 04  7 17  3  3 59.9990000  0  9G28G29G13G 7G10G19G27G 8G31
 -19427445.81649 -15119351.24545  20903687.2764   20903685.2884
  -5028192.62146  -3900344.56942  23488590.3624   23488591.2264
 -15557216.26248 -12110490.61243  22282955.8234   22282956.0224
  -1124249.64546   -857737.42742  23819911.1594   23819916.8474
  -5429242.79347  -4216027.03342  23478139.0264   23478140.7804
 -12228672.88348  -9513857.69344  22374428.2764   22374425.5774
 -24879927.61349 -19373683.13946  20449134.9564   20449133.8784
 -25801646.26649 -20091389.88646  20100096.8944   20100095.9874
 -15986417.46548 -12436869.67844  21332363.4014   21332362.8944
 04  7 17  3  4 29.9990000  0  9G28G29G13G 7G10G19G27G 8G31
 -19469494.05949 -15152116.04845  20895685.7454   20895683.7494
  -5122457.59446  -3973797.84042  23470652.5814   23470652.8394
 -15457679.04347 -12032929.20543  22301897.1834   22301897.2264
  -1230475.96146   -940510.86841  23799696.9334   23799702.3514
  -5388591.18747  -4184350.45242  23485874.0424   23485876.1164
 -12179232.07048  -9475332.43644  22383835.9804   22383833.3514
 -24871660.78949 -19367241.47146  20450708.2534   20450706.9014
 -25827278.29749 -20111362.87946  20095219.2374   20095217.9404
 -16082144.27049 -12511461.88844  21314146.7694   21314146.3704
 04  7 17  3  4 59.9990000  0  9G28G29G13G 7G10G19G27G 8G31
 -19511188.05949 -15184604.81246  20887751.5584   20887749.5224
  -5216472.85246  -4047056.50942  23452761.0654   23452762.4564
 -15357842.98847 -11955134.97643  22320895.6284   22320895.4404
  -1336621.71546  -1023221.46441  23779497.6594   23779502.6834
  -5347490.52047  -4152324.03242  23493695.7304   23493697.5384
 -12129259.68048  -9436392.99944  22393345.5264   22393343.4804
 -24863103.12949 -19360573.18846  20452336.8784   20452335.6834
 -25852620.16449 -20131109.77746  20090396.7694   20090395.6244
 -16177492.77748 -12585759.34644  21296002.3234   21296002.0694
 04  7 17  3  5 29.9990000  0  9G28G29G13G 7G10G19G27G 8G31
 -19552533.36349 -15216821.86445  20879883.8474   20879881.8974
  -5310241.44546  -4120123.03342  23434918.0344   23434919.0774
 -15257715.72347 -11877113.83043  22339949.3864   22339949.8004
  -1442689.72746  -1105871.47441  23759313.0974   23759318.3704
  -5305948.45347  -4119953.64942  23501600.9804   23501602.3514
 -12078762.56648  -9397044.70644  22402954.4724   22402952.6514
 -24854258.92249 -19353681.62546  20454019.9174   20454018.5544
 -25877675.96949 -20150633.77446  20085628.5584   20085627.3704
 -16272465.32448 -12659763.83244  21277929.4484   21277929.4874
 04  7 17  3  5 59.9990000  0  9G28G29G13G 7G10G19G27G 8G31
 -19593527.27749 -15248765.09446  20872082.8624   20872081.2334
  -5403757.75446  -4192992.87242  23417122.7374   23417123.3744
 -15157296.46548 -11798865.13343  22359058.4564   22359059.0384
  -1548675.03146  -1188457.05941  23739144.7924   23739148.8004
  -5263964.71147  -4087239.07343  23509590.1514   23509592.1324
 -12027739.68748  -9357286.65844  22412664.5654   22412661.9134
 -24845124.20749 -19346563.65846  20455758.0344   20455756.6444
 -25902441.61349 -20169931.69946  20080916.1124   20080914.8354
 -16367055.97749 -12733470.74844  21259929.8314   21259929.4294
 04  7 17  3  6 29.9990000  0  9G28G29G13G 7G10G19G27G 8G31
 -19634168.36349 -15280433.41745  20864348.9564   20864347.1364
  -5497017.24246  -4265662.63142  23399375.6594   23399377.4804
 -15056586.07448 -11720389.60643  22378223.1444   22378223.7264
  -1654572.90246  -1270974.48041  23718992.2374   23718997.7804
  -5221539.39147  -4054180.41342  23517663.3154   23517665.1474
 -11976190.57448  -9317118.60144  22422473.7144   22422471.8234
 -24835696.15649 -19339217.14746  20457552.0654   20457551.1054
 -25926913.87149 -20189000.99046  20076259.1754   20076258.0114
 -16461259.79348 -12806876.23744  21242003.2374   21242002.7694
 04  7 17  3  6 59.9990000  0  9G28G29G13G 7G10G19G27G 8G31
 -19674460.36749 -15311829.70146  20856681.5114   20856679.8864
  -5590021.14147  -4338133.22142  23381677.4564   23381679.3044
 -14955590.48448 -11641691.84243  22397442.2924   22397442.5464
  -1760384.74246  -1353424.87141  23698856.6834   23698861.4524
  -5178678.99647  -4020782.74642  23525820.3314   23525820.5934
 -11924120.83648  -9276544.86344  22432382.4334   22432380.0264
 -24825977.44549 -19331644.13446  20459401.5264   20459400.3154
 -25951095.81249 -20207844.07646  20071657.3554   20071656.1474
 -16555077.50449 -12879980.85744  21224150.7534   21224149.6364
 04  7 17  3  7 29.9990000  0  9G28G29G13G 7G10G19G27G 8G31
 -19714403.90249 -15342954.46746  20849080.5424   20849078.7334
  -5682767.43746  -4410403.07942  23364029.0654   23364030.5774
 -14854312.07848 -11562773.70143  22416715.2844   22416715.1634
  -1866108.65246  -1435806.70142  23678737.5974   23678742.8354
  -5135386.05547  -3987048.00042  23534058.2764   23534059.5854
 -11871532.69148  -9235567.15944  22442389.9014   22442387.7534
 -24815967.47749 -19323844.18546  20461306.3944   20461304.9334
 -25974986.33649 -20226460.08746  20067111.4874   20067109.7654
 -16648506.58648 -12952782.67744  21206371.1904   21206370.6014
 04  7 17  3  7 59.9990000  0  9G28G29G13G 7G10G19G27G 8G31
 -19753998.02749 -15373806.96846  20841546.0114   20841543.9914
  -5775252.28545  -4482469.21342  23346429.6674   23346431.3704
 -14752752.53147 -11483636.49443  22436040.7224   22436041.6204
  -1971740.93446  -1518117.32041  23658636.8784   23658641.3194
  -5091661.91047  -3952977.32642  23542378.5194   23542379.9404
 -11818426.43748  -9194185.71244  22452495.6514   22452493.6244
 -24805664.07049 -19315815.57246  20463267.1054   20463265.8084
 -25998583.37949 -20244847.42646  20062621.0894   20062619.7064
 -16741542.88748 -13025278.41344  21188667.0114   21188666.4524
 04  7 17  3  8 29.9990000  0 10G28G29G13G 7G10G19G27G26G 8G31
 -19793244.56649 -15404388.62946  20834077.5814   20834075.7414
  -5867474.67246  -4554330.81242  23328880.4334   23328881.8084
 -14650915.15247 -11404282.79243  22455419.9404   22455420.1594
  -2077280.52346  -1600355.48042  23638552.7454   23638557.4874
  -5047510.36347  -3918573.57342  23550780.4174   23550781.4374
 -11764805.34048  -9152403.12544  22462699.1054   22462697.3824
 -24795067.62149 -19307558.59946  20465283.7694   20465282.4294
   -156531.02356   -104620.14452  23947021.8704   23947026.0584
 -26021886.96949 -20263006.07946  20058186.4804   20058185.0934
 -16834184.73848 -13097466.79644  21171037.8084   21171037.7224
 04  7 17  3  8 59.9990000  0 10G28G29G13G 7G10G19G27G26G 8G31
 -19832152.68049 -15434706.57646  20826673.6204   20826671.3974
  -5959440.53546  -4625992.41942  23311379.7844   23311381.1714
 -14548811.11747 -11324721.31443  22474849.7304   22474850.0304
  -2182733.78546  -1682526.44542  23618485.3864   23618490.7064
  -5002942.45747  -3883845.41042  23559261.5734   23559263.2024
 -11710679.80948  -9110227.47844  22472998.6364   22472997.5624
 -24784185.79349 -19299079.27646  20467354.3004   20467353.3194
   -257821.59446   -183547.73042  23927747.8084   23927751.8194
 -26044905.48449 -20280942.61646  20053806.1594   20053804.8394
 -16926437.98049 -13169352.36044  21153482.6594   21153482.5264
 04  7 17  3  9 29.9990000  0 10G28G29G13G 7G10G19G27G26G 8G31
 -19870720.82849 -15464759.62546  20819334.2764   20819332.0584
  -6051145.71946  -4697450.94642  23293928.4804   23293930.0694
 -14446441.21947 -11244952.66543  22494330.1984   22494330.1404
  -2288096.56246  -1764626.96142  23598434.9014   23598440.0624
  -4957959.08247  -3848793.49742  23567821.5264   23567823.9804
 -11656049.94948  -9067658.79444  22483394.2844   22483393.0934
 -24773015.91449 -19290375.48646  20469479.6204   20469478.8274
   -358885.41846   -262298.69842  23908515.6444   23908519.2804
 -26067635.54349 -20298654.37546  20049480.9644   20049479.7764
 -17018297.99649 -13240931.54845  21136002.3394   21136002.0384
 04  7 17  3  9 59.9990000  0 10G28G29G13G 7G10G19G27G26G 8G31
 -19908952.41449 -15494550.40346  20812058.7694   20812056.7144
  -6142590.72347  -4768706.70242  23276526.9644   23276528.3664
 -14343810.60948 -11164980.86443  22513860.7064   22513860.5464
  -2393369.62946  -1846657.50442  23578402.4094   23578406.9404
  -4912565.70747  -3813422.08642  23576458.7764   23576461.0584
 -11600920.66448  -9024700.95644  22493885.2374   22493883.4954
 -24761560.13749 -19281448.92546  20471660.0504   20471658.8394
   -459723.03946   -340873.37442  23889327.1754   23889330.4484
 -26090078.88749 -20316142.70846  20045210.2374   20045209.0934
 -17109764.84449 -13312204.33345  21118596.6904   21118596.1874
 04  7 17  3 10 29.9990000  0 10G28G29G13G 7G10G19G27G26G 8G31
 -19946844.46949 -15524076.63646  20804848.0034   20804846.2334
  -6233770.05946  -4839755.42142  23259176.3154   23259177.5074
 -14240918.62547 -11084805.37643  22533440.0264   22533440.3704
  -2498547.31646  -1928613.75242  23558387.4094   23558392.2104
  -4866761.73447  -3777730.75142  23585175.7844   23585177.2574
 -11545290.80148  -8981353.11044  22504471.0814   22504470.3154
 -24749814.18449 -19272296.24846  20473895.1444   20473894.2144
   -560328.59447   -419267.19442  23870183.2614   23870185.7494
 -26112231.86749 -20333404.78646  20040994.5654   20040993.3944
 -17200832.60249 -13383166.14745  21101266.7694   21101266.5464
 04  7 17  3 10 59.9990000  0 10G28G29G13G 7G10G19G27G26G 8G31
 -19984393.87549 -15553335.87846  20797702.9334   20797701.3044
  -6324677.36346  -4910592.15342  23241876.4874   23241878.3194
 -14137764.19948 -11004425.40442  22553070.0344   22553070.5304
  -2603623.44546  -2010490.91142  23538391.4954   23538396.4834
  -4820546.15647  -3741718.73042  23593969.7144   23593971.4524
 -11489158.51648  -8937613.74944  22515153.5974   22515152.0694
 -24737773.47749 -19262913.89146  20476186.4014   20476185.3554
   -660695.71546   -497475.24642  23851083.6904   23851086.4684
 -26134089.10549 -20350436.40346  20036835.5584   20036833.9724
 -17291494.31248 -13453811.58545  21084014.8624   21084014.2064
 04  7 17  3 11 29.9990000  0 10G28G29G13G 7G10G19G27G26G 8G31
 -20021601.99649 -15582329.17846  20790622.3944   20790620.6404
  -6415311.16446  -4981215.69242  23224629.6674   23224630.6754
 -14034350.44948 -10923843.36143  22572748.9804   22572749.1284
  -2708596.82846  -2092287.98942  23518415.1054   23518420.1054
  -4773922.44147  -3705388.63842  23602842.7924   23602844.3394
 -11432526.46548  -8893484.92844  22525929.8944   22525928.5264
 -24725437.94149 -19253301.79846  20478533.9484   20478532.8354
   -760822.75447   -575496.23942  23832029.4804   23832033.2964
 -26155650.81249 -20367237.74547  20032732.3234   20032730.8704
 -17381748.42248 -13524139.39945  21066839.5194   21066839.5894
 04  7 17  3 11 59.9990000  0 10G28G29G13G 7G10G19G27G26G 8G31
 -20058466.48049 -15611054.71246  20783607.1514   20783605.3084
  -6505666.28946  -5051622.10542  23207435.4804   23207436.4724
 -13930677.37547 -10843059.22943  22592477.4724   22592477.7964
  -2813462.32846  -2174001.00842  23498459.7844   23498464.0074
  -4726890.54347  -3668740.48242  23611792.6284   23611794.8474
 -11375393.97348  -8848966.17644  22536801.9094   22536800.8584
 -24712804.17649 -19243457.31046  20480937.9014   20480937.1444
   -860704.47347   -653326.01442  23813023.0194   23813025.7764
 -26176913.47349 -20383806.04846  20028686.2144   20028684.9564
 -17471589.32048 -13594145.22045  21049743.3784   21049743.3584
 04  7 17  3 12 29.9990000  0 10G28G29G13G 7G10G19G27G26G 8G31
 -20094989.65249 -15639514.30145  20776656.9174   20776654.7574
  -6595742.19546  -5121810.98842  23190294.4874   23190295.2764
 -13826749.24247 -10762076.36942  22612253.9334   22612254.8194
  -2918219.50846  -2255629.69142  23478524.8784   23478528.9994
  -4679454.87147  -3631777.73342  23620819.5734   23620821.8154
 -11317764.87948  -8804060.44744  22547768.7614   22547767.1014
 -24699873.00449 -19233381.08246  20483398.8084   20483397.9054
   -960340.00447   -730963.97742  23794062.6594   23794065.5224
 -26197877.35249 -20400141.53946  20024696.8004   20024695.5624
 -17561016.12149 -13663828.39145  21032725.9954   21032725.6124
 04  7 17  3 12 59.9990000  0 10G28G29G13G 7G10G19G27G26G 8G31
 -20131167.91449 -15667705.13346  20769772.4334   20769770.4524
  -6685532.51647  -5191777.32142  23173207.9174   23173208.6054
 -13722564.57047 -10680893.59442  22632079.4404   22632080.9174
  -3022862.08246  -2337169.03842  23458611.1284   23458615.7414
  -4631614.12147  -3594499.35042  23629923.2374   23629925.1404
 -11259637.36348  -8758766.31744  22558829.6674   22558828.2574
 -24686639.72749 -19223069.44546  20485916.6904   20485915.7764
  -1059722.97347   -808405.14142  23775150.5344   23775153.1554
 -26218537.54349 -20416240.38346  20020765.1124   20020763.8194
 -17650022.07049 -13733183.62145  21015788.6124   21015788.1634
 04  7 17  3 13 29.9990000  0 10G28G29G13G 7G10G19G27G26G 8G31
 -20167001.94549 -15695627.73046  20762953.4484   20762952.0074
  -6775034.64846  -5261519.08642  23156176.1594   23156176.6904
 -13618125.77047 -10599512.84143  22651954.1444   22651954.8354
  -3127387.77346  -2418617.33442  23438720.6904   23438725.3624
  -4583371.18047  -3556907.57542  23639102.7534   23639106.0544
 -11201013.32847  -8713085.29944  22569985.9404   22569984.8274
 -24673103.57849 -19212521.80146  20488492.5194   20488491.7144
  -1158850.55147   -885647.32642  23756287.9404   23756290.0304
 -26238893.69549 -20432102.32046  20016891.5974   20016890.5654
 -17738604.34848 -13802208.71045  20998931.7614   20998931.5074
 04  7 17  3 13 59.9990000  0 10G28G29G13G 7G10G19G27G26G 8G31
 -20202493.39849 -15723283.39546  20756200.0034   20756197.8824
  -6864247.71146  -5331035.61042  23139198.8554   23139199.8744
 -13513436.76247 -10517937.09542  22671875.7924   22671876.1834
  -3231795.48046  -2499973.68042  23418852.8944   23418856.5694
  -4534729.65647  -3519005.22642  23648359.9094   23648362.7414
 -11141896.02348  -8667019.90644  22581235.0734   22581234.1244
 -24659264.79749 -19201738.34546  20491126.1834   20491125.0304
  -1257721.69547   -962689.64342  23737473.2224   23737474.7654
 -26258945.48449 -20447727.08646  20013075.7374   20013074.4564
 -17826761.53549 -13870902.54745  20982156.3554   20982155.6834
 04  7 17  3 14 29.9990000  0 10G28G29G13G 7G10G19G27G26G 8G31
 -20237640.58249 -15750670.79446  20749511.5734   20749509.3474
  -6953166.98447  -5400323.20142  23122278.6444   23122279.0194
 -13408497.77747 -10436166.57443  22691844.7694   22691845.3704
  -3336080.73846  -2581234.63842  23399008.2454   23399011.5544
  -4485690.23447  -3480792.80342  23657691.2454   23657694.1244
 -11082285.48848  -8620570.16244  22592578.8394   22592577.5384
 -24645120.22749 -19190716.62046  20493817.5654   20493816.4604
  -1356331.62147  -1039528.41442  23718707.8154   23718709.7654
 -26278689.75049 -20463112.21346  20009318.4874   20009317.2144
 -17914488.63349 -13939261.26045  20965462.3704   20965461.7104
 04  7 17  3 14 59.9990000  0 10G28G29G13G 7G10G19G27G26G 8G31
 -20272443.01249 -15777789.56246  20742888.8474   20742886.8784
  -7041789.06646  -5469379.22142  23105414.2064   23105414.5584
 -13303310.68447 -10354202.70442  22711861.2304   22711861.9374
  -3440240.44146  -2662397.80442  23379185.9404   23379190.7024
  -4436254.76247  -3442271.79442  23667099.0424   23667101.1084
 -11022182.87948  -8573736.97944  22604015.8084   22604014.6364
 -24630668.20749 -19179455.31346  20496568.0504   20496566.7494
  -1454676.69947  -1116160.85342  23699992.9254   23699994.7964
 -26298124.97349 -20478256.54146  20005620.4334   20005619.1324
 -18001782.05148 -14007282.04145  20948850.8004   20948850.2804
 04  7 17  3 15 29.9990000  0 10G28G29G13G 7G10G19G27G26G 8G31
 -20306906.48849 -15804644.21146  20736330.6444   20736328.5734
  -7130116.64846  -5538205.82642  23088605.6834   23088606.0974
 -13197882.89547 -10272051.29042  22731924.3864   22731924.2304
  -3544277.21546  -2743465.13142  23359389.4094   23359392.3584
  -4386431.19547  -3403448.33342  23676581.3154   23676582.3044
 -10961595.03147  -8526525.69143  22615545.9404   22615543.6834
 -24615913.00049 -19167957.76146  20499376.0584   20499374.6164
  -1552759.55547  -1192588.93142  23681328.3314   23681329.9054
 -26317254.98849 -20493163.04646  20001979.9484   20001978.8944
 -18088644.05948 -14074966.67645  20932321.5264   20932321.1794
 04  7 17  3 15 59.9990000  0 10G28G29G13G 7G10G19G27G26G 8G31
 -20341026.42649 -15831231.17446  20729838.0344   20729836.0464
  -7218142.23447  -5606797.05142  23071855.5894   23071855.0774
 -13092211.94147 -10189710.42443  22752032.1834   22752033.0224
  -3648183.79346  -2824431.09942  23339615.9174   23339619.5424
  -4336216.84047  -3364320.43542  23686135.9874   23686138.2844
 -10900519.36747  -8478934.25243  22627167.9404   22627166.4214
 -24600848.72349 -19156219.37446  20502242.4094   20502241.0694
  -1650572.31247  -1268806.51242  23662715.3554   23662717.1794
 -26336073.52049 -20507826.81846  19998399.0114   19998397.6834
 -18175067.00849 -14142309.16045  20915875.6834   20915874.8314
 04  7 17  3 16 29.9990000  0 10G28G29G13G 7G10G19G27G26G 8G31
 -20374802.88749 -15857550.49246  20723410.6284   20723408.4294
  -7305863.06247  -5675150.86642  23055162.7374   23055162.9604
 -12986299.93047 -10107181.72742  22772187.0974   22772187.9254
  -3751957.42246  -2905293.41242  23319868.5974   23319871.8624
  -4285614.42647  -3324890.13142  23695765.5584   23695767.8474
 -10838957.53147  -8430964.02843  22638882.7924   22638881.1874
 -24585474.23049 -19144239.26346  20505168.3944   20505166.9764
  -1748112.30547  -1344811.63142  23644153.4404   23644154.9294
 -26354579.32049 -20522246.90846  19994877.3234   19994876.3234
 -18261047.77749 -14209307.10645  20899514.4014   20899513.3394
 04  7 17  3 16 59.9990000  0 10G28G29G13G 7G10G19G27G26G 8G31
 -20408234.07849 -15883600.77446  20717048.6834   20717046.5814
  -7393274.23448  -5743263.37542  23038528.9804   23038528.3554
 -12880147.07447 -10024465.34342  22792387.1984   22792388.4444
  -3855593.42646  -2986048.53142  23300146.9954   23300150.6474
  -4234624.24247  -3285157.65342  23705468.9874   23705471.6594
 -10776909.22348  -8382614.71243  22650690.3944   22650688.3974
 -24569786.02349 -19132014.70346  20508153.7374   20508152.4404
  -1845374.40647  -1420600.17842  23625645.0504   23625646.0544
 -26372768.89549 -20536420.60246  19991415.7454   19991414.6554
 -18346581.23849 -14275956.48045  20883237.5344   20883237.1124
 04  7 17  3 17 29.9990000  0 10G28G29G13G 7G10G19G27G26G 8G31
 -20441323.19549 -15909384.50446  20710752.0114   20710749.9954
  -7480376.03148  -5811134.86042  23021954.1754   23021953.1944
 -12773758.65247  -9941565.45742  22812632.9564   22812633.4954
  -3959092.18046  -3066696.73542  23280451.9644   23280454.9644
  -4183251.81647  -3245127.35242  23715244.8314   23715248.1364
 -10714379.25848  -8333890.06844  22662589.3394   22662587.9834
 -24553786.12549 -19119547.25446  20511198.1204   20511196.8974
  -1942358.66047  -1496172.23642  23607189.8784   23607190.5974
 -26390644.18749 -20550349.40646  19988014.4404   19988013.0424
 -18431667.38749 -14342257.30845  20867046.1124   20867045.4874
 04  7 17  3 17 59.9990000  0 10G28G29G13G 7G10G19G27G26G 8G31
 -20474069.29349 -15934900.94246  20704520.8864   20704519.0504
  -7567164.64547  -5878762.25742  23005438.2534   23005438.0504
 -12667135.75847  -9858482.81042  22832922.0974   22832923.1834
  -4062450.10247  -3147235.15042  23260783.4404   23260786.9954
  -4131498.18447  -3204799.98942  23725093.0654   23725096.1284
 -10651368.44948  -8284790.74944  22674580.0264   22674578.3784
 -24537472.37949 -19106835.24446  20514302.5734   20514301.6874
  -2039061.15247  -1571524.70242  23588787.5424   23588789.1054
 -26408202.95749 -20564031.55746  19984673.1674   19984671.8584
 -18516302.21549 -14408206.44745  20850940.6514   20850940.1364
 04  7 17  3 18 29.9990000  0 11G28G29G13G 7G10G19G27G26G 8G31G11
 -20506475.93449 -15960152.86846  20698353.9644   20698352.0814
  -7653640.48847  -5946145.97042  22988982.6674   22988982.2024
 -12560283.57446  -9775221.47342  22853255.8944   22853256.1634
  -4165667.60946  -3227664.18642  23241141.4954   23241145.0544
  -4079369.28547  -3164180.23042  23735012.9564   23735015.3784
 -10587881.54348  -8235320.42344  22686661.0894   22686659.1754
 -24520846.61349 -19093880.11946  20517466.5974   20517465.0264
  -2135481.90647  -1646657.68242  23570439.3554   23570440.2184
 -26425445.99649 -20577467.68546  19981391.7924   19981390.4804
 -18600485.77049 -14473803.94645  20834920.8704   20834920.2844
    -91075.17656    -60740.29052  24178301.3864   24178303.4054
 04  7 17  3 18 59.9990000  0 11G28G29G13G 7G10G19G27G26G 8G31G11
 -20538554.27349 -15985148.96746  20692249.5264   20692247.8194
  -7739811.76647  -6013292.36143  22972584.5654   22972584.3314
 -12453215.46547  -9691791.91942  22873629.8474   22873631.1054
  -4268753.00447  -3307990.37842  23221524.8624   23221528.0194
  -4026878.43447  -3123278.43042  23745001.7614   23745003.5544
 -10523931.74248  -8185489.42743  22698830.2374   22698828.6284
 -24503918.62549 -19080689.49046  20520687.3314   20520686.5654
  -2231629.16847  -1721577.50442  23552142.6674   23552144.3084
 -26442383.83649 -20590665.98446  19978168.7224   19978167.2844
 -18684226.14549 -14539056.12445  20818985.4644   20818984.5894
   -149794.21147   -106495.37042  24167127.4174   24167129.3084
 04  7 17  3 19 29.9990000  0 11G28G29G13G 7G10G19G27G26G 8G31G11
 -20570304.55549 -16009889.44546  20686207.5344   20686205.5384
  -7825675.77747  -6080199.29342  22956245.1364   22956245.3124
 -12345934.05147  -9608196.15842  22894045.8394   22894046.2764
  -4371703.84847  -3388211.65242  23201933.7534   23201937.3354
  -3974028.18747  -3082096.60942  23755058.9874   23755060.9644
 -10459520.72748  -8135299.01743  22711087.1594   22711085.7574
 -24486687.44949 -19067262.61346  20523966.5654   20523966.0224
  -2327499.93747  -1796281.92342  23533899.4484   23533900.2654
 -26459014.75449 -20603625.11846  19975003.8944   19975002.8354
 -18767520.55149 -14603960.77345  20803135.4484   20803134.1404
   -208319.24647   -152099.17542  24155990.1364   24155992.1204
 04  7 17  3 19 59.9990000  0 11G28G29G13G 7G10G19G27G26G 8G31G11
 -20601729.64149 -16034376.50146  20680227.6124   20680225.6904
  -7911232.31247  -6146866.64442  22939963.9644   22939964.4524
 -12238443.92247  -9524437.74742  22914500.1054   22914500.6244
  -4474520.14847  -3468328.11242  23182368.6834   23182371.9444
  -3920823.68047  -3040638.69442  23765183.7374   23765186.1014
 -10394653.16048  -8084752.85643  22723431.2374   22723429.3514
 -24469154.51249 -19053600.58646  20527303.1904   20527301.9804
  -2423094.18747  -1870770.86642  23515708.1364   23515708.9564
 -26475340.26249 -20616346.25346  19971897.1054   19971895.8434
 -18850368.51249 -14668517.54645  20787369.4174   20787368.4954
   -266649.96547   -197551.60042  24144890.1674   24144892.2614
 04  7 17  3 20 29.9990000  0 11G28G29G13G 7G10G19G27G26G 8G31G11
 -20632825.46149 -16058606.97946  20674310.3864   20674308.2844
  -7996474.41047  -6213288.99842  22923742.7224   22923743.3744
 -12130742.93447  -9440515.05042  22934994.8314   22934995.8584
  -4577194.77747  -3548334.19242  23162830.3084   23162833.3194
  -3867263.18747  -2998903.42142  23775375.5504   23775378.8154
 -10329326.41848  -8033848.87544  22735862.8314   22735860.6794
 -24451314.28949 -19039699.11346  20530697.7454   20530696.7804
  -2518404.39546  -1945038.48942  23497571.1594   23497572.5894
 -26491354.81649 -20628825.10546  19968849.8864   19968848.1594
 -18932762.66449 -14732720.70945  20771690.5344   20771689.6944
   -324778.97747   -242846.88342  24133828.5734   24133830.3824
 04  7 17  3 20 59.9990000  0 11G28G29G13G 7G10G19G27G26G 8G31G11
 -20663590.59049 -16082579.76046  20668455.8704   20668453.7184
  -8081397.66447  -6279462.91942  22907582.5974   22907582.8584
 -12022831.48847  -9356428.34642  22955530.3704   22955530.7304
  -4679723.56646  -3628226.63542  23143318.6054   23143322.6244
  -3813347.53547  -2956891.38242  23785636.1124   23785638.7534
 -10263540.78148  -7982587.32843  22748381.0194   22748379.5034
 -24433164.02049 -19025556.03746  20534151.8944   20534150.7064
  -2613426.10246  -2019081.34642  23479488.6514   23479489.7224
 -26507055.05549 -20641059.02447  19965862.2694   19965860.5774
 -19014698.59849 -14796566.80945  20756098.6124   20756097.6014
   -382701.78947   -287981.40042  24122806.0424   24122807.7334
 04  7 17  3 21 29.9990000  0 11G28G29G13G 7G10G19G27G26G 8G31G11
 -20694023.68449 -16106293.81146  20662664.5194   20662662.2924
  -8165997.43747  -6345384.73442  22891483.5344   22891483.8274
 -11914710.15247  -9272178.12042  22976104.8394   22976105.8744
  -4782102.06646  -3708001.94842  23123837.2224   23123840.6124
  -3759077.42647  -2914603.17342  23795963.3474   23795966.2534
 -10197296.65647  -7930968.52843  22760987.2064   22760985.5584
 -24414700.90649 -19011169.18646  20537665.4334   20537663.7144
  -2708154.50446  -2092895.50942  23461462.2144   23461463.4254
 -26522437.59449 -20653045.38447  19962934.9484   19962933.2334
 -19096171.52749 -14860052.12545  20740594.8944   20740594.1474
   -440413.49647   -332951.55642  24111824.0814   24111825.5544
 04  7 17  3 21 59.9990000  0 11G28G29G13G 7G10G19G27G26G 8G31G11
 -20724124.13749 -16129748.66046  20656936.6124   20656934.3784
  -8250270.26247  -6411051.77442  22875446.8314   22875447.2574
 -11806380.85247  -9187765.82842  22996719.4484   22996720.3474
  -4884326.94946  -3787657.56642  23104384.7064   23104387.7224
  -3704454.66847  -2872040.15142  23806358.1754   23806360.3354
 -10130594.93047  -7878993.14143  22773679.8944   22773678.5734
 -24395922.95349 -18996536.99846  20541238.7304   20541237.3554
  -2802586.00046  -2166478.39842  23443492.8314   23443494.2224
 -26537501.05949 -20664783.10547  19960068.4804   19960067.0814
 -19177177.89149 -14923173.87645  20725179.5584   20725178.5584
   -497910.18047   -377754.07742  24100882.7224   24100884.6674
 04  7 17  3 22 29.9990000  0 11G28G29G13G 7G10G19G27G26G 8G31G11
 -20753891.77349 -16152944.15746  20651271.7844   20651270.0114
  -8334212.92647  -6476461.52342  22859472.7924   22859473.3084
 -11697844.87947  -9103192.46442  23017373.6594   23017374.4254
  -4986395.03947  -3867191.00442  23084961.6054   23084964.7804
  -3649481.35547  -2829203.92942  23816819.4254   23816821.7064
 -10063437.12147  -7826662.41943  22786459.7064   22786458.3904
 -24376828.50049 -18981658.19346  20544872.4254   20544870.9134
  -2896717.07047  -2239827.16142  23425580.2144   23425581.0694
 -26552243.12949 -20676270.41146  19957263.0974   19957261.6754
 -19257714.19949 -14985929.37545  20709854.0894   20709852.8704
   -555188.49247   -422386.38542  24089983.0734   24089984.6444
 04  7 17  3 22 59.9990000  0 11G28G29G13G 7G10G19G27G26G 8G31G11
 -20783324.02349 -16175878.30946  20645671.2534   20645669.0814
  -8417819.85947  -6541609.64443  22843562.9404   22843562.9644
 -11589101.91447  -9018457.86942  23038066.8004   23038067.8554
  -5088300.98447  -3946598.11243  23065569.0194   23065572.8514
  -3594156.97747  -2786094.17142  23827347.0344   23827349.8234
  -9995822.27348  -7773975.49744  22799326.6674   22799325.3434
 -24357413.65649 -18966529.71146  20548566.5584   20548565.4214
  -2990542.00846  -2312937.35642  23407726.0034   23407726.0424
 -26566659.79349 -20687504.14447  19954519.7924   19954518.3234
 -19337774.73449 -15048314.13145  20694618.9484   20694618.3354
   -612242.57047   -466844.02342  24079125.6754   24079127.2374
 04  7 17  3 23 29.9990000  0 11G28G29G13G 7G10G19G27G26G 8G31G11
 -20812422.28549 -16198552.20246  20640133.8784   20640131.9054
  -8501089.53547  -6606495.00443  22827717.5424   22827717.0654
 -11480155.12947  -8933564.43142  23058798.9564   23058799.7964
  -5190043.23047  -4025877.67242  23046208.0814   23046211.8354
  -3538485.40647  -2742713.87242  23837940.7454   23837943.6324
  -9927753.46547  -7720934.88944  22812279.1444   22812278.0544
 -24337678.36749 -18951151.55146  20552322.2694   20552321.4134
  -3084059.05946  -2385807.67742  23389930.2844   23389930.4014
 -26580750.84449 -20698484.15647  19951838.2614   19951836.9254
 -19417357.92249 -15110326.92945  20679474.7144   20679473.7334
   -669070.51647   -511125.41042  24068311.6054   24068313.6714
 04  7 17  3 23 59.9990000  0 11G28G29G13G 7G10G19G27G26G 8G31G11
 -20841186.43749 -16220965.76446  20634660.2064   20634657.8944
  -8584018.80947  -6671115.13243  22811936.8084   22811936.2334
 -11371006.57046  -8848513.77242  23079569.0344   23079570.1124
  -5291618.66447  -4105027.22642  23026879.1204   23026882.1794
  -3482468.67647  -2699064.59342  23848601.0344   23848603.9134
  -9859232.33648  -7667541.82943  22825318.5894   22825317.5154
 -24317621.18049 -18935522.55446  20556139.2614   20556137.6674
  -3177264.89147  -2458435.45142  23372193.5194   23372193.7334
 -26594514.45349 -20709209.01046  19949219.1754   19949217.6164
 -19496460.28149 -15171965.05445  20664422.0974   20664421.3434
   -725669.19147   -555228.19442  24057541.0504   24057542.6944
 04  7 17  3 24 29.9990000  0 11G28G29G13G 7G10G19G27G26G 8G31G11
 -20869619.97349 -16243121.68646  20629249.2764   20629247.2844
  -8666607.85947  -6735470.10342  22796220.6204   22796219.9874
 -11261661.51647  -8763309.98742  23100376.7144   23100377.6834
  -5393028.03146  -4184047.37042  23007581.6124   23007584.8514
  -3426112.67247  -2655150.97042  23859324.9174   23859328.3624
  -9790264.05947  -7613800.33743  22838442.4404   22838441.7924
 -24297244.08649 -18919644.27946  20560016.6364   20560015.3864
  -3270159.55147  -2530820.74542  23354515.8864   23354516.9804
 -26607952.46149 -20719680.16247  19946661.7374   19946660.1944
 -19575082.21549 -15233228.81945  20649460.7844   20649459.6984
   -782038.61347   -599152.27842  24046814.5034   24046815.7804
 04  7 17  3 24 59.9990000  0 11G28G29G13G 7G10G19G27G26G 8G31G11
 -20897719.73049 -16265017.52246  20623902.1364   20623899.9214
  -8748850.65247  -6799555.29242  22780569.6054   22780569.8584
 -11152118.83647  -8677952.21742  23121222.2374   23121223.3354
  -5494265.00046  -4262933.21142  22988316.2374   22988319.7374
  -3369416.49647  -2610972.23842  23870113.9094   23870117.5734
  -9720847.05547  -7559709.19443  22851652.0894   22851651.2574
 -24276542.53949 -18903513.17846  20563955.9484   20563955.1554
  -3362736.68746  -2602958.56242  23336900.0974   23336899.9214
 -26621059.87549 -20729893.69747  19944167.3234   19944166.1984
 -19653217.32849 -15294113.24945  20634592.3944   20634590.9404
   -838172.25847   -642892.64542  24036132.0344   24036134.2844
 04  7 17  3 25 29.9990000  0 11G28G29G13G 7G10G19G27G26G 8G31G11
 -20925484.19949 -16286652.08846  20618618.6054   20618616.3234
  -8830742.57847  -6863367.06242  22764986.0194   22764986.6474
 -11042378.88347  -8592440.71843  23142104.9334   23142106.5974
  -5595325.30946  -4341681.36742  22969085.0584   22969088.4724
  -3312381.00847  -2566529.13642  23880967.7224   23880970.5624
  -9650981.59847  -7505268.62543  22864946.8784   22864946.6324
 -24255513.64149 -18887127.01546  20567957.7064   20567956.5194
  -3454991.74647  -2674845.46542  23319343.5424   23319344.2534
 -26633833.96149 -20739847.49947  19941736.7534   19941735.2224
 -19730861.16049 -15354614.86445  20619816.9254   20619816.3124
   -894065.46947   -686445.69542  24025495.6904   24025497.9484
 04  7 17  3 25 59.9990000  0 11G28G29G13G 7G10G19G27G26G 8G31G11
 -20952916.68449 -16308027.97246  20613398.4874   20613396.1794
  -8912283.94148  -6926905.67243  22749469.1204   22749469.5424
 -10932446.84847  -8506779.51842  23163024.9254   23163025.7694
  -5696209.28146  -4420292.10542  22949887.4174   22949890.4834
  -3255011.78547  -2521825.90442  23891885.3234   23891887.9404
  -9580672.48447  -7450482.36943  22878326.7844   22878326.5654
 -24234159.18049 -18870487.15746  20572021.3314   20572020.3434
  -3546924.54346  -2746481.17742  23301848.9804   23301850.5344
 -26646275.84449 -20749542.42746  19939368.9484   19939367.5814
 -19808013.73049 -15414733.67145  20605135.1364   20605134.3434
   -949718.06247   -729811.21542  24014905.5424   24014907.5584
 04  7 17  3 26 29.9990000  0 11G28G29G13G 7G10G19G27G26G 8G31G11
 -20980016.74249 -16329144.82346  20608241.3554   20608239.1554
  -8993471.35547  -6990168.46743  22734019.7144   22734020.5114
 -10822324.19547  -8420969.79642  23183980.4564   23183981.4484
  -5796913.55946  -4498762.82342  22930723.5654   22930726.8394
  -3197310.53547  -2476863.98642  23902865.1514   23902867.8704
  -9509921.14148  -7395351.52244  22891790.5034   22891789.8084
 -24212477.34449 -18853592.20046  20576146.8624   20576145.9054
  -3638531.46947  -2817863.05742  23284417.0734   23284417.6444
 -26658383.42249 -20758976.86346  19937064.6674   19937063.2724
 -19884671.52349 -15474466.93945  20590547.6984   20590546.7024
  -1005126.53147   -772986.51142  24004362.3864   24004363.2264
 04  7 17  3 26 59.9990000  0 11G28G29G13G 7G10G19G27G26G 8G31G11
 -21006787.98449 -16350005.46546  20603147.1364   20603144.9404
  -9074305.18748  -7053155.75843  22718637.5814   22718638.3044
 -10712016.48447  -8335015.88942  23204971.6984   23204972.7304
  -5897438.69946  -4577093.89942  22911594.6444   22911597.8554
  -3139283.04747  -2431647.91042  23913907.4014   23913910.8394
  -9438732.71948  -7339880.10144  22905337.2374   22905336.5384
 -24190470.34449 -18836443.87246  20580335.0424   20580333.6984
  -3729813.03147  -2888991.39342  23267046.4644   23267047.3824
 -26670159.17249 -20768152.73747  19934824.0504   19934822.5194
 -19960835.09849 -15533815.10045  20576054.1674   20576053.2694
  -1060291.01647   -815971.66342  23993864.2374   23993865.9684
 04  7 17  3 27 29.9990000  0 11G28G29G13G 7G10G19G27G26G 8G31G11
 -21033227.08649 -16370607.29546  20598115.8624   20598113.4764
  -9154778.99248  -7115862.54743  22703324.0894   22703323.7494
 -10601522.58647  -8248916.87242  23225997.5034   23225999.4724
  -5997778.26646  -4655280.40642  22892500.4804   22892503.4524
  -3080927.99647  -2386176.48542  23925012.8154   23925016.4954
  -9367105.53148  -7284066.75844  22918967.6514   22918966.6514
 -24168133.08649 -18819038.20746  20584585.5504   20584584.3624
  -3820762.14847  -2959860.65542  23249738.9954   23249740.1124
 -26681597.17249 -20777065.42646  19932647.3784   19932645.9484
 -20036497.66849 -15592772.87945  20561655.8234   20561654.6444
  -1115204.57047   -858761.30942  23983414.3944   23983416.3584
 04  7 17  3 27 59.9990000  0 11G28G29G13G 7G10G19G27G26G 8G31G11
 -21059337.72349 -16390953.19546  20593147.0734   20593144.6444
  -9234893.48448  -7178289.34343  22688078.6204   22688077.9214
 -10490848.07447  -8162677.14342  23247058.1514   23247060.1204
  -6097933.25846  -4733323.06343  22873440.9254   22873444.3044
  -3022251.72747  -2340454.81142  23936178.0344   23936181.9214
  -9295045.12548  -7227915.85244  22932680.2844   22932679.6594
 -24145468.12149 -18801377.18746  20588898.4564   20588897.5154
  -3911379.68047  -3030471.56042  23232495.2534   23232496.4374
 -26692699.60949 -20785716.63247  19930534.4874   19930533.3584
 -20111660.18749 -15651340.99846  20547352.9254   20547351.9874
  -1169867.94947   -901355.93942  23973012.5584   23973013.6404
 04  7 17  3 28 29.9990000  0 11G28G29G13G 7G10G19G27G26G 8G31G11
 -21085116.07849 -16411040.16246  20588241.2064   20588239.2844
  -9314641.91448  -7240430.87543  22672903.2064   22672902.9014
 -10379990.72347  -8076294.96642  23268153.8084   23268155.5424
  -6197897.01246  -4811216.65543  22854419.0654   22854421.9334
  -2963252.82047  -2294481.74742  23947405.1754   23947408.8124
  -9222549.48048  -7171425.82544  22946475.8314   22946475.0624
 -24122470.40249 -18783456.87846  20593274.6514   20593273.9804
  -4001658.56247  -3100818.57542  23215316.1834   23215316.7574
 -26703461.43049 -20794102.42446  19928486.9804   19928485.3394
 -20186315.82849 -15709514.14445  20533146.3004   20533145.5734
  -1224274.19547   -943750.22242  23962658.9724   23962660.0224
 04  7 17  3 28 59.9990000  0 11G28G29G13G 7G10G19G27G26G 8G31G11
 -21110564.79749 -16430870.28346  20583398.6514   20583396.3744
  -9394023.73448  -7302286.77343  22657796.9954   22657796.9094
 -10268955.57447  -7989774.21642  23289283.2844   23289284.8974
  -6297669.08646  -4888960.94542  22835432.3864   22835436.1164
  -2903936.23047  -2248261.12442  23958693.3474   23958695.7884
  -9149622.90248  -7114599.99244  22960352.8784   22960352.4294
 -24099140.88749 -18765278.02146  20597714.2534   20597713.2694
  -4091598.02347  -3170901.13442  23198201.1204   23198201.9604
 -26713883.35249 -20802223.36247  19926503.6364   19926502.1474
 -20260464.01649 -15767291.87145  20519036.4174   20519035.3354
  -1278422.58646   -985943.59642  23952354.9644   23952355.9724
 04  7 17  3 29 29.9990000  0 11G28G29G13G 7G10G19G27G26G 8G31G11
 -21135684.75049 -16450444.22946  20578618.6054   20578616.4134
  -9473036.76648  -7363855.31843  22642761.2064   22642761.0464
 -10157744.77046  -7903116.59142  23310446.6444   23310448.0544
  -6397247.36746  -4966554.15742  22816483.8864   22816486.0464
  -2844305.10247  -2201795.43542  23970040.2534   23970042.9174
  -9076267.94148  -7057440.35944  22974312.0504   22974311.6634
 -24075478.99249 -18746840.18146  20602216.7064   20602216.1364
  -4181195.46147  -3240717.13342  23181151.2454   23181152.1204
 -26723964.74649 -20810078.96247  19924585.0814   19924583.7144
 -20334102.42649 -15824672.38246  20505023.3474   20505022.5264
  -1332310.73847  -1027934.20042  23942099.9404   23942100.1554
 04  7 17  3 29 59.9990000  0 11G28G29G13G 7G10G19G27G26G 8G31G11
 -21160479.41849 -16469764.70446  20573900.0734   20573897.7414
  -9551681.23048  -7425136.66043  22627795.8394   22627795.3944
 -10046363.95346  -7816326.51142  23331641.0114   23331643.3394
  -6496632.23846  -5043996.69242  22797570.7374   22797573.5894
  -2784365.00046  -2155088.98542  23981446.2764   23981448.9564
  -9002489.63348  -6999950.83443  22988351.7924   22988351.2654
 -24051486.82049 -18728144.97446  20606782.5344   20606781.2964
  -4270451.10547  -3310266.86142  23164166.5194   23164167.3154
 -26733706.78949 -20817670.12046  19922731.0034   19922729.6054
 -20407231.41049 -15881655.92646  20491107.7064   20491106.2184
  -1385938.37146  -1069721.83542  23931894.6054   23931895.2184
 04  7 17  3 30 29.9990000  0 11G28G29G13G 7G10G19G27G26G 8G31G11
 -21184950.50849 -16488833.04446  20569243.1984   20569240.9914
  -9629956.14148  -7486130.03043  22612900.6984   22612900.1634
  -9934817.09847  -7729406.98942  23352868.7374   23352870.1164
  -6595822.73846  -5121287.74742  22778695.1594   22778697.9874
  -2724120.02746  -2108144.93142  23992910.2924   23992914.4604
  -8928291.50448  -6942134.19843  23002471.6284   23002470.4724
 -24027164.80549 -18709192.75546  20611410.9174   20611409.5544
  -4359363.70747  -3379549.26342  23147246.6444   23147247.2374
 -26743110.21149 -20824997.43447  19920941.9094   19920940.5734
 -20479850.00049 -15938241.77045  20477288.2844   20477287.3664
  -1439304.48046  -1111305.57842  23921738.7764   23921739.5694
 04  7 17  3 30 59.9990000  0 11G28G29G13G 7G10G19G27G26G 8G31G11
 -21209093.98049 -16507646.09946  20564649.0194   20564646.5034
  -9707854.33648  -7546829.85043  22598076.6904   22598076.7024
  -9823102.07447  -7642356.49942  23374127.1754   23374128.5814
  -6694812.00046  -5198422.01142  22759858.0654   22759860.5344
  -2663568.70346  -2060962.26342  24004432.9404   24004437.2654
  -8853671.12948  -6883988.54043  23016670.9254   23016670.6594
 -24002507.63349 -18689979.36146  20616103.0034   20616101.8664
  -4447926.08647  -3448558.77942  23130393.6594   23130394.6054
 -26752169.03549 -20832056.21347  19919217.9334   19919216.6474
 -20551951.21149 -15994424.45645  20463568.0424   20463566.6324
  -1492401.25846  -1152679.54742  23911634.1984   23911635.0034
 04  7 17  3 31 29.9990000  0 11G28G29G13G 7G10G19G27G26G 8G31G11
 -21232912.38749 -16526205.86346  20560116.5734   20560113.7024
  -9785375.05548  -7607235.54643  22583325.3314   22583324.9644
  -9711222.80147  -7555177.98842  23395417.1984   23395419.0344
  -6793599.21146  -5275398.79842  22741059.1204   22741061.4404
  -2602715.32446  -2013544.10442  24016013.7614   24016017.2104
  -8778633.23848  -6825517.54144  23030951.1754   23030949.7964
 -23977515.90649 -18670505.28946  20620858.5034   20620857.5624
  -4536136.89147  -3517294.35242  23113607.4014   23113607.6984
 -26760883.44949 -20838846.64147  19917559.5344   19917558.1474
 -20623534.08649 -16050203.24346  20449946.3944   20449944.7304
  -1545228.27345  -1193843.24941  23901580.9334   23901581.9724
 04  7 17  3 31 59.9990000  0 11G28G29G13G 7G10G19G27G26G 8G31G11
 -21256408.59449 -16544514.56646  20555645.3704   20555643.1514
  -9862518.22348  -7667347.02743  22568644.8394   22568645.1324
  -9599184.34846  -7467875.46342  23416737.7614   23416739.0814
  -6892184.30946  -5352218.09942  22722299.2534   22722301.7064
  -2541565.37146  -1965894.93742  24027650.5584   24027653.9014
  -8703181.78548  -6766724.28743  23045308.4484   23045307.5074
 -23952191.39849 -18650771.91146  20625677.6904   20625676.1674
  -4623995.94947  -3585755.88642  23096888.1904   23096889.0304
 -26769255.06249 -20845369.94047  19915966.2534   19915964.6984
 -20694598.75449 -16105578.23645  20436423.1984   20436421.7574
  -1597784.96945  -1234796.36541  23891580.0584   23891580.2224
 04  7 17  3 32 29.9990000  0 11G28G29G13G 7G10G19G27G26G 8G31G11
 -21279581.66049 -16562571.46745  20551235.2924   20551233.2764
  -9939280.08248  -7727161.39543  22554037.8944   22554037.7724
  -9486987.84047  -7380449.73242  23438087.6514   23438089.6594
  -6990563.82446  -5428877.18742  22703578.1204   22703580.4094
  -2480120.54346  -1918015.97542  24039342.3944   24039345.5544
  -8627318.02048  -6707609.74243  23059745.0034   23059743.9954
 -23926531.85549 -18630777.46246  20630560.8154   20630559.2184
  -4711499.40647  -3653940.29742  23080236.9724   23080237.1754
 -26777281.67649 -20851624.41647  19914439.1754   19914437.2374
 -20765141.43049 -16160546.48145  20422999.2304   20422998.0854
  -1650067.16445  -1275535.57141  23881630.5584   23881631.0774
 04  7 17  3 32 59.9990000  0 11G28G29G13G 7G10G19G27G26G 8G31G11
 -21302432.18749 -16580377.04746  20546887.0974   20546884.7924
 -10015657.94548  -7786676.52043  22539502.8314   22539503.2184
  -9374635.67646  -7292902.72442  23459467.5114   23459469.4134
  -7088735.16446  -5505374.07542  22684896.8704   22684898.7304
  -2418383.42646  -1869909.24142  24051090.6754   24051093.6164
  -8551044.18048  -6648175.66843  23074259.0894   23074258.3744
 -23900536.16049 -18610521.07246  20635507.5034   20635506.2534
  -4798644.14147  -3721845.22542  23063653.7844   23063653.9874
 -26784961.38349 -20857608.57947  19912977.6444   19912976.3944
 -20835159.53949 -16215105.97245  20409674.8704   20409673.7654
  -1702072.00445  -1316058.60241  23871733.7694   23871734.8084
 04  7 17  3 33 29.9990000  0 11G28G29G13G 7G10G19G27G26G 8G31G11
 -21324960.91049 -16597931.86646  20542599.9804   20542597.4684
 -10091649.30548  -7845890.49843  22525042.4174   22525042.6674
  -9262130.19146  -7205236.21242  23480876.6834   23480878.8274
  -7186695.88746  -5581706.80842  22666254.4254   22666256.8864
  -2356356.87146  -1821576.93842  24062894.1514   24062896.9094
  -8474362.70348  -6588423.92643  23088850.6054   23088850.4134
 -23874203.80549 -18590002.35846  20640518.4724   20640516.9914
  -4885427.63347  -3789468.66942  23047138.8314   23047139.8234
 -26792293.53549 -20863321.91747  19911582.5584   19911580.9834
 -20904650.73449 -16269254.89046  20396451.0114   20396449.5224
  -1753797.12145  -1356363.75241  23861890.4804   23861890.9684
 04  7 17  3 33 59.9990000  0 11G28G29G13G 7G10G19G27G26G 8G31G11
 -21347167.03949 -16615235.31046  20538374.7064   20538372.0654
 -10167250.39848  -7904800.34443  22510656.3944   22510655.6944
  -9149472.82046  -7117451.34642  23502314.9484   23502316.2804
  -7284442.45746  -5657872.68542  22647653.9484   22647656.2884
  -2294042.50446  -1773020.39242  24074753.0894   24074755.5814
  -8397274.67248  -6528355.40543  23103520.8944   23103519.0304
 -23847532.40649 -18569219.44746  20645593.6444   20645592.6284
  -4971845.80147  -3856807.43342  23030694.1124   23030694.4334
 -26799275.46549 -20868762.35146  19910253.7764   19910252.0774
 -20973611.46148 -16322990.44046  20383328.3554   20383327.1514
  -1805238.26645  -1396447.62741  23852102.0734   23852101.6874
 04  7 17  3 34 29.9990000  0 11G28G29G13G 7G10G19G27G26G 8G31G11
 -21369051.67249 -16632288.22946  20534210.0584   20534207.7104
 -10242459.34048  -7963404.63843  22496344.2144   22496343.9484
  -9036666.31246  -7029550.29242  23523781.5194   23523782.8234
  -7381972.89146  -5733870.15542  22629094.6834   22629096.4174
  -2231444.00846  -1724242.44941  24086664.4874   24086668.7414
  -8319782.63348  -6467972.12843  23118267.0034   23118265.2844
 -23820521.93449 -18548172.31946  20650733.9014   20650732.1014
  -5057896.56247  -3923859.92742  23014318.8084   23014319.7264
 -26805906.48449 -20873929.35947  19908991.9094   19908990.0584
 -21042039.77748 -16376311.13346  20370306.7844   20370305.3044
  -1856393.30145  -1436308.48241  23842367.7924   23842367.3194
 04  7 17  3 34 59.9990000  0 11G28G29G13G 7G10G19G27G26G 8G31G11
 -21390615.70749 -16649091.33746  20530106.5654   20530103.9214
 -10317274.10248  -8021701.76543  22482107.3154   22482106.8784
  -8923713.63746  -6941535.32542  23545275.2764   23545277.6904
  -7479285.24646  -5809697.66142  22610576.8474   22610578.2224
  -2168564.39846  -1675245.42542  24098629.9174   24098634.8354
  -8241889.49248  -6407276.23843  23133089.7454   23133088.0544
 -23793171.78149 -18526860.50046  20655938.2614   20655936.9724
  -5143577.48847  -3990624.24442  22998014.9174   22998015.7694
 -26812186.12949 -20878822.58046  19907797.1124   19907795.2224
 -21109933.67248 -16429215.39546  20357386.9174   20357385.8744
  -1907259.90245  -1475944.66942  23832688.1444   23832688.6874
 04  7 17  3 35 29.9990000  0 11G28G29G13G 7G10G19G27G26G 8G31G11
 -21411856.15649 -16665642.29946  20526064.3554   20526062.2614
 -10391688.65648  -8079687.03643  22467946.5974   22467946.4404
  -8810613.62145  -6853405.53342  23566797.1984   23566799.8004
  -7576373.56246  -5885350.64942  22592100.7924   22592102.8944
  -2105403.10246  -1626028.96342  24110649.8864   24110652.7304
  -8163594.06248  -6346266.89143  23147989.5734   23147987.4174
 -23765477.47749 -18505280.51646  20661208.2454   20661206.7694
  -5228882.30147  -4057095.45742  22981781.7144   22981783.2694
 -26818109.40649 -20883438.09947  19906669.9254   19906668.1364
 -21177287.30549 -16481698.68846  20344570.1124   20344568.4524
  -1957831.98845  -1515351.31742  23823064.1674   23823064.6594
 04  7 17  3 35 59.9990000  0 11G28G29G13G 7G10G19G27G26G 8G31G11
 -21432780.94949 -16681947.29546  20522082.5424   20522080.5584
 -10465708.20748  -8137364.51943  22453861.1124   22453860.9374
  -8697376.51245  -6765168.93442  23588346.4644   23588348.3554
  -7673243.18446  -5960833.18642  22573667.2454   22573668.7494
  -2041970.50046  -1576601.02042  24122720.4254   24122723.4604
  -8084906.25448  -6284951.74543  23162963.4644   23162961.3124
 -23737446.03549 -18483437.83246  20666542.3234   20666541.1514
  -5313816.03147  -4123277.57042  22965619.0894   22965620.5654
 -26823682.90649 -20887781.06846  19905608.8394   19905607.3514
 -21244106.06248 -16533765.17146  20331854.7764   20331853.2454
  -2008114.12145  -1554532.03642  23813495.7844   23813496.0424
 04  7 17  3 36 29.9990000  0 11G28G29G13G 7G10G19G27G26G 8G31G11
 -21453387.30149 -16698004.16246  20518160.9174   20518159.1984
 -10539326.09848  -8194728.99843  22439852.2534   22439851.9214
  -8584000.39546  -6676823.99142  23609920.7614   23609923.4524
  -7769887.64847  -6036140.29242  22555275.9724   22555277.9094
  -1978265.49246  -1526960.75342  24134843.8624   24134846.7534
  -8005824.21947  -6223329.48743  23178011.4404   23178010.2844
 -23709072.70349 -18461328.73346  20671941.6674   20671940.6904
  -5398371.82047  -4189165.15242  22949529.2304   22949530.1284
 -26828901.56649 -20891847.53146  19904615.9724   19904614.3314
 -21310383.58248 -16585409.91346  20319242.5974   20319241.2694
  -2058099.52345  -1593481.58242  23803983.5894   23803983.9444
 04  7 17  3 36 59.9990000  0 11G28G29G13G 7G10G19G27G26G 8G31G11
 -21473676.49649 -16713813.89246  20514300.4804   20514298.1404
 -10612540.88748  -8251779.38943  22425919.7614   22425919.5814
  -8470489.15246  -6588373.84242  23631521.0974   23631523.5034
  -7866305.61746  -6111270.89343  22536927.9254   22536929.3904
  -1914292.20346  -1477111.51942  24147017.2694   24147020.5854
  -7926351.62147  -6161402.85542  23193134.9484   23193133.2304
 -23680357.37949 -18438953.16446  20677406.2454   20677404.5854
  -5482547.89847  -4254756.86642  22933510.4644   22933512.2374
 -26833764.77349 -20895637.03647  19903690.4564   19903688.8624
 -21376118.50848 -16636631.86846  20306733.5654   20306732.1014
  -2107786.92646  -1632198.95042  23794528.6834   23794528.2964
 04  7 17  3 37 29.9990000  0 11G28G29G13G 7G10G19G27G26G 8G31G11
 -21493647.42649 -16729375.62446  20510499.7694   20510497.7374
 -10685348.33648  -8308512.36343  22412065.1124   22412064.3624
  -8356843.32846  -6499818.73442  23653147.5584   23653149.5264
  -7962492.74647  -6186221.62043  22518624.2924   22518625.9834
  -1850051.43046  -1427053.92842  24159241.2614   24159245.6404
  -7846488.91048  -6099172.23742  23208332.8004   23208330.8394
 -23651297.54349 -18416309.12446  20682935.9484   20682934.5974
  -5566339.84847  -4320049.22242  22917565.5114   22917566.4764
 -26838269.84849 -20899147.46447  19902833.1984   19902831.8124
 -21441306.69548 -16687427.79746  20294328.7694   20294327.3354
  -2157171.59046  -1670680.37342  23785131.6514   23785130.7924
 04  7 17  3 37 59.9990000  0 11G28G29G13G 7G10G19G27G26G 8G31G11
 -21513307.09449 -16744694.80446  20506758.5974   20506756.3314
 -10757752.27748  -8364930.91343  22398287.1674   22398286.0074
  -8243071.53546  -6411165.55142  23674797.9014   23674799.7104
  -8058453.03546  -6260995.61042  22500363.6124   22500364.8554
  -1785552.42246  -1376794.97642  24171515.1594   24171518.6124
  -7766244.78947  -6036644.42943  23223601.9094   23223600.9404
 -23621898.65249 -18393400.91146  20688530.0734   20688529.3554
  -5649751.10247  -4385044.96542  22901692.7694   22901693.6834
 -26842421.96549 -20902382.87347  19902043.0264   19902041.4484
 -21505952.25049 -16737800.88946  20282026.8394   20282025.1364
  -2206257.55145  -1708929.04841  23775790.5424   23775790.1794
 04  7 17  3 38 29.9990000  0 11G28G29G13G 7G10G19G27G26G 8G31G11
 -21532647.72749 -16759765.40846  20503078.1754   20503075.8864
 -10829742.22748  -8421026.87243  22384588.0814   22384587.0854
  -8129168.12546  -6322409.77942  23696472.9094   23696474.8124
  -8154176.15247  -6335584.76643  22482147.4484   22482148.4054
  -1720790.18446  -1326330.95041  24183838.9254   24183843.2334
  -7685613.64847  -5973815.03643  23238945.5344   23238944.4914
 -23592151.98449 -18370221.69146  20694190.7924   20694189.6364
  -5732771.04747  -4449735.78542  22885894.6444   22885894.9374
 -26846211.73449 -20905335.92447  19901321.9404   19901320.7024
 -21570044.79349 -16787743.06446  20269830.4014   20269829.0854
  -2255033.54746  -1746936.23442  23766508.9724   23766507.1904
 04  7 17  3 38 59.9990000  0 11G28G29G13G 7G10G19G27G26G 8G31G11
 -21551676.08249 -16774592.66546  20499457.7534   20499454.7414
 -10901321.80948  -8476803.08943  22370966.5584   22370965.6164
  -8015141.18747  -6233557.72242  23718171.7614   23718173.9214
  -8249665.60947  -6409991.87843  22463976.1054   22463977.5504
  -1655773.74247  -1275668.85642  24196211.6514   24196215.7694
  -7604603.82847  -5910690.58143  23254361.7694   23254359.9334
 -23562062.55949 -18346775.39146  20699916.4094   20699915.6474
  -5815402.96147  -4514124.22942  22870170.3234   22870170.9404
 -26849643.92649 -20908010.34547  19900668.2454   19900667.1554
 -21633588.19549 -16837257.34446  20257738.7064   20257737.0384
  -2303503.04346  -1784704.50642  23757285.2924   23757284.4334
 04  7 17  3 39 29.9990000  0 11G28G29G13G 7G10G19G27G26G 8G31G11
 -21570393.44549 -16789177.59546  20495895.5814   20495893.1874
 -10972489.19148  -8532258.09743  22357424.3084   22357423.1554
  -7900994.68447  -6144612.50742  23739893.5814   23739895.0504
  -8344919.67248  -6484215.59443  22445849.7614   22445850.7964
  -1590506.42246  -1224811.26842  24208630.9804   24208635.3864
  -7523218.10547  -5847273.19343  23269849.1594   23269847.5544
 -23531630.23049 -18323061.89346  20705707.8234   20705706.9994
  -5897644.70347  -4578208.67242  22854519.8474   22854520.3784
 -26852718.28549 -20910405.93146  19900083.5424   19900082.2534
 -21696580.83649 -16886342.45046  20245751.3004   20245749.8194
  -2351663.78546  -1822232.25542  23748120.7614   23748119.7304
 04  7 17  3 39 59.9990000  0 11G28G29G13G 7G10G19G27G26G 8G31G11
 -21588798.84849 -16803519.44846  20492393.2144   20492390.7844
 -11043240.25048  -8587388.69943  22343960.3784   22343959.6444
  -7786728.93047  -6055574.37942  23761637.3004   23761639.3744
  -8439934.57047  -6558252.97242  22427769.1594   22427770.0264
  -1524989.57846  -1173759.34642  24221099.7764   24221103.2064
  -7441457.45747  -5783563.69243  23285407.9094   23285407.1204
 -23500852.91049 -18299079.57746  20711564.3474   20711563.3514
  -5979492.16847  -4641985.82642  22838944.2064   22838945.4994
 -26855431.77349 -20912520.32646  19899567.4484   19899565.7334
 -21759018.91449 -16934995.43846  20233869.9404   20233868.3354
  -2399511.88746  -1859516.36942  23739015.6124   23739015.3004
 04  7 17  3 40 29.9990000  0 11G28G29G13G 7G10G19G27G26G 8G31G11
 -21606892.69949 -16817618.52946  20488949.9484   20488947.4764
 -11113572.42248  -8642192.92043  22330576.2924   22330575.6124
  -7672346.32846  -5966445.19041  23783404.0194   23783406.0224
  -8534707.66447  -6632101.90542  22409733.8944   22409734.7494
  -1459226.03146  -1122515.05642  24233612.6204   24233616.7724
  -7359324.21547  -5719563.82143  23301037.0344   23301036.2654
 -23469729.32849 -18274827.44345  20717486.9804   20717485.9294
  -6060942.30547  -4705453.39442  22823445.2144   22823445.9834
 -26857783.36749 -20914352.71947  19899119.8234   19899118.6324
 -21820900.23849 -16983214.58246  20222093.9484   20222092.5264
  -2447044.43746  -1896554.62642  23729970.4954   23729970.1714
 04  7 17  3 40 59.9990000  0 11G28G29G13G 7G10G19G27G26G 8G31G11
 -21624672.18449 -16831472.64546  20485566.8234   20485564.0774
 -11183480.11748  -8696666.34943  22317272.9874   22317272.8394
  -7557845.94946  -5877224.22842  23805192.5194   23805193.9874
  -8629233.28147  -6705758.03843  22391746.0654   22391747.5384
  -1393215.27346  -1071078.22642  24246175.1594   24246178.9764
  -7276817.16447  -5655272.66043  23316737.3154   23316737.3124
 -23438255.70749 -18250302.56346  20723476.5034   20723475.1554
  -6141989.26647  -4768606.80542  22808022.9254   22808023.1244
 -26859768.49249 -20915899.55747  19898742.1124   19898740.5424
 -21882219.25449 -17030995.57446  20210425.4094   20210423.9054
  -2494255.35946  -1933342.24542  23720985.9404   23720986.4334
 04  7 17  3 41 29.9990000  0 11G28G29G13G 7G10G19G27G26G 8G31G11
 -21642139.77049 -16845083.73346  20482242.7924   20482240.3084
 -11252962.82448  -8750808.65843  22304051.3314   22304050.4644
  -7443232.16046  -5787914.91341  23827002.9874   23827004.6794
  -8723510.98848  -6779220.98343  22373805.6204   22373806.8474
  -1326962.19146  -1019452.49142  24258783.1284   24258786.2694
  -7193940.67247  -5590693.64543  23332508.7144   23332508.4174
 -23406433.05549 -18225505.70446  20729532.1124   20729531.0384
  -6222632.24648  -4831445.36942  22792677.0814   22792676.9994
 -26861387.76649 -20917161.31946  19898433.7844   19898432.3624
 -21942975.76249 -17078338.25846  20198864.1054   20198862.3864
  -2541144.02046  -1969878.78042  23712062.8084   23712063.4644
 04  7 17  3 41 59.9990000  0 11G28G29G13G 7G10G19G27G26G 8G31G11
 -21659296.39149 -16858452.49946  20478978.0654   20478975.8124
 -11322018.19948  -8804617.98343  22290910.2694   22290909.8554
  -7328507.57846  -5698519.29942  23848834.3474   23848836.5344
  -8817538.76648  -6852489.19443  22355912.4094   22355914.1014
  -1260470.10547   -967640.56942  24271435.7374   24271439.4294
  -7110697.39547  -5525828.79243  23348349.3474   23348349.0464
 -23374260.88349 -18200436.49346  20735654.3554   20735653.4214
  -6302868.88348  -4893967.34042  22777408.6204   22777408.4254
 -26862640.69149 -20918137.60946  19898195.2224   19898193.9834
 -22003167.80148 -17125241.07946  20187409.6594   20187408.1984
  -2587708.11346  -2006162.40942  23703202.3314   23703202.2694
 04  7 17  3 42 29.9990000  0 11G28G29G13G 7G10G19G27G26G 8G31G11
 -21676144.25049 -16871580.69046  20475771.9094   20475769.3664
 -11390645.57848  -8858093.78743  22277850.9094   22277850.4644
  -7213676.07845  -5609040.37242  23870685.8864   23870688.4334
  -8911315.62148  -6925561.85443  22338066.9954   22338068.4684
  -1193743.13346   -915645.58142  24284134.0034   24284137.1904
  -7027091.13746  -5460681.10343  23364258.2924   23364259.2184
 -23341739.77749 -18175095.38345  20741842.7694   20741841.7844
  -6382697.69948  -4956171.49942  22762217.6514   22762217.4404
 -26863527.09049 -20918828.30646  19898026.6984   19898025.0074
 -22062794.72748 -17171703.55546  20176062.8394   20176061.2804
  -2633946.13746  -2042191.98342  23694403.3314   23694403.8664
 04  7 17  3 42 59.9990000  0 11G28G29G13G 7G10G19G27G26G 8G31G11
 -21692681.58649 -16884466.91346  20472624.9644   20472622.3394
 -11458839.97748  -8911232.22143  22264873.4174   22264872.8084
  -7098737.96145  -5519478.26141  23892557.9484   23892560.8974
  -9004836.78148  -6998435.31143  22320270.3234   22320271.4834
  -1126782.02346   -863468.16342  24296875.9014   24296880.0624
  -6943122.02046  -5395250.65743  23380237.0034   23380238.3004
 -23308866.70349 -18149480.01246  20748098.0654   20748097.2844
  -6462113.89848  -5018054.11743  22747104.7614   22747104.3704
 -26864043.38349 -20919230.60046  19897928.6444   19897926.6164
 -22121852.15648 -17217722.28146  20164824.3004   20164823.0974
  -2679853.53146  -2077963.81642  23685667.5584   23685667.6594
 04  7 17  3 43 29.9990000  0 11G28G29G13G 7G10G19G27G26G 8G31G11
 -21708912.04749 -16897113.99946  20469536.3554   20469533.8974
 -11526602.28548  -8964033.99443  22251978.4874   22251978.3744
  -6983698.77046  -5429837.63241  23914450.0584   23914452.1674
  -9098103.27348  -7071110.31043  22302522.4564   22302522.9564
  -1059592.88746   -811113.12142  24309662.1364   24309664.8974
  -6858795.92246  -5329542.07743  23396283.6364   23396284.2964
 -23275644.18748 -18123592.35346  20754420.4404   20754419.4804
  -6541117.99647  -5079615.63442  22732070.5894   22732070.4724
 -26864191.96549 -20919346.36646  19897900.4174   19897898.6834
 -22180341.23048 -17263298.12546  20153694.4564   20153692.9334
  -2725430.64547  -2113478.33742  23676994.9954   23676994.8354
 04  7 17  3 43 59.9990000  0 11G28G29G13G 7G10G19G27G26G 8G31G11
 -21724833.56249 -16909520.35946  20466506.6054   20466503.8354
 -11593927.26648  -9016494.94743  22239167.5504   22239166.6324
  -6868557.64545  -5340117.35341  23936359.8314   23936363.2334
  -9191109.69948  -7143582.67843  22284823.7614   22284824.2924
   -992175.53946   -758580.27642  24322490.6204   24322494.2614
  -6774111.76647  -5263554.48043  23412399.0584   23412399.1634
 -23242068.48048 -18097429.47046  20760809.8314   20760808.8004
  -6619704.36348  -5140851.64942  22717116.5034   22717115.8974
 -26863968.66049 -20919172.34346  19897942.5424   19897940.9374
 -22238256.91848 -17308427.18246  20142673.6124   20142671.9994
  -2770671.72747  -2148731.03042  23668385.4644   23668385.2224
 04  7 17  3 44 29.9990000  0 11G28G29G13G 7G10G19G27G26G 8G31G11
 -21740450.10949 -16921689.07646  20463534.7844   20463532.0504
 -11660816.23448  -9068616.17743  22226438.9724   22226438.4834
  -6753320.50046  -5250322.21141  23958289.5654   23958291.6124
  -9283857.50448  -7215853.53143  22267174.3394   22267174.9954
   -924536.53946   -705874.63242  24335362.1904   24335366.1404
  -6689076.04747  -5197292.91343  23428581.0264   23428581.0654
 -23208142.71148 -18070993.82946  20767265.2374   20767264.6474
  -6697874.05548  -5201762.96642  22702240.9954   22702240.3274
 -26863376.00049 -20918710.51346  19898055.5654   19898053.7264
 -22295600.91048 -17353110.75946  20131760.9484   20131759.4174
  -2815578.10546  -2183722.95442  23659839.6124   23659839.6014
 04  7 17  3 44 59.9990000  0 11G28G29G13G 7G10G19G27G26G 8G31G11
 -21755762.58249 -16933620.85246  20460621.1674   20460618.3354
 -11727266.64148  -9120395.66043  22213793.1124   22213792.9214
  -6637990.56245  -5160454.94141  23980235.7694   23980238.5264
  -9376344.36348  -7287921.05443  22249574.5504   22249575.6834
   -856678.70746   -652998.48741  24348275.4254   24348279.1364
  -6603691.11747  -5130759.20443  23444829.3784   23444829.1364
 -23173865.93748 -18044284.67245  20773788.2694   20773786.8744
  -6775624.53947  -5262347.59642  22687445.1054   22687444.5424
 -26862412.80149 -20917959.95347  19898238.8004   19898237.1874
 -22352371.23449 -17397347.32046  20120958.3474   20120956.5114
  -2860147.37147  -2218452.17442  23651358.3084   23651358.4994
 04  7 17  3 45 29.9990000  0 11G28G29G13G 7G10G19G27G26G 8G31G11
 -21770772.46949 -16945316.84246  20457764.6834   20457761.9334
 -11793277.38348  -9171832.56143  22201231.9804   22201231.4564
  -6522571.18445  -5070517.88341  24002199.6054   24002202.4484
  -9468569.04348  -7359784.27843  22232024.4564   22232025.6944
   -788606.48046   -599955.35942  24361229.1984   24361233.6284
  -6517960.19947  -5063955.91843  23461142.9334   23461142.9334
 -23139238.61348 -18017302.35946  20780377.4724   20780376.5384
  -6852954.10947  -5322604.27042  22672729.6754   22672729.7024
 -26861079.14849 -20916920.73447  19898492.3154   19898491.2104
 -22408566.87949 -17441136.08146  20110264.4014   20110262.5974
  -2904377.75846  -2252917.36342  23642941.3004   23642941.3044
 04  7 17  3 45 59.9990000  0 11G28G29G13G 7G10G19G27G26G 8G31G11
 -21785475.18049 -16956773.48846  20454966.7374   20454964.3554
 -11858840.29748  -9222920.49444  22188755.5264   22188755.2574
  -6407058.70345  -4980508.32841  24024181.1754   24024183.2884
  -9560523.40648  -7431436.85643  22214526.3004   22214527.1324
   -720316.93446   -546742.80142  24374224.8234   24374228.1754
  -6431880.63347  -4996881.00543  23477523.5734   23477523.3044
 -23104254.33249 -17990041.90046  20787034.6594   20787034.0504
  -6929854.50047  -5382526.53742  22658095.6594   22658095.7494
 -26859367.93449 -20915587.30846  19898818.1674   19898816.8354
 -22464180.30549 -17484471.17446  20099681.5114   20099679.7494
  -2948261.19146  -2287112.10842  23634590.1514   23634590.8744
 04  7 17  3 46 29.9990000  0 11G28G29G13G 7G10G19G27G26G 8G31G11
 -21799874.13749 -16967993.43646  20452226.4874   20452224.1904
 -11923956.51648  -9273660.35543  22176364.3394   22176363.7964
  -6291459.14845  -4890430.89541  24046179.5114   24046181.7144
  -9652208.71948  -7502879.80643  22197079.2304   22197079.7844
   -651816.71946   -493366.11342  24387259.6444   24387263.4524
  -6345457.63347  -4929538.43043  23493969.9954   23493969.1244
 -23068915.88749 -17962505.47745  20793759.5974   20793758.7374
  -7006326.65247  -5442115.08442  22643543.7064   22643543.4834
 -26857281.78949 -20913961.72446  19899215.2614   19899213.4254
 -22519212.85949 -17527353.63846  20089209.0114   20089207.4334
  -2991798.21946  -2321037.00442  23626305.3474   23626306.1054
 04  7 17  3 46 59.9990000  0 11G28G29G13G 7G10G19G27G26G 8G31G11
 -21813970.74649 -16978977.79446  20449544.2844   20449541.7804
 -11988624.18448  -9324050.69644  22164058.6204   22164058.0264
  -6175775.49245  -4800287.93041  24068193.3624   24068196.2844
  -9743623.16848  -7574111.70143  22179683.3784   22179684.3624
   -583108.88745   -439827.59741  24400334.3234   24400338.1554
  -6258694.41847  -4861930.79543  23510480.5194   23510479.6594
 -23033223.00849 -17934692.86145  20800551.6364   20800550.7494
  -7082368.11347  -5501368.06342  22629073.2064   22629072.8864
 -26854819.72749 -20912043.23247  19899683.4564   19899682.2654
 -22573663.24249 -17569782.46246  20078847.3864   20078845.8584
  -3034986.90246  -2354690.44342  23618086.6514   23618087.0894
 04  7 17  3 47 29.9990000  0 11G28G29G13G 7G10G19G27G26G 8G31G11
 -21827765.94549 -16989727.27146  20446919.1674   20446916.5544
 -12052841.81648  -9374090.36743  22151838.6284   22151837.7454
  -6060010.53546  -4710081.61341  24090223.6674   24090225.6554
  -9834764.88348  -7645131.06743  22162339.6674   22162340.4874
   -514196.85545   -386129.98542  24413448.1124   24413451.4564
  -6171593.70747  -4794060.10143  23527055.7924   23527054.1554
 -22997175.61749 -17906604.00845  20807411.2454   20807410.5694
  -7157976.98048  -5560283.97142  22614685.3554   22614685.1834
 -26851981.32049 -20909831.47847  19900223.9254   19900222.2574
 -22627530.07449 -17611756.56846  20068596.9254   20068595.2534
  -3077825.39546  -2388071.02342  23609934.9174   23609935.0584
 04  7 17  3 47 59.9990000  0 11G28G29G13G 7G10G19G27G26G 8G31G11
 -21841259.99249 -17000242.08846  20444351.1834   20444348.5464
 -12116606.02048  -9423776.68844  22139704.6364   22139703.7064
  -5944165.98446  -4619813.18041  24112266.7924   24112270.4334
  -9925630.97748  -7715935.68443  22145048.2304   22145048.7304
   -445082.94945   -332275.05941  24426598.8784   24426603.9484
  -6084157.33247  -4725927.83042  23543693.9404   23543692.1904
 -22960772.27748 -17878237.79445  20814338.8784   20814337.5774
  -7233150.01247  -5618860.24142  22600380.1594   22600380.3124
 -26848764.23049 -20907324.65047  19900836.1444   19900834.4054
 -22680810.68449 -17653273.87146  20058457.8314   20058456.3904
  -3120310.25046  -2421176.05242  23601850.7614   23601850.4644
 04  7 17  3 48 29.9990000  0 11G28G29G13G 7G10G19G27G26G 8G31G11
 -21854452.42649 -17010521.88146  20441840.8864   20441838.0504
 -12179913.34448  -9473107.01044  22127657.5344   22127656.6514
  -5828243.18746  -4529483.93441  24134326.5114   24134329.4134
 -10016217.95348  -7786522.79043  22127809.9874   22127810.9604
   -375768.92245   -278264.21741  24439789.1984   24439793.5584
  -5996386.66047  -4657535.11443  23560395.7534   23560394.1364
 -22924011.25849 -17849592.86745  20821333.9954   20821333.0154
  -7307883.37547  -5677093.94343  22586158.8474   22586158.7374
 -26845167.17249 -20904521.74146  19901520.6124   19901519.1554
 -22733502.03149 -17694332.02546  20048430.8314   20048429.3314
  -3162437.71947  -2454002.57542  23593833.8314   23593833.3234
 04  7 17  3 48 59.9990000  0 11G28G29G13G 7G10G19G27G26G 8G31G11
 -21867347.64149 -17020570.07946  20439386.6124   20439383.9804
 -12242765.68048  -9522082.79644  22115697.1674   22115696.3084
  -5712248.50846  -4439098.63341  24156399.2304   24156403.0464
 -10106527.41048  -7856893.66243  22110624.5504   22110625.4334
   -306261.80944   -224102.98841  24453016.6054   24453020.6474
  -5908288.11747  -4588886.91443  23577160.4404   23577159.2414
 -22886895.78548 -17820671.74545  20828396.8704   20828395.9094
  -7382178.62947  -5734986.27342  22572021.1754   22572020.4954
 -26841192.80549 -20901424.83346  19902276.8004   19902275.2924
 -22785606.34449 -17734932.74546  20038515.8784   20038514.2334
  -3204209.54747  -2486552.03142  23585884.1204   23585884.8664
 04  7 17  3 49 29.9990000  0 11G28G29G13G 7G10G19G27G26G 8G31G11
 -21879948.65649 -17030389.01146  20436988.6124   20436986.4604
 -12305163.14548  -9570704.14543  22103823.2064   22103821.9524
  -5596186.27346  -4348660.64141  24178485.7374   24178488.6834
 -10196559.57848  -7927048.46043  22093492.0504   22093492.6084
   -236566.81244   -169795.35541  24466278.7224   24466283.9564
  -5819866.47747  -4519986.94142  23593986.7304   23593985.6594
 -22849427.52748 -17791475.72545  20835526.8624   20835525.9214
  -7456035.36747  -5792536.93142  22557966.6124   22557966.5304
 -26836841.76249 -20898034.38747  19903104.8784   19903103.3004
 -22837124.03148 -17775076.35446  20028712.2924   20028710.9174
  -3245625.25046  -2518823.90642  23578003.5974   23578003.2334
 04  7 17  3 49 59.9990000  0 10G28G29G13G 7G19G27G26G 8G31G11
 -21892252.75449 -17039976.59346  20434647.2924   20434644.8624
 -12367099.91048  -9618966.50444  22092037.1674   22092036.1554
  -5480055.70746  -4258169.43441  24200585.5344   24200588.4094
 -10286308.68048  -7996982.70943  22076413.1054   22076414.0154
  -5731120.53147  -4450834.30442  23610874.6444   23610872.8154
 -22811602.38748 -17762001.60245  20842725.1124   20842723.7224
  -7529447.55146  -5849741.17343  22543996.0034   22543996.2024
 -26832109.97349 -20894347.28947  19904005.4254   19904003.9684
 -22888049.94149 -17814758.84446  20019021.4804   20019019.6554
  -3286679.21946  -2550813.97742  23570190.8704   23570191.0304
 04  7 17  3 50 29.9990000  0 10G28G29G13G 7G19G27G26G 8G31G11
 -21904256.23449 -17049329.92546  20432363.3554   20432360.8194
 -12428569.29748  -9666864.67044  22080340.4014   22080338.9564
  -5363855.36346  -4167623.84441  24222698.1514   24222700.4834
 -10375768.09848  -8066691.21544  22059389.3704   22059389.9724
  -5642048.51647  -4381427.52142  23627823.7764   23627822.2654
 -22773415.45348 -17732245.57845  20849991.3234   20849990.4914
  -7602408.33647  -5906593.66343  22530112.8154   22530112.7184
 -26826991.53949 -20890358.88547  19904979.1284   19904977.7454
 -22938377.89149 -17853975.37946  20009444.5344   20009442.5654
  -3327364.52346  -2582516.74342  23562448.2534   23562448.0154
 04  7 17  3 50 59.9990000  0 10G28G29G13G 7G19G27G26G 8G31G11
 -21915955.09449 -17058445.89046  20430137.0654   20430134.3434
 -12489564.62948  -9714393.45544  22068732.5264   22068732.0154
  -5247582.80546  -4077022.01241  24244824.5504   24244826.3004
 -10464931.05948  -8136168.72243  22042421.9954   22042422.9644
  -5552648.57846  -4311765.29142  23644836.6754   23644834.8624
 -22734861.60548 -17702203.64845  20857327.8554   20857327.0264
  -7674910.64547  -5963088.92143  22516315.6054   22516316.4094
 -26821481.37149 -20886065.24947  19906027.8944   19906026.5344
 -22988101.67249 -17892721.14446  19999982.2924   19999980.4054
  -3367674.08246  -2613926.70742  23554778.0654   23554777.4834
 04  7 17  3 51 29.9990000  0 10G28G29G13G 7G19G27G26G 8G31G11
 -21927343.57049 -17067320.00646  20427970.0894   20427967.1794
 -12550077.07848  -9761545.96244  22057217.0974   22057216.7264
  -5131233.81645  -3986360.60541  24266964.6754   24266966.6834
 -10553788.82448  -8205408.42243  22025512.6754   22025513.5304
  -5462916.59846  -4241844.30542  23661912.4644   23661910.2724
 -22695933.68448 -17671870.22445  20864735.9334   20864734.8624
  -7746945.39147  -6019219.84743  22502607.6284   22502608.4874
 -26815571.52749 -20881460.17346  19907152.1674   19907150.7654
 -23037212.98849 -17930989.67046  19990636.5034   19990634.7534
  -3407598.71546  -2645036.72141  23547181.0114   23547179.9604
 04  7 17  3 51 59.9990000  0 10G28G29G13G 7G19G27G26G 8G31G11
 -21938426.34049 -17075955.90446  20425860.7614   20425858.1874
 -12610108.50848  -9808323.65144  22045793.6514   22045793.1014
  -5014814.77045  -3895644.65241  24289118.5734   24289120.6714
 -10642343.12548  -8274411.63444  22008661.7694   22008662.1594
  -5372858.71947  -4171669.41942  23679049.0974   23679047.9054
 -22656635.07449 -17641247.94145  20872214.2304   20872213.3314
  -7818514.05947  -6074987.58043  22488988.8554   22488989.2884
 -26809265.44149 -20876546.34246  19908352.0654   19908350.6444
 -23085714.08249 -17968782.69046  19981406.9334   19981405.6014
  -3447140.03147  -2675848.07642  23539656.4484   23539655.8004
 04  7 17  3 52 29.9990000  0 10G28G29G13G 7G19G27G26G 8G31G11
 -21949206.83249 -17084356.27146  20423809.3394   20423806.9214
 -12669659.45348  -9854726.93344  22034461.5114   22034460.9874
  -4898330.57446  -3804877.88741  24311284.5034   24311287.1164
 -10730594.40648  -8343178.72943  21991867.3784   21991868.4174
  -5282480.41046  -4101244.82742  23696248.1054   23696246.7694
 -22616967.89848 -17610338.46945  20879762.2694   20879761.2224
  -7889616.89547  -6130392.33943  22475458.5584   22475458.7144
 -26802564.52349 -20871324.84847  19909627.3474   19909625.9334
 -23133606.12149 -18006101.12046  19972293.4014   19972292.0344
  -3486298.68447  -2706361.20742  23532204.6674   23532204.3004
 04  7 17  3 52 59.9990000  0 10G28G29G13G 7G19G27G26G 8G31G11
 -21959688.23849 -17092523.58446  20421814.8784   20421812.0384
 -12728730.37948  -9900756.20644  22023221.1444   22023219.9834
  -4781786.60545  -3714064.50841  24333461.7374   24333464.0894
 -10818543.12948  -8411710.09244  21975131.7374   21975132.4054
  -5191786.53946  -4030574.33742  23713505.5504   23713504.7334
 -22576934.26649 -17579143.43745  20887380.7614   20887379.6014
  -7960253.98847  -6185434.20543  22462016.5734   22462016.1204
 -26795469.75849 -20865796.46147  19910977.6054   19910975.7574
 -23180890.05549 -18042945.70446  19963295.5344   19963294.0034
  -3525074.59446  -2736576.14742  23524825.9334   23524825.5504
